GEFSMA_500_meanwind_000.txt.gz
Wind_Speed
49 49 49 48 47 47 47 47 46 45 45 45 45 45 44 42 39 39 37 35 34 34 32 30 30 32 33 33 32 31 30 29 28 27 26 25 22 21 22 15 18 25 22
53 53 53 52 50 49 49 48 48 47 47 47 47 46 46 44 41 41 40 40 39 39 37 34 32 32 33 35 35 34 33 32 32 32 31 29 26 24 24 23 23 23 22
54 55 54 53 52 50 49 48 48 47 48 48 47 46 45 43 42 41 41 41 41 41 41 40 38 36 35 35 36 37 36 35 35 36 35 34 33 31 30 30 29 28 25
51 52 52 52 52 51 49 48 47 47 46 46 46 45 45 45 44 43 41 41 41 42 43 43 43 43 41 38 37 38 39 38 39 39 39 37 37 35 34 35 34 33 29
48 48 49 51 52 51 49 48 47 46 45 45 45 46 46 45 45 45 43 42 43 44 46 46 46 47 47 45 42 42 41 41 42 42 42 42 41 40 39 37 36 35 32
47 47 47 47 48 48 47 46 46 45 45 45 46 46 46 45 44 44 44 44 44 45 45 47 48 49 50 51 50 47 45 44 45 46 46 46 45 44 43 42 40 39 37
49 48 48 46 47 46 46 46 45 45 45 45 46 46 46 48 49 49 49 48 47 47 47 47 48 50 51 52 54 53 51 49 48 49 49 50 49 47 46 46 45 45 43
49 47 47 45 43 43 42 42 43 44 47 48 49 50 50 50 52 53 53 54 53 53 52 52 51 52 54 54 54 56 55 55 53 52 52 53 52 49 49 48 48 47 46
50 47 45 44 41 41 41 40 40 44 47 49 49 51 52 52 53 55 57 58 59 60 60 59 56 54 54 56 56 56 56 57 58 57 55 56 55 52 51 51 50 50 49
48 45 45 44 42 41 39 39 41 43 45 47 49 51 54 57 61 63 63 63 64 65 67 67 65 62 60 61 60 59 60 61 61 62 61 60 58 56 54 54 54 53 52
45 39 42 40 39 38 39 41 41 44 46 48 51 55 60 64 67 69 65 62 62 65 69 71 71 69 67 66 64 62 63 65 66 66 65 64 62 60 58 56 56 56 55
43 41 41 39 39 39 40 39 42 46 49 52 55 56 55 52 48 50 51 52 53 58 66 71 74 75 72 70 67 64 63 66 68 68 68 66 64 63 61 58 56 56 57
42 40 41 41 40 39 39 40 44 47 50 51 49 45 41 39 42 47 50 54 57 62 66 70 72 73 73 70 69 69 66 61 65 70 71 69 66 65 63 61 58 56 57
48 41 42 41 40 40 40 41 45 48 48 46 42 38 37 39 43 46 48 52 56 57 56 57 59 63 67 67 69 70 71 69 68 67 72 72 68 66 64 62 60 56 55
43 40 41 41 42 42 41 41 44 46 45 43 40 40 40 40 42 44 44 47 51 51 48 44 44 49 55 59 60 64 69 74 77 73 69 71 71 68 67 62 61 59 55
36 37 39 40 42 42 41 41 44 43 43 42 42 42 40 41 42 42 42 44 46 48 45 39 40 42 47 51 55 55 58 69 69 68 66 68 70 68 69 66 64 61 57
35 37 40 41 42 42 41 41 42 42 42 42 43 42 39 41 40 39 40 39 40 43 44 39 39 40 43 46 51 55 54 62 65 61 66 66 68 69 71 71 67 65 64
36 38 41 41 41 40 39 41 42 42 41 41 42 41 39 39 38 38 38 37 36 37 38 38 37 38 37 40 43 52 56 58 62 61 67 60 63 69 69 74 71 68 67
36 38 40 41 41 41 39 39 41 41 40 40 42 41 39 38 37 37 36 34 32 31 32 31 30 31 34 37 40 43 45 51 56 56 64 61 63 63 65 71 73 69 69
37 36 38 43 44 43 42 40 39 40 39 41 43 42 40 39 36 34 35 33 31 30 30 28 25 27 32 34 37 39 40 44 54 55 66 59 59 63 63 67 70 69 69
37 36 39 43 44 44 42 42 40 40 42 42 44 43 40 40 38 35 34 33 33 32 30 28 25 24 28 31 34 37 39 40 49 55 61 62 55 59 63 64 68 71 70
36 37 40 42 43 44 44 42 43 42 43 44 44 44 41 40 40 37 36 34 34 35 33 30 27 25 24 29 32 33 38 41 46 57 60 61 57 52 58 61 62 66 72
33 35 39 41 43 44 45 44 46 45 43 44 45 44 42 41 41 40 38 37 36 36 36 35 31 28 27 25 26 28 31 37 41 50 57 59 59 52 52 56 59 61 64
33 34 38 41 43 46 47 47 48 47 44 44 45 44 43 42 42 41 39 38 38 38 38 37 36 32 30 29 30 28 24 23 28 39 52 59 62 58 57 61 61 60 62
39 40 41 44 47 49 50 50 49 45 43 44 45 45 44 43 43 42 41 39 39 40 40 40 39 38 35 34 34 32 31 28 24 27 36 50 59 65 65 62 63 64 61
41 43 43 45 48 50 50 50 49 43 42 44 45 45 45 45 45 45 44 43 42 42 42 42 42 42 40 39 39 37 34 32 29 27 33 40 47 57 64 67 67 66 65

GEFSMA_500_meanwind_006.txt.gz
Wind_Speed
41 43 44 44 45 45 46 47 48 49 49 49 50 50 49 48 47 45 42 39 38 38 38 36 35 34 33 33 32 31 31 32 33 33 32 32 31 31 32 32 32 34 36
41 42 43 44 44 45 45 46 48 50 52 52 53 53 52 51 50 49 47 43 41 40 40 39 38 38 37 36 35 35 34 34 34 35 35 35 35 34 33 32 31 31 33
45 46 47 47 47 46 47 48 48 50 51 52 53 54 54 53 51 50 49 47 44 42 41 41 42 41 41 40 39 38 37 37 37 37 37 37 37 38 37 36 33 32 34
51 51 51 50 49 49 50 50 49 50 50 51 52 54 54 54 54 52 51 49 47 45 43 43 44 44 44 44 43 41 40 40 40 40 40 39 39 39 40 40 38 36 35
55 55 54 52 51 51 51 51 50 51 51 52 52 54 55 56 55 53 51 50 48 46 45 44 45 45 45 45 45 44 43 43 43 43 43 42 42 41 41 42 41 40 39
55 56 56 54 52 51 49 50 51 51 52 53 53 54 56 57 57 55 53 51 50 48 46 46 46 47 47 46 46 46 46 46 46 46 46 45 44 44 43 43 43 43 42
54 54 53 52 51 50 50 50 52 53 53 53 54 55 56 57 57 56 54 53 52 50 49 48 47 48 48 48 48 49 49 50 49 50 50 50 49 48 46 45 44 44 44
54 53 52 50 50 50 50 51 52 53 54 54 54 55 56 58 57 57 56 55 53 52 50 49 48 48 49 50 50 50 51 51 51 52 53 54 54 53 51 50 48 46 46
54 54 53 51 50 50 51 52 53 53 53 53 52 52 52 53 54 54 53 52 51 51 50 50 50 51 51 51 51 52 52 53 52 52 54 55 57 58 57 55 53 51 49
54 55 55 54 52 52 53 53 53 54 54 52 51 51 52 52 52 52 51 50 51 52 52 53 54 54 53 53 53 54 54 55 55 55 55 57 59 61 61 60 59 56 55
56 54 53 52 51 51 52 53 53 55 56 54 53 52 51 51 51 51 51 51 52 53 54 54 55 55 55 55 56 58 59 60 61 61 60 60 61 63 64 64 64 62 60
55 52 52 51 51 51 51 52 53 53 55 55 54 53 51 51 51 51 50 49 50 51 53 54 55 56 57 58 59 60 62 63 64 66 67 67 66 67 68 68 68 67 65
51 51 51 50 50 50 50 50 51 52 54 54 53 52 52 51 50 49 48 47 48 50 52 53 54 55 55 55 56 56 57 57 58 61 64 68 72 74 74 74 73 71 69
49 49 48 47 47 49 49 50 51 50 51 51 50 49 49 48 47 46 46 47 47 48 47 48 48 48 47 48 50 51 53 54 56 58 61 66 70 75 78 79 79 76 74
47 47 46 44 45 48 50 52 51 51 49 48 47 46 45 44 44 45 46 47 47 46 44 44 44 43 43 44 46 49 51 53 55 58 62 67 73 78 80 82 83 81 78
45 45 43 41 41 43 46 48 49 49 49 47 45 43 42 42 42 42 43 44 45 44 44 43 42 42 42 43 44 47 49 50 53 57 62 66 72 77 83 85 86 85 82
45 44 43 43 43 43 43 44 45 46 46 45 43 42 41 41 40 40 41 42 43 44 43 42 41 40 40 42 43 44 45 46 48 50 55 59 61 65 72 80 83 83 81
42 42 42 43 43 42 41 41 41 41 41 40 40 41 41 41 40 39 39 40 40 41 42 42 40 38 39 40 41 42 42 42 41 43 48 50 52 55 61 69 76 79 77
40 42 43 41 39 37 36 37 38 36 36 38 38 38 38 38 37 37 36 37 38 39 41 42 40 38 38 39 40 40 41 39 37 37 39 43 48 51 54 60 66 74 76
40 42 42 38 35 34 34 35 36 36 36 36 37 37 37 37 36 36 36 36 37 39 41 41 41 39 39 40 40 40 40 39 37 35 35 37 44 49 53 56 59 65 71
39 37 39 38 36 34 35 35 35 35 35 35 36 38 38 38 37 37 38 37 38 40 41 41 41 41 41 41 41 41 40 38 37 35 35 36 39 46 53 57 59 61 65
37 37 38 38 35 34 34 35 34 33 33 34 36 37 39 39 39 39 39 39 40 41 43 43 43 44 43 42 42 42 40 37 36 36 36 36 38 42 47 55 60 62 63
34 35 35 34 33 33 32 31 31 31 32 34 35 37 39 41 42 42 42 42 42 43 45 46 46 46 45 44 44 43 41 37 35 36 37 35 38 40 42 48 56 61 61
31 32 32 32 32 31 30 29 30 31 32 33 35 37 40 42 43 43 43 44 45 46 47 48 47 47 47 46 45 44 42 38 35 35 36 34 35 37 38 43 49 56 59
31 32 31 30 30 30 31 32 34 35 36 36 37 38 40 41 42 44 45 46 46 47 48 49 48 48 49 49 47 45 43 39 35 34 35 34 32 32 33 38 44 51 55
31 32 31 30 30 30 32 34 36 38 39 41 42 42 43 43 44 45 47 47 47 48 49 50 50 49 50 50 49 47 45 42 37 34 34 34 31 29 28 32 40 49 53

GEFSMA_500_meanwind_012.txt.gz
Wind_Speed
34 34 35 35 35 36 36 37 38 39 41 42 43 44 43 42 42 43 43 41 41 40 40 40 39 38 38 38 37 36 35 34 34 33 33 32 32 31 31 30 29 28 28
40 40 40 40 39 39 40 40 40 40 41 42 43 43 43 43 44 45 45 44 42 42 43 44 44 44 43 42 42 42 41 40 38 37 37 36 36 35 34 33 32 30 29
46 46 46 46 45 44 44 44 44 44 44 44 45 46 46 45 45 46 46 45 44 44 44 44 45 46 45 45 46 46 45 44 43 42 41 41 40 39 38 37 35 34 32
52 52 52 52 52 51 50 49 50 50 50 49 49 49 50 49 48 48 49 48 47 46 46 46 46 46 47 47 48 49 50 49 48 47 45 45 44 43 42 40 39 37 36
56 56 56 57 57 57 56 55 54 54 54 54 53 53 53 52 51 51 51 51 49 48 48 48 48 48 48 48 50 51 52 52 51 51 50 48 47 46 45 43 42 41 39
59 60 60 60 61 61 61 60 59 58 57 57 57 56 55 54 54 53 52 51 51 50 49 50 50 50 49 50 51 52 54 54 54 54 53 52 51 50 48 47 45 44 42
59 60 61 62 62 63 63 63 62 61 59 58 58 58 57 56 55 54 53 52 52 52 51 51 51 51 51 51 51 52 54 55 56 56 56 55 54 53 52 50 48 46 45
59 59 60 61 62 63 63 63 62 61 61 59 58 58 57 57 56 55 53 52 51 52 51 52 52 51 51 52 53 53 54 55 57 57 57 56 56 55 54 52 51 49 47
63 62 61 61 62 62 62 63 62 62 61 60 59 59 59 59 58 56 55 51 49 49 49 50 52 52 52 52 53 53 54 55 57 58 58 57 56 54 54 53 53 52 50
67 66 65 64 63 63 63 63 63 63 62 60 60 61 61 61 60 59 59 58 55 53 52 52 53 55 55 55 55 55 55 56 57 57 57 57 56 55 54 53 53 52 52
69 68 67 66 65 64 64 63 63 62 62 62 61 61 62 62 62 62 61 61 61 60 58 57 58 58 57 56 56 56 56 56 56 57 57 57 56 55 54 53 52 51 51
69 68 67 66 66 65 63 63 62 62 62 62 62 62 61 61 60 61 62 62 62 62 61 60 59 58 57 55 55 54 54 54 55 55 56 56 55 54 53 53 53 52 52
67 66 65 65 64 63 62 61 61 61 61 61 61 60 59 58 58 59 61 63 64 62 61 60 60 58 56 55 54 54 54 54 55 56 56 56 57 56 56 55 54 54 53
60 60 60 60 60 59 58 58 59 59 59 59 58 57 57 57 58 58 59 60 61 62 61 60 59 58 56 55 55 55 55 55 55 56 56 56 56 56 55 55 55 55 56
56 55 55 56 57 56 55 55 54 56 57 56 55 55 56 56 57 57 58 59 59 60 59 58 58 58 57 56 55 56 56 55 55 54 54 54 54 54 54 54 55 56 57
53 52 54 56 56 55 53 50 49 51 51 51 50 50 52 54 55 57 57 57 58 58 58 58 57 57 57 56 54 53 53 52 52 51 50 50 50 50 51 52 53 55 56
53 52 49 51 52 52 49 45 42 42 43 44 46 48 50 51 53 54 55 56 57 57 57 56 57 56 56 54 52 51 50 49 47 46 46 45 46 46 47 48 49 51 53
48 51 49 47 47 48 45 40 38 39 42 44 46 48 50 51 52 52 53 54 55 56 56 55 55 55 54 51 49 48 48 47 46 44 43 44 44 44 45 46 47 48 50
42 45 47 44 45 44 41 37 38 39 41 43 45 47 49 50 51 51 51 53 54 55 55 54 52 51 50 48 46 46 46 46 46 45 43 43 44 44 44 45 46 48 50
37 39 40 41 42 42 39 38 38 39 40 41 42 44 45 45 46 47 48 49 51 53 53 51 48 47 47 45 45 45 45 45 45 45 44 43 43 44 44 45 47 48 49
29 32 35 36 38 39 38 38 38 39 39 40 41 41 40 40 41 43 44 45 46 48 49 48 46 45 45 43 43 43 44 43 44 43 43 43 44 45 45 46 46 47 47
22 26 29 32 33 35 36 37 38 39 39 39 39 38 38 37 37 38 39 40 42 43 45 45 45 44 42 41 40 41 41 41 41 42 42 43 44 45 47 47 47 46 46
17 20 23 26 28 31 33 35 37 39 39 38 37 36 35 34 33 34 35 37 39 41 42 43 42 41 40 40 40 40 41 41 41 43 43 44 46 47 48 48 48 46 45
18 19 21 23 25 27 30 32 35 37 37 36 34 33 32 31 31 33 34 36 37 39 41 41 41 41 41 41 41 41 41 41 42 44 45 45 47 47 48 49 48 47 45
19 20 21 23 25 27 29 31 33 33 34 33 32 31 31 30 31 32 32 33 36 39 40 41 41 42 42 43 43 43 43 43 43 45 46 46 47 48 48 49 49 48 46
19 21 22 23 25 27 29 30 32 33 33 32 31 31 32 32 31 31 32 33 35 37 39 41 42 44 44 44 45 45 45 45 45 46 47 47 48 48 48 49 50 49 48

GEFSMA_500_meanwind_018.txt.gz
Wind_Speed
40 40 39 38 38 37 37 37 37 37 37 37 36 36 35 36 36 36 36 37 37 37 37 36 36 35 34 34 34 33 32 31 30 29 28 28 27 26 26 25 25 26 25
42 42 42 42 42 41 41 40 40 40 40 40 39 39 38 38 38 39 40 41 41 41 42 42 41 41 40 40 40 39 39 37 36 35 34 33 32 31 30 29 28 28 28
45 46 46 46 46 46 45 45 45 45 44 44 44 43 43 42 42 41 42 42 42 42 42 43 43 43 44 44 44 45 45 44 43 41 40 38 37 36 34 33 32 31 31
51 51 51 51 52 52 51 51 50 50 49 49 49 49 48 48 47 46 45 45 44 43 42 43 44 43 43 44 45 46 47 48 48 47 46 44 42 41 39 38 36 35 34
57 57 57 57 57 57 57 57 56 56 55 55 54 54 54 53 52 51 51 50 49 48 47 46 46 46 45 44 44 45 46 48 49 49 49 47 47 45 44 43 41 39 37
62 62 62 62 62 61 61 61 62 61 61 60 60 59 59 59 58 57 56 56 55 53 52 51 50 49 49 48 48 48 48 48 48 49 49 48 48 48 47 46 45 43 42
65 65 65 65 65 65 65 65 65 65 65 65 65 64 64 64 63 62 61 60 59 58 57 56 54 53 52 51 51 50 50 50 50 50 50 50 49 49 48 48 47 46 45
70 70 69 69 69 69 68 68 67 66 67 67 67 68 68 68 67 66 65 64 64 63 61 60 58 56 54 53 53 52 52 52 52 52 52 52 51 50 50 49 48 48 47
76 76 75 75 74 74 73 73 72 70 69 68 68 68 69 69 69 68 68 67 66 65 64 62 60 58 55 53 53 53 53 53 53 53 52 52 52 51 51 50 50 50 49
79 79 80 80 80 79 79 79 78 76 74 72 71 70 70 70 69 68 68 67 67 66 65 63 61 59 57 54 53 52 53 53 53 53 52 52 52 52 52 51 51 51 51
78 79 80 81 82 82 82 82 82 81 79 77 75 74 72 71 71 69 67 66 66 65 64 63 61 58 57 56 55 53 52 53 53 53 53 52 52 53 53 52 53 53 54
74 75 78 80 81 82 83 83 83 83 82 80 79 77 76 75 73 71 69 67 66 66 65 64 63 61 59 58 58 57 56 54 55 55 54 53 53 54 54 54 54 55 56
68 69 71 73 74 75 75 77 79 79 79 79 79 78 77 76 75 73 70 69 68 67 67 66 65 64 63 63 62 61 61 60 60 59 58 58 57 57 56 56 57 57 58
63 65 66 66 65 64 63 64 67 69 70 72 72 72 74 74 73 72 70 69 68 68 67 67 66 66 66 66 66 66 66 66 65 65 64 63 61 60 59 59 59 59 59
51 55 59 62 60 58 56 56 58 60 62 63 63 63 65 67 68 69 69 69 68 67 67 66 66 66 65 65 66 67 67 68 67 66 65 64 63 61 60 59 59 59 60
41 42 47 53 55 54 53 52 51 51 53 53 54 55 59 61 62 64 65 66 66 66 65 65 65 64 64 65 65 66 66 66 66 65 65 64 62 60 59 59 59 59 60
35 34 36 42 47 49 50 51 51 48 48 49 50 51 53 55 57 59 60 62 63 64 63 64 64 63 63 63 63 63 64 64 63 63 62 62 60 59 58 58 58 58 59
31 29 28 32 39 45 47 50 49 48 48 48 48 49 51 52 55 58 59 60 61 62 62 63 63 62 62 62 62 62 63 62 62 61 60 60 59 58 57 57 57 58 58
27 25 25 27 32 39 43 47 50 48 47 47 47 47 49 52 54 57 58 59 59 59 59 59 60 61 61 60 60 61 61 61 61 60 60 59 59 59 58 58 57 58 58
23 22 22 25 29 33 38 41 46 46 45 45 45 45 48 51 53 56 57 57 56 55 56 56 56 57 57 58 58 58 59 60 60 60 60 60 60 59 59 58 58 58 58
22 20 20 22 26 29 33 36 39 42 42 42 42 42 43 46 48 50 51 51 51 51 52 53 54 55 56 57 58 58 58 59 59 60 60 60 60 59 59 59 59 58 56
22 20 19 21 24 28 30 32 34 37 38 40 40 41 42 43 45 46 46 47 48 48 49 51 53 55 56 57 58 58 59 59 60 59 60 60 59 58 58 57 57 55 54
22 20 20 21 23 26 29 31 32 34 35 38 39 41 42 42 43 44 45 45 45 46 48 50 51 52 54 55 56 57 58 58 58 57 57 57 56 56 56 55 54 53 53
24 22 22 22 23 25 27 30 32 33 34 36 38 40 41 42 43 44 44 44 45 47 48 49 50 50 51 52 53 55 57 57 56 55 54 52 51 51 51 51 50 50 50
27 26 25 24 25 26 28 30 32 33 35 36 38 40 42 43 44 44 44 44 45 46 47 48 49 50 51 51 51 52 53 54 54 53 52 50 49 49 49 48 48 48 48
30 29 28 28 28 28 29 31 33 34 36 38 39 40 42 43 44 44 43 44 44 45 45 46 46 47 48 48 48 49 49 50 50 50 49 48 47 47 46 46 46 46 47

GEFSMA_500_meanwind_024.txt.gz
Wind_Speed
49 49 48 47 46 46 45 45 45 45 45 44 44 44 43 42 41 39 37 36 35 35 35 34 32 31 30 30 29 28 27 26 25 24 22 21 21 20 20 19 19 19 18
51 51 51 51 50 50 48 48 47 48 48 47 47 46 46 45 44 42 41 39 38 38 37 37 35 34 33 32 31 31 30 30 29 28 27 26 25 24 23 22 21 21 20
54 54 53 53 53 52 52 51 50 50 50 50 50 50 49 49 48 46 45 44 42 42 41 41 40 38 37 36 35 34 33 33 33 32 32 31 30 29 28 27 26 24 24
59 59 58 57 56 55 55 54 53 53 52 52 52 52 52 51 51 50 49 48 47 45 45 44 43 42 40 39 38 38 37 37 37 37 37 36 36 35 34 33 31 30 29
63 63 63 63 61 60 59 58 57 57 56 56 55 55 55 54 53 52 51 51 50 49 48 47 46 45 43 41 40 39 39 40 40 41 41 41 40 40 39 38 37 35 34
65 66 66 67 67 66 65 63 62 61 60 59 60 59 59 58 57 55 54 53 53 52 51 50 49 48 46 44 42 41 40 40 41 41 42 42 43 42 42 41 40 39 38
70 70 70 70 71 71 70 69 68 67 66 65 64 63 63 62 61 60 59 57 56 56 55 54 53 51 50 48 46 45 43 42 42 42 43 44 44 43 43 43 42 41 41
76 76 77 77 76 76 75 74 73 72 71 70 69 68 67 66 65 64 63 62 61 60 59 58 57 56 54 53 52 50 48 47 46 45 45 45 45 45 45 44 44 43 42
82 83 84 84 84 83 81 80 79 77 76 74 73 72 72 70 68 68 67 66 66 65 64 63 62 60 59 57 56 55 53 52 51 49 49 48 48 48 47 47 46 46 45
86 87 88 88 88 87 86 85 84 83 82 80 78 76 75 74 72 70 69 69 69 68 68 67 66 65 63 62 60 59 58 56 55 54 53 52 51 50 49 49 48 48 47
78 81 84 87 88 89 89 89 88 87 86 85 83 81 79 78 76 74 72 71 70 70 69 69 69 68 67 66 64 63 61 60 58 57 57 55 54 52 51 51 50 50 50
58 62 67 72 76 80 83 85 87 88 88 88 87 86 84 82 80 79 77 74 73 72 71 70 70 70 69 68 67 65 63 62 60 59 58 57 55 54 52 52 52 52 51
39 43 47 51 56 61 66 71 76 81 84 86 87 87 87 86 85 83 82 80 78 75 74 72 71 70 69 68 67 66 65 63 60 59 57 56 56 55 54 53 52 52 52
30 32 36 39 42 46 51 56 63 70 76 80 83 85 85 86 86 86 86 85 83 81 78 76 73 72 70 69 68 66 64 63 61 61 59 59 59 58 57 56 54 53 53
29 31 33 35 37 40 42 46 50 57 64 70 75 78 79 80 81 82 84 85 86 84 82 79 77 75 73 71 68 65 63 61 61 60 60 61 60 60 59 57 57 56 56
32 33 35 36 37 38 39 41 43 46 51 57 62 64 66 66 68 71 74 77 81 83 83 80 78 76 75 72 70 67 66 64 64 64 63 63 62 62 61 60 59 59 59
35 36 37 38 38 38 38 38 38 39 41 44 49 53 55 55 56 58 61 64 69 74 78 78 77 76 76 75 74 72 71 69 69 68 67 67 67 67 66 65 63 62 61
38 38 38 38 38 37 36 33 32 33 34 37 41 46 49 50 52 54 56 58 59 63 67 70 72 73 73 74 74 74 73 73 73 72 72 72 71 71 71 70 69 67 66
40 39 39 38 37 35 32 30 29 29 32 36 38 42 47 48 49 50 53 55 55 55 58 61 64 67 69 71 72 73 73 73 74 74 74 74 74 73 73 73 72 71 71
41 40 39 38 36 34 31 29 28 27 30 35 39 43 45 47 47 47 49 50 51 52 52 54 57 60 62 64 66 68 69 70 71 72 72 72 72 72 71 71 71 72 71
43 41 39 37 35 33 31 29 28 29 31 34 37 41 44 46 46 47 47 47 49 50 51 51 53 55 57 59 61 62 64 65 66 67 68 68 68 69 69 68 67 67 67
44 42 40 37 35 33 32 30 29 31 33 35 36 38 42 45 45 46 46 47 48 49 50 51 52 53 53 54 56 58 59 61 62 62 64 65 65 65 64 64 64 64 64
43 42 40 38 36 35 34 32 31 32 34 37 38 38 39 42 44 45 45 46 47 48 49 51 52 52 52 52 53 54 55 58 59 60 62 62 63 63 63 62 62 62 62
40 40 40 39 38 36 36 35 33 34 35 36 38 39 39 40 42 44 45 46 46 47 48 50 51 52 53 52 52 52 53 54 55 56 57 57 57 58 58 59 59 59 60
36 37 38 39 39 39 38 38 36 35 36 38 39 39 39 39 41 43 45 46 47 47 48 49 49 51 51 52 52 52 53 53 53 53 53 53 53 53 54 55 56 57 57
34 33 34 37 39 40 41 40 39 38 37 38 39 40 40 40 41 43 46 47 48 48 48 49 49 49 50 50 50 51 51 51 51 51 51 51 51 51 52 52 53 54 56

GEFSMA_500_meanwind_030.txt.gz
Wind_Speed
59 58 57 57 56 55 55 54 54 53 52 52 52 52 52 52 52 52 51 50 50 48 47 46 44 41 39 40 39 38 36 35 33 31 30 29 28 27 26 25 24 25 26
64 63 63 62 60 59 59 58 58 57 56 54 54 54 53 53 53 53 53 53 52 51 50 49 47 44 42 41 41 39 38 37 35 33 31 30 28 28 27 26 25 24 24
70 68 67 66 65 64 63 62 61 60 59 58 57 56 55 55 55 54 54 54 54 53 52 51 50 48 45 43 43 42 40 39 38 36 34 32 30 28 27 26 25 24 23
77 74 72 70 69 68 67 66 65 64 63 62 61 59 58 57 57 56 55 54 54 54 54 53 52 51 49 47 45 44 42 40 40 39 37 35 33 31 29 28 27 26 25
81 79 77 75 73 71 70 70 69 68 66 66 64 63 62 61 59 59 58 57 56 55 55 55 55 54 52 50 48 47 45 43 41 40 39 38 36 34 33 31 30 29 27
83 83 81 79 78 76 74 73 72 71 70 68 68 67 65 64 63 62 61 60 59 58 57 56 56 56 55 53 51 50 48 46 43 42 41 40 39 38 37 35 34 33 32
79 84 85 83 82 80 78 77 75 74 73 72 70 69 68 67 66 64 64 63 62 61 60 59 58 58 57 56 55 53 51 49 47 44 43 41 41 41 40 39 38 37 36
64 74 82 86 86 84 82 81 79 78 76 75 74 73 71 70 68 67 66 65 64 64 63 62 61 61 60 59 58 56 55 53 50 48 46 45 44 44 43 42 41 40 39
47 56 67 77 84 87 86 85 84 82 80 78 77 76 75 73 72 71 69 68 67 66 66 65 64 64 63 62 61 60 59 57 55 52 50 49 47 46 45 44 43 42 41
39 42 49 60 70 79 85 87 87 86 85 82 81 80 79 78 77 75 73 71 70 69 68 68 67 67 66 65 64 62 61 60 58 56 54 52 50 48 46 45 44 43 42
35 36 38 43 53 63 72 81 86 88 88 87 85 84 83 82 80 80 78 76 74 73 71 70 69 69 68 67 66 64 63 61 60 59 57 55 53 51 49 47 46 44 43
34 34 33 34 39 46 55 65 73 81 86 88 88 87 87 86 84 84 82 80 79 77 75 74 72 71 71 70 68 67 65 64 63 61 59 57 56 54 53 51 50 48 46
34 33 33 33 34 36 41 49 57 65 73 81 86 88 89 89 89 88 87 85 83 81 80 78 76 75 73 72 71 70 68 67 65 64 62 60 58 57 56 55 54 52 50
36 34 33 33 33 34 35 39 44 50 58 66 74 81 85 88 90 91 91 90 89 86 84 81 79 78 77 76 74 73 72 70 69 67 65 64 62 60 59 58 56 55 53
41 38 35 34 34 34 34 35 38 42 46 52 58 66 73 80 85 89 91 92 92 91 89 85 83 80 79 78 77 76 75 73 71 70 69 67 65 64 63 62 60 58 56
44 42 40 37 36 35 35 36 37 38 40 43 47 52 58 65 72 80 86 90 93 93 92 90 87 84 82 81 80 78 77 76 74 73 71 70 68 67 66 65 63 61 59
43 44 43 42 40 39 38 37 38 38 39 41 42 45 48 52 58 65 72 80 87 91 93 92 92 89 86 84 82 80 79 77 76 75 73 71 70 68 67 65 63 62 61
41 42 43 43 43 43 41 40 40 40 40 41 42 43 45 48 51 55 60 66 73 80 86 88 91 91 89 87 85 83 81 79 78 76 74 73 71 70 69 67 66 65 63
40 40 41 42 44 45 45 43 42 41 41 41 41 42 43 44 47 50 53 57 61 66 71 77 82 85 87 87 86 85 84 83 81 78 76 74 73 72 71 70 69 68 66
39 38 38 39 41 44 45 46 44 43 42 41 41 41 41 41 42 44 47 50 53 57 60 64 69 73 77 79 81 82 84 84 83 82 79 77 76 74 73 72 71 71 70
38 37 36 36 38 40 44 46 46 44 43 42 41 41 40 39 39 40 42 44 46 50 53 54 56 60 64 67 70 73 76 78 79 79 78 78 77 75 75 74 73 72 72
38 36 34 33 34 37 40 44 46 44 44 43 42 41 40 39 38 40 41 42 43 46 48 50 52 53 55 59 61 64 67 69 73 76 76 76 76 77 76 75 75 74 73
39 37 34 32 32 33 36 40 44 44 44 44 43 43 42 40 39 40 40 42 43 45 47 48 51 52 54 56 58 59 61 65 68 72 74 75 77 77 77 78 78 78 77
43 40 36 32 31 31 33 36 39 41 43 44 44 44 44 43 41 40 41 42 43 45 47 48 50 53 55 57 58 59 60 60 61 66 72 75 78 79 81 81 81 81 81
48 44 39 33 30 30 31 33 36 38 41 44 45 45 46 45 44 43 42 43 44 46 48 50 51 51 52 54 55 58 60 60 60 61 65 69 73 76 78 79 80 81 81
52 47 40 33 28 28 29 31 33 35 39 43 45 46 47 47 46 46 45 44 45 46 47 48 50 51 51 52 54 57 58 58 57 58 60 60 63 67 69 72 73 74 75

GEFSMA_500_meanwind_036.txt.gz
Wind_Speed
79 78 78 77 77 75 73 71 69 68 66 65 63 62 62 62 62 62 60 59 58 57 55 53 51 50 48 45 43 42 41 39 37 36 36 37 37 36 36 36 36 35 34
80 80 79 78 79 78 77 76 74 72 70 69 67 65 64 64 63 63 62 61 61 60 59 56 54 53 51 49 46 44 43 42 40 38 37 39 39 38 38 37 37 37 37
73 74 74 74 76 77 79 79 78 77 75 73 72 70 68 66 65 64 63 63 62 61 61 59 57 56 54 52 50 47 46 44 42 41 39 40 40 40 39 38 37 37 37
62 62 63 65 68 72 75 78 80 79 79 78 76 74 72 70 68 66 64 64 62 61 62 62 60 58 57 55 53 51 48 46 45 44 41 41 42 41 41 39 38 37 36
53 53 53 54 57 62 68 74 78 80 81 81 80 78 76 74 72 70 67 66 65 62 61 62 62 61 60 58 56 54 51 49 47 45 44 41 42 43 43 41 40 38 37
50 49 48 48 49 53 59 67 74 79 82 84 84 82 80 78 76 73 71 68 66 65 62 61 63 63 62 61 59 57 54 52 49 47 46 44 42 44 45 44 41 40 38
51 50 48 47 47 47 50 57 66 74 80 84 86 86 83 81 79 77 74 72 69 68 66 63 62 64 64 63 62 59 57 54 52 50 48 46 44 45 47 47 44 42 40
53 52 50 49 47 46 46 48 54 64 74 81 86 88 86 85 84 81 78 75 73 71 69 66 64 64 65 64 63 62 59 57 54 53 50 49 47 46 46 49 47 44 42
53 53 52 50 49 47 45 45 47 52 61 72 82 88 89 88 86 84 83 80 77 75 73 70 68 66 66 66 65 64 62 60 57 55 53 51 49 47 46 50 49 47 45
49 50 50 51 50 49 48 46 45 47 51 59 71 83 89 90 89 87 86 84 82 78 76 74 71 69 68 67 67 66 64 62 60 58 56 54 51 48 47 48 51 50 48
43 44 46 48 49 50 49 47 45 44 46 51 59 71 83 89 90 90 87 86 85 82 78 75 74 72 70 69 68 67 66 64 62 60 59 56 54 51 48 47 48 52 51
40 40 41 43 45 47 48 48 46 44 44 45 51 61 73 84 89 91 90 87 87 85 83 79 76 74 72 71 70 69 68 66 65 63 61 59 56 54 51 48 46 49 51
40 38 38 39 41 44 46 47 46 45 44 43 45 51 62 74 84 89 90 89 88 87 85 82 79 76 74 73 72 71 70 69 67 66 64 61 59 56 53 50 48 48 49
40 39 38 37 37 39 42 45 46 46 44 43 43 45 52 63 75 83 89 90 89 88 87 84 82 80 77 75 74 73 72 70 69 68 67 64 61 59 56 53 51 49 49
39 38 37 36 36 36 38 41 44 46 45 44 43 43 45 52 63 74 83 88 90 89 88 86 84 82 80 77 75 75 73 72 71 70 69 67 64 61 59 56 54 52 50
39 37 36 35 35 35 36 38 41 44 45 45 43 42 42 46 53 63 74 82 87 90 89 87 86 84 83 80 77 76 75 74 73 72 71 69 66 64 61 59 57 55 53
40 38 37 35 34 34 34 35 38 41 44 45 45 43 42 43 46 53 63 72 80 86 89 88 87 86 85 83 80 77 76 75 74 73 71 70 69 66 64 62 60 58 56
42 41 39 37 35 33 33 34 35 38 41 44 45 45 43 43 44 47 54 62 70 79 85 87 86 86 86 85 83 81 78 76 75 74 72 71 69 67 66 64 62 61 59
46 45 43 40 37 35 33 33 34 36 39 42 44 45 45 44 43 45 48 54 61 69 77 83 84 85 86 86 85 84 82 80 77 76 74 72 70 68 66 65 64 63 61
51 49 47 44 41 37 35 33 33 34 36 39 43 45 46 45 44 44 45 48 53 58 66 74 78 81 83 84 86 85 84 83 81 79 77 74 72 69 67 66 65 64 63
56 55 53 49 45 41 37 34 32 33 34 36 40 44 46 46 45 44 44 45 47 50 56 62 68 73 78 81 84 84 83 83 83 82 80 78 74 72 70 68 66 65 64
60 59 54 48 44 40 38 35 33 32 32 34 38 42 45 46 45 44 43 43 44 46 49 53 58 63 69 75 79 80 81 83 83 83 81 79 77 75 72 70 68 67 66
63 56 47 39 33 33 34 34 34 32 30 32 35 40 44 45 45 44 43 43 42 43 44 47 51 55 59 65 71 75 78 79 80 80 81 80 79 76 74 72 70 69 68
61 50 39 29 21 20 25 29 31 30 29 30 33 37 42 44 44 44 43 42 41 41 41 42 44 47 51 55 60 64 68 72 74 76 78 77 78 77 76 73 72 70 69
58 46 35 23 13 9 14 20 25 27 26 27 30 34 39 43 44 44 43 42 40 40 39 39 40 42 45 48 52 55 59 62 65 69 72 72 73 73 74 74 73 72 71
57 45 34 22 10 3 8 13 18 21 23 25 27 32 37 41 44 44 43 42 41 39 38 38 38 39 41 44 47 50 52 55 58 61 63 65 67 69 71 72 70 69 69

GEFSMA_500_meanwind_042.txt.gz
Wind_Speed
93 92 92 91 91 90 89 88 86 84 82 80 79 78 77 75 73 72 70 69 68 66 64 63 63 62 61 58 56 54 52 50 47 44 42 40 39 38 38 37 37 36 35
86 85 83 82 82 82 83 84 85 84 84 83 82 82 81 79 77 75 73 72 71 70 67 66 65 64 63 61 59 56 55 53 50 47 45 43 41 40 39 39 38 38 37
75 74 72 71 71 71 73 75 77 79 81 83 84 85 84 83 80 78 76 75 74 73 71 70 69 67 65 64 62 60 57 56 53 50 48 45 43 42 40 40 40 39 38
65 64 64 63 63 63 64 66 69 72 75 79 82 85 86 86 84 82 80 78 76 75 74 73 72 71 69 67 65 63 60 58 55 53 51 48 46 44 42 41 40 41 40
60 59 59 59 59 59 60 62 63 66 69 73 78 82 85 87 87 86 84 81 79 78 76 75 75 74 72 70 68 66 63 60 58 55 53 51 49 46 44 42 41 41 42
57 56 55 55 56 57 59 60 61 62 64 67 72 77 82 86 88 89 88 86 83 81 79 78 77 76 75 73 71 69 68 64 60 58 55 52 50 49 46 44 43 42 43
54 53 52 51 52 54 56 59 60 61 62 63 66 71 76 83 88 89 90 89 87 84 82 80 79 77 75 74 73 72 71 69 65 60 57 54 52 50 48 46 45 43 43
52 50 49 47 47 49 51 54 58 60 61 62 63 65 69 76 84 88 91 92 91 88 86 83 81 79 77 74 73 74 74 73 70 65 59 55 53 50 49 48 46 43 43
48 46 45 44 44 44 46 49 53 58 60 61 62 62 64 69 77 84 90 92 93 92 89 86 84 81 78 76 73 73 74 75 73 69 65 59 56 53 50 49 48 45 43
45 43 42 41 41 41 42 44 47 52 57 59 62 63 63 64 69 77 86 91 94 94 92 90 88 86 80 77 73 71 71 75 76 73 69 64 60 56 53 50 49 47 45
42 41 39 38 37 37 38 40 43 47 52 56 60 62 63 63 64 69 77 88 93 95 95 93 91 89 86 82 75 71 70 72 76 75 72 68 64 60 57 52 50 48 47
41 40 38 37 37 36 36 36 38 42 47 52 57 61 62 62 63 64 68 78 89 94 96 96 94 92 90 87 81 74 70 70 74 75 73 71 67 63 60 56 53 49 47
40 40 40 39 38 37 37 36 36 38 42 47 52 57 62 63 63 63 63 69 81 91 96 97 97 95 93 90 87 81 73 70 71 74 74 72 70 66 63 59 56 52 50
44 44 44 43 42 40 39 37 37 37 38 42 47 53 58 62 63 62 62 64 72 84 93 97 98 98 95 92 88 85 80 74 71 72 73 73 71 68 65 62 58 56 53
49 49 49 48 46 45 42 40 38 37 37 39 43 48 54 59 62 62 61 61 65 75 87 95 97 98 97 94 90 87 83 78 74 73 72 73 72 69 67 64 61 58 56
53 53 52 52 50 48 46 43 41 38 37 37 40 44 49 55 60 61 61 60 61 67 78 89 94 95 97 95 91 88 85 81 77 75 74 73 72 70 68 66 63 61 58
58 58 56 54 52 50 48 46 43 40 38 37 38 41 45 51 56 60 60 59 59 61 70 81 89 93 93 93 91 89 86 83 80 76 74 74 73 71 69 67 65 63 60
61 61 57 53 48 45 44 44 44 42 38 37 37 39 42 46 52 56 58 58 57 57 62 73 84 90 90 90 90 89 87 85 82 80 76 74 73 71 70 68 67 64 62
64 60 54 46 39 35 35 37 40 41 39 37 36 37 39 43 48 52 55 56 55 55 56 64 77 86 88 87 88 88 88 87 85 81 79 76 74 72 71 69 68 66 63
64 57 48 38 30 24 22 26 32 36 38 37 35 35 36 39 44 48 52 53 53 52 52 56 68 81 87 87 86 87 88 88 86 84 81 79 76 74 72 70 68 66 65
63 54 42 32 24 17 12 13 21 28 32 34 33 33 34 36 41 45 48 50 50 50 49 51 58 72 85 89 87 85 86 87 87 86 83 81 78 75 73 71 69 67 66
62 50 39 29 20 16 11 7 10 18 25 28 30 31 32 34 37 41 45 47 48 47 47 47 50 61 76 88 90 87 85 86 86 85 84 82 80 77 74 72 70 68 66
61 50 39 27 19 16 13 8 4 9 17 22 25 27 29 31 34 38 42 44 45 45 45 44 45 52 66 81 88 87 86 86 86 85 85 84 82 79 76 73 71 69 67
62 53 41 30 21 17 16 11 4 3 11 17 22 24 26 29 31 35 39 42 43 43 42 42 42 45 55 69 81 87 87 86 85 85 84 84 83 80 77 75 72 70 68
64 58 47 36 27 21 18 13 7 5 9 14 18 21 23 26 29 33 37 39 40 40 40 39 39 41 46 56 70 79 85 86 85 84 84 82 82 81 78 76 74 71 69
65 61 53 42 32 25 20 15 9 6 7 10 14 17 20 23 27 31 35 37 38 39 38 37 37 39 41 48 58 69 77 83 84 83 82 81 80 81 79 77 74 72 69

GEFSMA_500_meanwind_048.txt.gz
Wind_Speed
91 90 88 87 86 85 86 87 88 91 94 96 96 95 92 89 87 85 83 81 79 77 75 73 72 71 70 69 66 63 60 58 56 53 50 48 46 44 43 41 40 39 38
85 82 79 78 76 76 76 77 78 80 83 87 91 94 95 93 92 90 88 86 84 82 79 77 75 73 72 71 69 67 63 61 59 57 54 52 49 47 45 44 42 41 40
78 76 74 72 70 69 69 70 70 72 74 77 81 85 90 91 92 93 92 91 88 86 84 81 78 76 75 74 72 70 67 64 62 59 58 56 53 50 48 46 45 43 42
74 72 70 68 66 65 64 64 64 66 68 70 73 76 81 85 89 91 93 94 93 91 88 86 83 80 77 76 75 73 70 67 65 62 60 59 57 54 52 50 47 45 44
70 67 65 62 60 58 58 58 58 59 61 64 67 70 74 78 84 88 92 95 96 95 92 90 87 84 81 79 78 75 72 70 67 65 63 60 60 58 55 53 50 48 46
65 61 58 55 53 52 51 50 51 53 55 58 61 64 68 72 78 84 89 95 98 98 96 94 91 88 85 82 80 78 75 72 70 67 66 63 61 59 58 56 54 51 48
61 58 54 51 49 47 46 46 45 46 49 52 55 58 62 67 73 78 86 93 97 99 99 98 95 92 89 85 83 81 79 75 72 70 67 65 64 61 58 59 57 53 51
59 55 52 49 47 45 44 43 43 42 43 46 49 53 57 62 68 74 81 88 94 99 101 100 99 96 92 89 86 84 81 79 75 72 70 67 63 62 60 59 58 57 54
57 55 53 50 48 46 44 43 42 41 40 42 44 47 52 57 62 69 75 81 88 95 100 102 101 99 96 93 90 87 85 82 79 75 72 69 66 62 60 59 58 58 57
58 56 54 53 51 49 48 47 45 43 41 40 41 43 47 52 58 64 70 76 82 88 96 101 102 102 99 96 93 90 88 85 82 79 76 72 69 66 61 60 59 59 59
58 57 56 55 54 53 53 52 50 48 45 42 40 42 43 47 53 59 65 71 76 81 89 96 101 102 101 98 96 93 90 87 84 82 79 75 70 67 65 62 61 59 60
58 58 58 57 57 57 56 54 52 50 48 45 42 41 42 44 49 54 60 67 72 76 81 89 97 100 101 100 97 94 92 90 86 83 81 80 75 70 66 63 62 60 60
60 60 60 60 59 58 56 55 54 52 50 48 45 43 41 42 45 51 56 62 68 72 76 82 90 97 101 102 99 96 94 91 89 85 82 81 79 76 70 66 62 61 60
64 64 63 61 58 55 53 51 51 51 50 49 47 44 42 41 42 47 53 59 65 70 73 76 83 91 98 100 100 98 96 93 90 87 84 82 81 78 74 69 64 59 60
67 66 64 60 55 50 45 42 42 44 45 46 46 45 43 41 41 43 49 55 62 66 70 72 77 85 92 97 100 99 97 94 91 88 85 82 81 79 77 73 70 63 58
68 66 63 58 51 45 40 34 31 32 36 40 42 43 42 41 40 41 45 52 58 64 67 70 73 79 87 94 99 99 96 95 92 89 86 84 81 78 78 76 73 67 64
69 66 62 55 48 41 37 31 23 20 25 32 36 39 40 39 39 40 42 48 55 61 64 67 70 74 82 90 96 99 98 95 92 90 88 85 82 80 78 76 74 70 66
68 66 61 53 46 41 37 31 22 14 14 22 29 34 36 37 37 38 39 44 51 57 62 64 67 70 76 85 92 96 97 94 93 91 88 85 82 79 78 77 74 72 70
68 65 60 51 45 40 36 32 24 13 6 13 21 27 31 33 33 35 37 41 47 54 59 62 65 67 71 78 85 91 96 95 94 91 88 85 82 78 76 76 74 72 71
68 65 60 51 44 39 35 31 24 14 4 7 15 20 25 29 30 32 34 38 43 50 56 60 62 65 67 72 79 86 92 94 93 92 88 85 82 79 76 75 73 73 72
69 66 60 53 44 38 33 29 23 14 6 4 11 15 20 24 27 29 31 34 39 46 52 57 60 62 64 66 73 81 87 91 92 92 89 86 82 78 75 73 73 72 72
68 66 62 55 46 39 31 27 22 15 7 4 8 12 16 20 24 26 28 31 36 42 48 54 58 60 61 63 67 74 82 87 90 91 88 85 83 81 77 74 73 71 69
67 66 64 58 50 41 33 27 22 17 10 3 5 9 13 17 20 23 25 28 33 38 45 51 55 58 60 60 61 67 75 81 87 89 88 84 82 81 78 76 73 71 69
66 65 64 61 54 46 38 30 23 18 12 6 2 6 10 13 17 20 22 25 30 35 41 46 51 54 57 58 57 62 68 73 80 85 87 84 82 80 78 78 75 71 69
64 64 64 62 57 50 43 36 27 20 14 9 3 2 7 11 14 18 20 23 28 32 37 43 47 50 53 55 56 57 62 68 74 81 83 83 81 80 78 77 76 73 70
63 64 63 62 60 54 47 40 32 24 17 11 6 1 4 8 12 16 18 21 26 30 35 40 44 47 49 52 53 54 57 64 69 75 80 81 80 79 78 78 76 75 73

GEFSMA_500_meanwind_054.txt.gz
Wind_Speed
94 94 91 89 87 85 84 83 83 83 84 86 89 92 95 97 98 98 96 95 93 91 90 88 86 83 80 78 76 74 72 69 65 62 59 56 54 51 50 48 46 45 44
90 87 83 81 78 77 76 76 76 76 77 78 80 84 88 92 96 99 100 99 98 97 95 93 91 88 85 82 79 78 76 73 70 66 63 60 58 55 52 50 48 47 45
82 79 76 74 73 71 71 70 69 69 70 71 72 75 80 84 89 94 98 100 101 101 100 98 96 93 90 87 84 81 79 77 74 70 67 64 61 59 56 53 51 49 47
75 73 72 70 69 68 66 65 64 64 64 64 65 67 71 76 82 87 93 97 101 103 104 103 101 98 95 92 88 85 82 80 77 75 71 67 64 62 59 57 54 52 50
71 70 69 68 67 65 64 63 62 61 60 60 60 60 63 67 73 80 86 92 98 102 105 106 105 103 100 97 93 90 86 83 81 78 75 71 67 65 62 60 57 55 53
69 68 67 66 66 64 63 62 61 60 59 58 57 56 57 60 65 72 79 87 93 99 104 107 108 107 105 102 98 94 90 87 84 81 79 75 71 68 65 63 61 58 56
68 67 66 66 65 64 63 62 61 60 59 58 56 55 54 56 60 65 71 80 88 95 102 107 110 111 109 106 103 99 95 91 88 85 82 79 75 71 68 65 63 61 58
67 66 66 65 64 64 64 64 63 61 59 59 58 55 53 53 57 59 64 72 81 89 96 104 110 112 113 110 107 104 99 95 91 88 85 82 78 75 71 68 66 63 61
66 66 66 65 66 66 65 63 61 59 57 57 58 56 54 53 53 55 60 65 73 82 90 99 107 112 115 114 111 108 104 100 95 92 89 85 82 78 74 71 68 65 63
66 66 66 66 67 67 65 62 59 55 52 51 53 55 55 54 52 52 56 60 65 74 83 92 101 110 115 116 115 112 109 104 99 95 92 88 85 81 78 74 71 67 65
65 66 66 67 68 67 63 58 54 50 47 45 46 50 53 54 53 52 52 56 60 66 76 85 94 103 112 117 117 116 112 108 103 99 95 91 88 84 81 77 73 70 66
65 65 66 67 68 65 59 54 50 45 41 39 39 43 49 52 53 52 50 52 55 60 68 77 86 96 106 114 117 117 115 111 107 103 98 94 91 87 83 79 75 72 68
65 65 66 67 66 62 56 51 46 41 35 31 31 35 42 48 51 51 50 49 51 55 62 70 80 88 98 108 115 117 116 114 110 106 101 97 93 90 86 81 77 75 70
64 65 66 67 65 60 54 48 43 38 32 26 22 25 33 41 47 49 49 48 48 51 56 64 73 81 90 100 109 115 116 115 112 108 104 100 96 92 89 84 79 76 73
64 65 66 66 64 58 52 46 41 36 29 22 15 16 24 33 40 45 46 46 46 48 52 58 67 75 83 92 102 110 114 115 113 110 107 103 99 95 91 87 83 78 73
64 65 65 65 63 56 50 45 39 34 27 19 12 10 17 25 33 39 43 44 44 45 48 54 61 69 76 84 93 103 110 113 113 111 109 105 101 97 94 90 87 82 76
64 64 65 65 62 56 49 44 38 32 26 18 10 5 10 18 26 33 38 40 42 42 44 50 56 63 69 77 86 95 103 109 111 111 110 107 103 100 96 93 89 84 80
63 63 64 64 62 57 50 43 37 31 24 17 9 3 6 13 19 26 32 36 38 40 41 46 52 58 64 71 78 87 96 103 108 110 110 108 105 101 98 95 92 87 82
62 62 63 63 61 57 51 44 37 31 24 16 9 2 4 9 15 22 27 31 34 37 39 42 48 53 59 65 72 80 88 97 103 107 109 108 106 102 100 96 93 91 86
61 61 62 62 61 58 51 45 38 31 24 17 10 4 3 8 13 18 23 27 31 33 36 40 44 50 55 61 66 73 81 91 97 103 106 107 106 103 100 97 93 91 89
60 60 60 60 60 58 53 46 39 32 24 17 11 5 2 6 11 15 20 24 27 30 33 37 42 46 52 57 62 68 76 84 92 98 103 105 104 102 99 96 94 91 89
58 59 59 59 59 57 53 47 41 33 26 19 12 7 3 5 9 13 17 21 24 27 30 35 39 44 49 54 58 64 71 80 87 94 99 102 102 100 98 94 93 91 89
57 57 57 58 58 57 54 49 43 37 29 21 14 8 4 4 7 11 15 19 21 24 27 32 37 41 46 52 55 60 66 74 82 89 94 98 100 99 97 93 91 89 88
56 55 56 56 56 56 54 51 45 40 33 25 17 10 6 3 6 9 13 17 20 22 26 30 35 39 44 49 53 57 62 68 77 84 90 93 96 94 93 90 88 86 84
55 54 54 55 55 55 54 52 47 42 37 29 21 14 8 4 4 7 11 15 17 21 24 29 33 38 42 47 51 54 58 64 72 78 84 89 91 91 88 87 86 83 80
54 54 53 53 53 53 53 51 49 44 39 33 25 18 11 6 3 5 9 13 15 19 23 27 32 36 41 45 49 52 55 60 67 74 79 85 87 87 84 82 81 81 79

GEFSMA_500_meanwind_060.txt.gz
Wind_Speed
88 93 97 99 98 94 89 84 80 76 74 73 73 75 76 79 83 88 94 98 100 101 100 98 96 94 92 90 86 82 79 75 73 71 68 65 62 59 56 53 51 50 49
91 95 96 94 89 83 78 73 69 67 67 67 67 68 70 72 74 78 84 90 96 100 102 102 102 100 97 95 92 88 84 80 77 75 72 69 66 63 60 56 54 52 50
92 95 92 87 80 75 71 68 67 67 67 66 67 67 68 69 71 74 78 83 89 95 101 104 105 105 103 100 97 94 90 86 82 79 76 74 70 67 64 60 57 54 53
93 91 85 79 73 70 69 68 68 67 67 68 68 68 68 68 69 71 74 78 84 90 96 102 106 107 107 105 102 99 95 91 87 83 80 77 75 71 67 64 61 57 55
90 85 79 73 70 69 69 68 68 68 69 69 69 69 69 68 68 70 73 76 80 85 92 99 105 108 110 109 107 104 100 96 92 88 84 81 79 75 72 68 65 61 57
86 80 74 70 69 68 68 68 68 69 70 71 70 69 67 65 66 67 70 74 78 82 88 96 102 107 111 112 112 109 105 101 97 93 89 85 82 79 76 72 68 65 61
82 76 71 69 68 67 67 67 68 69 69 69 68 65 61 60 61 63 66 69 74 80 85 92 99 105 110 113 114 113 110 106 102 98 94 90 86 83 80 76 72 68 65
78 72 69 68 67 67 67 67 68 69 67 65 64 61 56 51 54 58 62 65 71 77 82 87 94 102 109 114 116 116 114 111 106 102 98 94 90 87 83 80 76 72 69
75 70 68 67 67 66 67 67 69 68 65 60 57 55 52 46 44 49 56 62 67 72 77 82 88 96 105 112 116 118 117 115 111 107 102 98 94 90 87 84 80 76 72
72 69 68 67 66 66 66 67 68 66 62 57 52 48 45 41 36 37 47 56 62 67 72 76 82 89 98 107 114 118 119 118 115 111 106 102 98 94 90 87 84 80 75
70 68 67 67 66 65 66 67 66 63 58 54 50 45 39 35 31 29 36 48 56 62 67 71 75 81 90 101 110 116 120 120 118 115 111 106 102 98 94 91 87 83 79
69 67 66 66 66 65 66 66 65 60 55 50 46 42 37 32 26 23 27 38 49 56 62 65 69 74 82 92 103 112 119 121 121 118 114 109 105 101 97 93 90 86 82
67 66 66 66 65 64 65 65 63 58 52 48 43 39 34 29 23 18 19 28 40 50 56 60 64 68 75 84 94 105 114 120 121 120 117 113 108 104 100 96 92 89 85
67 66 65 65 64 64 64 64 61 56 51 46 41 36 31 26 20 14 13 21 32 43 50 55 59 62 67 75 84 95 106 115 120 121 119 116 111 108 103 99 95 91 87
67 65 65 64 64 63 62 63 60 55 50 44 39 34 29 24 18 12 10 15 25 35 44 50 54 56 60 66 75 85 96 107 116 120 121 118 114 111 107 102 98 94 90
66 65 64 64 63 62 61 61 58 54 49 43 38 32 27 22 16 10 8 12 20 29 37 45 48 51 54 58 66 75 85 98 109 117 120 120 117 113 109 105 101 97 93
66 64 64 63 63 61 60 59 57 53 48 43 37 32 25 20 14 9 7 9 16 24 32 39 43 45 48 52 58 66 76 87 100 110 118 119 118 115 112 108 104 100 95
65 64 63 63 62 61 59 58 56 52 48 43 38 32 25 18 13 10 7 8 13 20 27 33 37 40 43 46 52 58 67 78 90 102 112 117 118 116 114 110 106 102 98
64 63 63 62 61 60 58 57 55 52 48 43 38 32 26 19 13 9 7 8 11 17 23 28 32 36 38 41 45 52 60 70 82 93 104 113 117 117 115 112 109 105 101
64 63 62 61 61 59 57 56 54 52 49 44 40 33 27 20 14 10 8 8 11 15 20 25 29 32 34 37 40 46 54 63 74 85 96 107 114 116 115 113 110 107 103
63 62 61 61 60 58 57 55 53 52 49 46 41 35 28 22 16 11 9 9 11 15 19 22 26 29 31 33 36 41 49 57 67 78 89 100 109 113 114 114 112 109 105
62 61 61 60 59 58 56 54 53 52 49 46 42 36 29 23 18 13 10 10 11 14 18 21 23 26 28 30 32 37 44 52 61 72 82 92 103 109 112 113 112 109 106
62 60 60 59 58 57 55 53 52 51 49 46 42 38 31 24 19 14 11 10 10 13 16 19 22 24 26 28 30 34 41 48 56 65 75 84 96 103 108 111 111 110 107
61 59 59 58 57 56 54 52 51 50 48 46 43 39 33 25 20 15 11 8 9 11 14 17 20 22 24 26 28 32 37 44 51 59 69 77 89 97 103 107 109 109 108
61 59 58 57 55 54 54 52 50 49 48 46 43 40 34 27 20 15 11 8 7 9 12 15 18 20 22 24 27 30 35 42 49 56 64 72 81 90 98 102 105 107 107
61 58 57 57 55 54 53 52 50 48 47 46 43 41 36 30 23 16 12 8 6 7 10 13 16 18 20 23 26 29 33 40 46 52 59 67 74 84 91 97 100 103 104

GEFSMA_500_meanwind_066.txt.gz
Wind_Speed
60 63 67 70 74 79 83 88 91 94 93 89 85 80 77 74 73 72 72 73 76 81 87 95 104 110 111 109 106 102 99 94 90 87 83 81 78 75 71 67 63 61 59
61 64 67 71 76 80 85 88 91 90 86 81 77 74 72 71 71 71 71 72 73 76 80 86 93 102 109 112 111 109 105 101 97 92 89 85 83 80 76 72 68 64 61
62 65 69 73 77 82 85 88 87 84 80 76 73 72 71 70 70 71 72 72 74 76 79 82 87 94 102 109 112 113 111 107 103 98 94 91 87 85 81 77 73 68 64
62 66 70 74 79 83 85 86 83 79 76 73 71 70 69 70 71 72 74 75 76 77 79 82 86 90 96 103 110 113 115 113 109 104 100 96 92 89 86 82 78 73 68
63 67 71 76 80 83 84 83 80 76 73 71 70 68 68 69 70 72 72 73 74 76 78 82 85 89 93 99 107 112 116 117 114 110 105 101 97 94 91 87 83 78 72
65 69 73 77 81 82 82 80 76 73 72 71 69 67 67 67 68 67 66 66 67 70 74 79 83 88 93 97 104 111 116 118 118 114 110 106 102 98 95 91 87 83 77
67 70 74 78 81 81 80 77 74 71 70 70 68 68 65 63 62 60 60 60 61 64 68 74 81 86 92 97 102 109 115 118 119 118 114 110 106 102 99 96 92 87 82
68 72 75 79 80 80 78 75 73 71 69 69 70 70 65 58 53 52 53 53 52 54 59 67 75 83 90 96 100 106 113 118 120 120 118 114 110 106 103 99 96 92 86
70 73 76 79 79 78 76 73 71 70 68 66 68 69 67 62 54 47 46 45 44 43 47 57 68 78 86 93 99 103 110 117 120 121 120 117 114 110 107 103 100 96 91
71 74 76 78 78 76 74 72 70 70 68 66 65 64 63 61 59 52 42 39 37 35 36 45 57 69 80 89 96 102 107 114 119 122 122 120 117 114 110 107 103 99 95
72 74 76 77 76 74 72 70 69 68 67 66 65 62 58 56 54 53 46 36 32 30 30 35 46 59 72 82 91 99 105 111 117 122 123 122 120 117 114 110 107 103 98
73 75 76 76 75 73 71 69 68 67 65 65 64 62 58 54 51 49 45 38 31 26 25 28 37 50 63 75 85 94 102 108 115 120 123 124 122 120 117 113 110 106 102
73 75 75 75 73 71 69 68 66 65 64 63 62 60 56 53 50 47 43 37 30 24 21 23 31 42 54 66 77 87 97 105 112 118 122 124 124 122 119 116 112 108 104
74 75 74 73 72 70 68 66 65 64 63 62 60 58 55 51 48 44 41 36 29 21 18 20 26 35 46 57 69 80 89 99 107 114 119 122 123 123 120 117 114 111 107
74 74 74 72 71 68 67 65 64 63 62 60 59 57 53 50 46 41 38 34 28 21 17 18 22 28 38 48 60 72 81 90 99 108 114 120 122 123 122 119 116 113 109
74 74 73 71 69 67 65 64 62 62 60 59 57 55 52 49 45 40 36 31 27 22 17 16 19 23 31 41 51 63 72 81 91 100 108 115 120 122 122 121 118 115 111
74 73 72 70 68 66 64 63 61 60 59 58 56 54 51 48 44 38 34 30 25 21 17 14 16 20 26 34 44 54 64 72 81 91 101 109 116 121 122 121 119 116 113
73 73 72 70 68 65 63 62 60 59 58 57 55 53 49 47 43 37 33 29 24 20 17 14 14 18 22 29 37 46 55 64 73 83 93 103 111 118 122 122 120 118 115
72 72 71 69 67 64 62 61 59 58 57 56 54 52 49 46 42 37 32 28 23 19 16 14 14 16 20 26 32 40 48 55 64 74 85 95 105 114 120 122 121 119 116
72 71 70 69 66 63 61 60 58 56 56 55 53 51 49 46 42 37 32 27 23 18 16 13 13 16 19 24 29 35 42 49 57 66 76 87 98 108 116 120 120 119 117
72 70 69 68 66 63 61 59 56 55 54 53 52 51 49 46 42 37 32 27 22 18 15 13 13 15 18 22 27 32 37 43 50 59 68 80 91 102 111 117 120 120 118
71 70 68 67 65 62 60 58 56 54 54 53 51 50 48 46 42 36 31 26 22 17 15 13 12 14 17 21 25 30 35 39 45 53 61 72 84 94 105 114 119 119 118
69 68 67 66 64 61 59 57 55 54 53 52 50 49 47 46 41 36 31 25 21 17 14 12 12 14 17 20 24 28 32 36 41 47 55 63 76 87 99 109 116 119 118
68 67 66 64 62 60 58 55 53 53 52 51 49 48 46 45 41 36 31 25 20 16 13 11 11 13 16 19 23 27 31 34 38 42 49 56 69 80 92 103 112 117 118
67 66 65 63 61 59 57 55 52 52 51 50 49 47 46 44 41 35 30 26 21 17 13 11 11 13 15 18 22 25 29 32 35 39 45 52 62 72 85 96 107 114 116
65 65 64 62 60 58 56 54 52 51 49 49 47 47 45 44 41 35 30 25 21 16 13 11 10 12 14 17 21 24 27 30 33 37 42 48 57 67 77 90 101 110 115

GEFSMA_500_meanwind_072.txt.gz
Wind_Speed
41 42 43 45 47 49 51 53 55 57 60 63 66 69 73 76 79 82 85 88 91 91 90 88 87 86 87 89 92 97 103 108 110 110 108 103 100 95 90 86 82 78 74
42 43 45 47 49 50 52 54 57 59 61 64 68 71 74 77 81 84 87 90 91 90 88 86 83 82 82 84 86 90 96 103 109 113 114 111 107 102 97 92 88 84 80
44 45 47 49 51 52 54 56 58 60 63 66 69 72 76 79 82 85 88 90 89 87 85 83 81 80 81 82 85 87 91 97 106 112 116 116 113 109 104 98 94 90 85
45 47 49 51 52 54 56 58 60 62 65 67 70 74 77 80 83 86 87 88 87 85 83 81 79 78 79 80 83 87 90 93 101 109 115 118 118 115 110 105 99 95 91
47 48 50 52 54 56 58 60 62 64 66 69 72 75 78 81 83 85 86 85 84 83 81 78 76 74 73 74 78 83 89 93 97 105 112 118 120 119 116 111 105 100 96
49 50 52 54 56 58 60 62 64 67 69 71 73 76 79 81 83 83 83 83 82 80 77 75 72 68 67 68 71 77 84 91 96 101 109 115 120 122 120 116 111 105 101
51 52 54 56 58 60 62 64 66 68 71 74 75 77 78 80 80 80 80 79 78 76 74 72 68 64 61 61 64 70 77 86 93 98 105 112 119 122 123 120 115 110 105
53 54 56 57 59 62 64 66 68 70 73 76 78 79 79 78 78 76 76 76 74 72 71 69 64 60 57 55 57 62 70 79 89 96 102 108 116 121 124 123 119 114 109
55 56 58 60 61 63 66 68 70 72 75 78 80 81 82 81 80 74 72 71 70 69 68 65 60 56 53 50 50 54 63 73 83 92 99 105 112 119 124 124 122 118 113
56 58 60 61 63 65 68 70 72 74 76 78 80 81 82 83 83 79 71 67 66 66 65 62 57 52 48 44 42 44 53 65 78 87 96 103 108 116 122 124 124 121 117
58 60 61 63 65 67 69 72 74 76 77 78 79 80 80 80 80 80 75 68 63 62 61 58 54 49 44 39 35 36 43 55 70 83 93 101 106 113 120 123 125 123 120
60 61 63 64 66 68 70 73 74 76 78 78 79 79 78 78 77 77 75 70 64 59 56 54 51 47 42 35 32 32 37 47 61 76 88 98 105 111 118 122 124 125 123
62 63 64 66 67 69 71 73 75 76 78 78 78 77 76 76 75 75 74 71 65 59 54 51 49 45 39 34 30 29 33 43 56 71 84 94 102 108 115 121 124 125 125
63 64 65 67 69 70 72 74 75 76 77 76 76 75 74 74 73 72 72 70 65 58 52 48 46 43 39 33 29 27 30 39 52 66 79 89 99 106 112 118 123 126 126
65 65 67 68 70 71 73 74 75 75 75 75 74 73 72 71 70 69 69 68 66 61 52 47 44 41 38 33 28 26 27 36 48 61 74 85 95 103 110 116 122 125 126
66 67 68 69 71 72 73 74 74 75 74 73 73 71 70 69 67 67 67 65 63 61 53 46 42 39 37 33 29 26 26 33 45 58 70 82 91 99 106 113 120 124 125
67 68 69 70 71 72 73 74 74 73 72 71 71 70 68 67 65 64 64 63 61 58 53 45 41 38 35 31 28 26 25 29 40 54 66 78 87 95 102 110 117 122 125
68 69 70 71 71 71 72 73 73 72 71 70 69 68 66 65 63 63 62 61 59 55 51 45 39 36 33 30 26 24 23 26 35 48 61 73 83 91 98 106 114 120 124
69 70 70 71 70 70 71 72 71 70 69 68 68 66 64 63 61 61 60 59 57 53 49 44 38 35 32 29 25 22 21 22 29 41 55 67 78 86 93 101 110 117 122
69 69 70 69 69 69 70 70 70 69 67 67 66 65 63 61 60 59 58 57 55 51 46 42 37 34 31 27 24 20 18 19 24 34 47 61 72 81 89 97 106 114 120
69 69 69 67 67 67 68 68 68 67 66 65 64 63 61 60 58 58 57 56 54 49 44 40 37 33 30 26 22 19 17 17 21 29 41 54 66 76 85 93 101 110 118
67 66 65 64 64 65 65 66 66 65 64 63 62 60 59 58 57 55 54 54 52 49 43 39 35 32 28 25 21 18 16 16 19 25 35 46 59 69 79 88 96 105 114
63 62 63 62 61 62 63 64 64 63 63 62 61 59 58 56 55 54 52 51 49 46 42 38 34 31 28 24 20 18 16 15 18 22 30 40 52 62 73 83 91 100 109
60 59 59 59 59 60 61 62 62 61 61 60 59 58 56 55 54 53 50 49 48 45 40 36 33 30 27 23 19 17 15 15 16 20 27 36 46 55 66 77 85 94 104
57 56 56 56 57 58 59 59 60 59 59 58 57 56 55 53 52 51 50 48 46 43 39 35 32 29 26 22 19 16 15 15 17 19 24 32 40 49 59 70 80 89 98
54 54 54 55 55 56 57 57 58 57 57 56 55 54 53 52 50 50 48 47 45 41 38 34 31 28 25 21 18 16 14 15 16 19 23 30 36 45 53 64 75 84 93

GEFSMA_500_meanwind_078.txt.gz
Wind_Speed
32 33 35 36 38 39 40 41 42 44 45 46 47 48 49 50 51 52 54 55 56 57 59 60 62 64 66 68 70 72 74 76 78 80 81 83 85 87 90 90 91 91 90
33 35 36 38 40 41 42 43 44 45 46 48 49 50 52 53 54 55 57 58 59 61 62 64 65 67 69 71 73 75 77 79 80 82 84 85 87 89 93 96 96 97 97
35 37 39 40 42 43 44 45 46 47 48 50 51 52 54 55 57 58 60 61 62 63 65 67 68 70 72 74 76 78 79 81 83 85 86 87 89 92 96 100 102 102 103
37 39 41 43 44 46 47 48 49 50 51 52 53 54 56 57 59 61 62 63 64 66 67 69 70 72 74 76 78 80 82 84 86 87 89 91 93 95 98 102 105 107 108
40 42 44 45 47 48 50 51 51 52 53 54 55 56 57 59 60 62 64 65 66 68 69 71 72 74 76 78 79 82 84 86 88 89 91 93 95 97 99 103 107 110 113
43 45 47 49 50 51 52 53 54 54 55 56 56 57 58 60 61 63 65 66 68 69 71 73 74 75 77 79 80 83 85 87 88 90 91 93 94 96 99 103 108 112 116
46 48 50 51 53 54 55 55 56 56 57 57 58 59 59 61 62 64 66 68 69 71 73 74 76 77 78 79 81 83 85 86 87 88 88 89 90 92 96 100 105 111 117
49 51 53 54 55 56 56 57 57 58 59 59 60 60 61 62 63 64 66 68 71 72 74 76 77 78 80 80 82 83 84 84 84 83 82 82 83 86 90 95 100 107 114
53 54 55 57 57 58 58 59 59 60 60 60 60 62 63 64 65 65 67 69 72 73 75 77 78 79 81 81 82 81 81 81 79 77 74 73 73 76 80 86 93 101 110
56 57 58 59 59 59 60 61 61 61 61 62 62 62 64 65 66 66 67 70 72 73 75 77 78 79 81 81 81 79 79 77 73 70 66 64 63 64 69 77 85 94 104
58 59 60 61 61 61 62 63 62 62 63 63 63 64 65 66 68 68 68 69 71 73 75 76 78 79 80 80 79 77 75 72 68 63 59 55 53 55 60 68 76 86 96
59 60 62 62 63 63 64 64 64 64 64 64 65 65 66 67 69 69 69 69 69 71 73 75 77 78 78 78 76 74 71 67 63 57 51 47 46 48 54 61 70 80 90
60 62 63 64 64 65 66 66 66 65 65 66 66 66 67 68 69 70 70 69 69 70 71 73 76 76 77 76 74 71 67 63 58 51 46 42 42 43 49 56 65 74 84
62 63 65 66 66 66 67 67 67 67 67 67 67 67 68 68 69 70 70 69 69 68 68 70 73 74 75 74 72 68 64 59 54 47 42 39 39 39 46 54 62 71 80
63 65 66 67 67 67 68 68 67 67 68 68 66 66 67 68 68 69 69 69 70 69 66 67 70 71 72 71 68 66 61 56 51 44 39 37 36 37 44 53 59 68 78
66 66 67 67 67 68 67 67 66 67 68 66 65 65 66 67 67 67 67 68 69 69 67 66 67 68 68 67 65 63 58 53 48 42 37 35 34 36 44 53 60 66 74
66 67 68 68 67 66 66 66 66 66 65 64 63 64 65 65 65 66 66 67 67 67 67 65 65 65 65 63 61 59 55 50 45 40 36 33 33 35 42 53 60 66 72
67 68 67 66 65 65 65 65 65 64 63 62 62 62 63 64 64 65 65 65 65 66 66 65 63 62 61 60 58 55 51 48 44 39 35 32 32 35 41 52 60 67 74
65 65 65 64 64 63 63 63 62 62 61 60 60 61 61 62 63 63 64 64 64 64 64 64 61 60 59 58 55 51 48 45 42 38 35 32 31 35 41 50 60 68 74
64 64 63 62 61 61 60 60 60 59 58 58 59 59 60 61 61 62 62 62 62 62 62 62 60 59 57 55 53 49 45 43 40 37 34 31 30 33 40 48 58 67 74
61 61 60 59 58 58 58 58 57 57 56 56 57 58 59 60 60 60 60 60 60 60 60 60 59 57 56 54 50 47 43 40 38 36 33 30 28 30 37 48 56 66 74
58 58 57 56 56 56 57 56 55 55 55 55 55 56 57 58 58 59 58 58 58 58 58 58 57 56 54 51 48 44 41 39 35 34 32 28 27 27 33 44 55 64 74
55 55 55 55 55 55 56 55 54 53 53 53 54 55 55 56 56 57 56 56 55 56 56 56 55 53 51 48 46 42 40 38 35 32 30 26 25 25 30 41 52 61 71
55 55 55 55 55 55 55 53 52 52 52 53 53 54 54 54 55 55 54 53 53 53 53 53 53 51 48 45 43 40 38 36 33 30 28 25 23 23 26 36 50 59 69
55 55 55 54 54 53 53 52 52 51 51 51 52 53 53 53 53 53 53 52 51 51 50 50 50 48 46 43 41 39 36 34 30 28 26 23 21 20 24 32 45 57 67
54 54 54 54 53 53 52 51 51 50 50 51 51 51 52 52 51 52 51 51 50 49 49 48 46 45 43 41 39 37 34 31 28 25 23 22 20 18 20 29 41 54 65

GEFSMA_500_meanwind_084.txt.gz
Wind_Speed
26 27 28 29 30 31 32 33 34 35 36 37 39 40 41 42 43 44 45 45 46 47 48 49 50 50 51 52 52 53 54 55 56 57 59 60 62 63 64 65 67 68 69
30 30 31 33 34 35 36 37 38 39 40 42 43 44 44 45 46 46 47 48 48 49 49 50 51 52 53 53 54 55 56 57 58 59 60 62 63 65 67 68 69 70 72
34 34 36 37 38 39 40 42 43 44 45 46 47 48 48 49 49 49 50 50 50 51 51 52 53 54 54 55 56 57 58 59 60 61 62 63 65 67 69 70 72 73 74
37 38 39 41 42 43 44 46 47 48 49 50 50 51 51 52 52 52 53 53 53 54 54 55 55 56 56 57 57 59 60 61 62 63 64 65 67 68 70 72 74 76 77
41 42 43 44 45 46 48 49 51 52 53 53 54 54 54 55 54 55 56 56 57 57 57 57 57 58 58 58 59 60 61 62 64 65 66 67 68 70 72 73 75 77 79
45 46 46 48 49 50 51 53 54 55 56 57 57 57 57 57 57 57 58 58 59 59 59 59 60 60 60 60 61 62 63 64 65 66 67 69 70 71 73 74 76 78 80
48 49 50 51 53 54 55 56 58 59 59 60 60 59 59 59 59 59 59 59 60 61 61 61 61 62 62 62 63 64 65 65 66 67 68 70 71 72 74 75 76 78 80
51 53 54 55 56 57 58 60 61 62 62 62 62 62 61 60 61 61 61 61 61 61 61 62 62 63 64 64 64 65 66 66 67 68 69 71 72 73 74 75 76 78 79
55 56 57 59 60 61 62 63 64 64 64 64 63 64 64 63 63 62 61 61 61 60 61 62 63 64 65 65 65 65 66 67 68 69 70 71 72 73 75 76 77 78 79
58 60 61 62 63 64 65 65 66 66 66 65 65 65 65 65 65 64 62 61 60 60 62 63 63 65 65 65 65 65 66 67 68 69 70 71 73 74 75 77 78 79 81
61 62 63 64 65 66 67 67 68 67 67 66 66 66 66 66 66 65 64 62 61 61 62 63 64 65 65 65 65 66 66 66 67 69 70 72 73 74 76 77 79 80 82
62 63 64 65 66 67 68 69 69 68 67 67 67 68 67 67 66 66 65 62 62 62 63 64 64 65 65 65 65 65 66 67 68 70 71 72 73 74 76 78 79 81 82
64 65 66 67 67 68 68 69 69 68 68 68 68 68 68 67 66 66 65 63 63 63 63 64 65 65 65 65 65 65 66 68 69 70 71 72 73 74 76 78 79 80 80
66 67 68 68 68 68 68 68 68 68 68 68 67 67 67 66 66 66 65 65 64 63 63 64 65 65 64 64 65 66 66 68 69 70 71 72 73 74 76 77 77 77 78
67 68 69 69 68 68 68 68 68 68 68 67 66 66 66 66 67 66 65 65 65 65 64 63 64 64 64 64 65 66 66 67 69 69 71 72 73 74 75 75 75 75 74
67 68 69 69 69 68 68 68 67 67 67 66 67 67 67 67 67 66 65 65 65 65 63 61 62 63 64 65 65 66 66 67 68 69 70 71 72 73 73 72 72 71 70
66 67 67 67 67 67 67 66 65 66 67 67 66 66 66 66 66 65 65 65 64 64 62 60 61 62 63 64 65 65 65 66 67 68 69 70 70 70 70 69 67 66 63
64 64 64 63 64 64 65 65 65 66 66 65 65 65 65 65 65 64 64 64 63 63 62 60 60 61 62 63 64 64 64 65 66 67 68 68 67 67 66 64 62 60 57
61 61 61 62 63 64 64 64 65 64 63 63 63 63 63 64 64 63 62 62 61 61 61 60 59 60 60 62 62 62 63 64 64 65 65 64 64 63 61 59 58 55 51
60 61 62 62 63 63 64 63 62 62 62 62 62 62 62 62 62 61 61 60 61 60 59 59 58 59 59 60 61 61 61 62 62 62 62 61 60 58 56 55 54 51 47
60 61 62 62 63 63 63 62 62 62 61 62 61 61 61 61 60 60 60 60 59 59 58 58 58 58 58 59 60 61 61 60 60 60 60 58 57 55 53 52 51 47 44
59 59 60 60 61 61 62 62 62 61 61 61 60 60 60 60 60 59 59 58 58 58 58 58 58 57 57 58 59 60 60 60 58 57 58 55 54 52 50 49 47 44 41
58 58 59 60 60 60 61 61 61 61 60 60 60 60 60 59 59 58 58 58 57 57 57 57 56 56 56 57 58 58 58 57 56 54 55 52 50 49 47 46 44 41 38
59 59 60 60 60 60 60 60 60 61 60 60 60 60 59 58 57 57 57 56 56 55 55 55 55 55 55 56 56 56 55 54 52 51 53 51 47 46 44 43 42 38 36
59 59 60 60 59 59 59 59 60 61 60 59 58 58 57 56 56 56 56 55 54 53 53 53 53 53 54 53 54 54 53 52 50 48 50 49 46 44 41 39 39 36 34
58 58 58 58 58 58 59 59 60 60 59 58 57 56 56 55 55 55 54 52 51 51 51 50 51 51 51 51 51 51 51 50 49 46 46 46 43 42 37 35 36 34 32

GEFSMA_500_meanwind_090.txt.gz
Wind_Speed
28 28 29 29 30 31 31 32 33 34 35 35 36 37 38 38 39 40 41 42 43 43 44 44 44 45 45 46 46 47 49 50 51 52 53 53 54 54 54 55 55 55 55
31 32 32 33 34 34 35 36 37 37 38 39 40 41 41 42 43 43 45 45 46 47 47 47 48 48 48 48 49 49 50 51 52 53 54 55 56 56 57 57 58 58 58
35 35 36 37 38 38 39 40 41 41 42 43 44 45 45 46 46 47 48 49 50 51 51 51 51 51 51 51 51 52 52 53 54 55 56 56 57 58 58 59 60 61 61
38 39 39 40 42 42 42 43 45 45 46 47 48 49 49 50 50 51 51 52 53 54 54 54 54 54 54 54 54 54 55 55 55 56 57 58 59 59 60 61 62 63 63
42 42 43 44 45 46 47 48 48 50 50 51 52 53 53 53 54 54 55 56 56 56 57 57 57 57 57 57 57 57 57 57 57 57 58 58 59 60 61 61 62 63 64
45 46 47 48 49 50 50 52 52 53 54 56 57 56 56 56 56 57 58 58 58 58 59 59 60 59 59 59 60 59 59 58 59 59 59 59 59 60 61 62 62 63 64
48 50 50 51 52 53 54 56 57 58 58 60 61 60 59 59 59 60 61 61 60 60 61 61 61 61 61 61 61 61 60 60 60 60 60 60 60 61 61 62 63 64 65
51 52 53 54 56 57 58 59 61 61 62 63 64 64 63 62 61 62 62 62 62 62 62 62 62 62 62 62 62 62 61 61 61 61 61 61 61 61 62 63 64 64 65
52 54 56 57 59 60 61 62 64 64 65 66 67 68 68 66 65 63 62 62 62 62 62 63 64 64 64 63 63 62 62 62 62 62 62 62 62 62 62 63 63 64 65
54 56 58 60 61 63 64 65 66 67 68 68 69 69 69 69 68 66 63 62 62 63 64 65 65 64 64 62 62 62 62 62 63 63 63 63 63 63 63 63 63 64 65
56 58 59 61 63 64 65 67 68 69 69 69 69 69 69 69 68 68 66 65 64 64 65 65 64 64 63 62 61 61 62 63 63 63 63 63 63 62 63 63 63 64 65
56 58 60 62 63 65 66 67 68 69 69 69 69 69 69 68 68 69 68 66 65 64 64 64 63 63 62 62 61 61 62 63 63 62 62 62 62 62 63 63 64 64 65
55 57 60 61 63 64 65 66 67 68 68 69 69 69 69 69 69 69 68 66 65 63 62 61 61 61 62 62 62 62 63 62 62 61 62 62 62 63 63 63 64 65 65
56 58 60 61 63 64 65 66 67 68 69 69 69 69 69 68 68 68 67 66 64 62 61 60 60 62 63 63 63 64 63 62 62 62 62 62 63 63 63 64 64 65 66
56 58 60 61 62 64 65 66 67 68 69 69 69 69 68 67 67 67 66 66 65 63 61 60 61 62 63 64 64 63 62 62 62 63 63 63 63 63 64 64 65 66 66
58 60 61 62 63 64 65 66 67 67 68 67 67 67 67 66 67 66 66 65 65 65 62 60 61 61 63 63 63 63 63 63 63 64 64 63 63 63 63 64 65 66 67
61 62 63 63 64 65 66 66 66 66 66 66 66 66 65 66 66 66 65 65 65 65 63 61 62 63 63 63 63 64 63 64 64 64 64 63 63 63 63 64 65 66 67
62 63 63 64 64 65 65 65 65 65 65 64 64 64 64 64 64 64 64 63 64 64 63 62 61 62 62 63 64 64 64 64 63 63 63 63 63 63 63 64 65 66 67
64 64 64 64 64 64 64 63 63 63 63 63 63 63 63 63 63 63 64 64 64 64 63 62 61 62 62 63 63 63 63 63 63 63 63 63 63 64 64 65 66 66 67
66 65 65 65 64 63 62 62 62 62 62 62 62 62 62 62 63 64 64 64 64 64 64 63 62 62 62 63 63 62 63 63 62 62 62 63 64 64 65 66 67 67 68
67 66 65 64 64 63 63 62 62 61 61 60 60 60 61 62 63 63 63 63 63 63 64 63 62 62 61 62 62 62 62 61 61 61 62 63 63 64 65 66 66 67 67
66 66 65 64 63 62 62 61 60 59 59 59 59 59 60 61 61 61 61 62 62 63 62 62 61 60 60 60 61 61 61 61 60 60 62 61 62 62 63 63 64 65 65
65 65 64 63 62 61 60 60 59 59 58 58 59 59 59 59 59 59 60 60 60 60 60 60 59 59 59 59 60 60 59 60 59 59 61 59 60 60 60 61 62 63 64
63 62 61 60 59 58 58 58 58 58 57 57 56 57 57 57 58 59 59 59 59 59 59 59 58 57 58 58 59 59 59 58 57 58 59 58 57 58 58 58 59 61 61
60 59 57 57 56 56 56 56 56 55 55 55 55 56 57 57 57 58 58 58 57 57 57 57 57 56 56 56 56 56 56 56 55 54 56 57 56 57 56 55 56 58 59
57 56 55 55 55 54 54 53 54 54 54 54 55 56 56 56 56 57 57 56 55 54 55 55 54 54 54 54 54 54 54 54 53 52 53 55 55 56 54 51 52 55 56

GEFSMA_500_meanwind_096.txt.gz
Wind_Speed
32 32 32 33 33 34 34 35 35 35 36 36 37 38 38 38 39 39 39 40 40 41 41 42 42 43 43 44 44 44 44 44 44 45 45 46 46 47 48 48 49 50 50
35 35 36 36 37 38 38 38 39 39 40 41 41 42 42 42 43 43 44 44 44 45 45 46 46 47 47 48 48 48 48 48 48 48 48 48 48 49 49 50 51 51 52
38 38 39 40 41 41 42 42 43 43 44 45 45 46 46 46 47 47 48 48 48 49 49 50 50 50 51 51 51 52 52 51 51 51 51 51 51 51 51 52 52 53 54
40 41 41 42 44 45 45 45 46 47 48 49 49 50 50 50 50 51 51 52 52 53 53 53 54 54 54 54 55 55 55 55 54 54 54 54 54 54 54 54 54 55 55
41 42 43 44 46 47 48 48 49 50 51 52 53 54 54 54 54 55 55 55 56 56 57 57 57 57 57 58 58 58 58 58 57 57 57 57 56 56 56 56 57 57 57
42 43 44 45 47 49 50 51 52 53 54 55 57 57 57 57 58 58 58 58 59 59 60 60 60 61 61 61 62 62 61 61 60 60 59 59 58 58 58 58 58 58 59
43 45 45 47 48 50 51 53 54 55 56 58 59 59 59 60 60 60 60 61 61 62 63 63 64 64 64 64 64 63 63 62 61 61 60 60 60 60 60 60 60 60 60
44 45 47 48 50 51 52 54 56 57 58 59 61 62 62 61 61 62 63 64 64 65 65 66 66 66 65 65 65 64 64 63 62 61 61 61 61 61 61 61 61 61 61
45 46 48 49 51 52 53 55 57 58 60 61 63 64 65 63 63 64 65 65 66 66 67 67 67 67 67 66 66 65 64 64 63 63 62 62 62 62 62 62 62 62 61
45 46 48 50 51 53 55 56 58 60 62 63 64 66 67 67 68 66 64 65 66 67 68 68 68 69 69 68 68 67 66 66 65 65 64 63 63 63 63 62 63 63 62
46 48 50 51 53 55 56 58 60 62 63 65 66 67 68 70 70 70 67 66 67 68 68 69 70 70 70 69 69 68 68 67 67 66 65 64 64 63 63 63 63 63 63
48 50 52 54 56 57 59 61 62 64 65 67 68 69 70 71 71 73 72 69 69 68 69 70 70 70 70 70 69 69 68 68 68 66 65 64 63 62 62 62 62 62 62
51 53 56 57 59 61 63 64 66 67 68 69 70 71 72 72 73 74 74 73 72 71 70 70 70 70 70 70 70 70 69 69 68 66 65 64 63 63 62 62 62 62 62
55 57 60 61 63 65 67 68 70 70 71 72 73 73 74 74 75 76 76 76 75 73 72 70 70 71 71 71 70 70 69 69 67 66 65 65 64 63 63 63 63 63 63
61 63 64 66 68 70 71 73 74 74 74 75 75 76 76 76 76 77 77 77 77 75 72 71 72 71 72 72 72 71 70 69 67 66 65 64 64 64 64 64 64 64 64
66 68 70 72 74 75 76 77 77 76 77 77 77 77 77 76 77 77 76 76 77 76 73 70 70 70 71 72 72 71 70 69 68 67 66 66 65 66 66 65 65 65 64
72 74 75 77 78 79 79 79 79 78 78 77 77 77 76 76 76 75 75 74 74 73 71 67 68 69 70 70 70 69 68 67 66 66 65 65 65 66 67 67 66 66 65
77 78 80 80 80 80 80 79 79 78 78 77 77 77 75 75 74 74 73 72 72 71 71 67 66 67 68 68 67 66 66 66 65 65 66 67 66 66 66 65 65 65 66
80 81 82 82 81 81 80 79 78 78 77 76 75 75 73 72 71 70 70 70 69 68 68 66 64 65 65 66 66 66 66 66 66 67 67 67 67 66 65 64 65 65 65
82 82 82 82 81 80 79 78 77 76 75 74 72 71 69 69 68 67 67 66 66 65 65 64 62 63 63 64 65 65 66 67 66 66 66 65 65 65 64 65 65 65 65
82 82 81 80 79 78 76 75 73 72 70 68 67 65 65 65 64 64 64 64 64 64 63 62 61 62 62 63 63 64 65 65 65 65 64 64 64 63 64 64 64 64 65
80 80 79 77 75 73 71 70 68 66 64 62 61 61 60 59 59 60 60 60 60 60 60 61 60 60 61 62 63 63 63 63 62 62 63 63 63 63 62 63 63 63 63
78 77 75 73 70 68 67 64 62 61 58 57 56 55 55 55 56 56 56 56 57 57 58 59 58 58 59 60 61 61 61 61 60 61 61 60 60 60 61 61 62 62 62
74 72 70 67 65 62 61 58 57 55 53 51 51 51 51 51 52 53 53 54 54 55 56 57 56 56 57 58 59 59 60 60 59 59 59 58 59 59 59 60 60 61 61
70 67 64 62 59 57 55 53 51 50 48 47 47 47 48 48 49 50 50 50 51 52 53 54 55 55 56 57 58 59 59 59 58 57 58 57 57 58 58 58 59 60 61
65 62 59 57 55 52 51 49 48 47 45 44 44 44 46 47 47 48 49 49 49 50 51 52 53 54 55 56 56 56 57 57 56 55 55 55 55 56 55 55 56 58 59

GEFSMA_500_meanwind_102.txt.gz
Wind_Speed
33 34 34 35 35 36 36 36 37 37 37 37 38 38 39 39 39 39 39 39 39 40 40 40 41 41 42 42 42 43 43 43 43 44 44 44 44 44 44 44 45 45 46
34 35 36 36 37 38 38 38 39 40 40 41 42 42 42 43 43 43 43 43 43 44 44 44 44 45 45 45 46 46 46 46 47 47 47 47 47 47 47 47 47 47 48
34 35 36 37 38 39 39 40 41 41 42 43 44 45 45 46 46 46 46 47 47 47 47 48 48 48 49 49 49 49 49 49 50 50 50 50 50 50 50 50 50 50 50
35 35 36 37 38 39 40 41 42 43 44 45 46 47 48 48 48 49 49 49 50 50 51 51 52 52 52 52 52 52 52 52 53 53 53 53 53 53 53 53 53 53 53
34 35 36 37 38 39 40 41 42 44 44 46 47 48 49 50 50 51 51 52 52 53 54 54 55 55 55 55 55 56 56 56 56 56 56 55 55 55 55 55 55 55 55
34 35 36 37 39 39 40 42 43 44 45 46 48 48 49 50 51 52 53 54 54 55 56 57 58 58 58 58 59 59 59 59 59 58 58 58 57 57 57 57 57 57 57
36 37 37 38 40 40 41 43 44 45 46 48 49 50 50 51 51 52 54 55 56 57 58 59 60 61 61 61 62 62 62 61 61 61 60 60 59 59 59 59 59 58 58
38 39 40 40 41 42 43 45 46 47 48 50 51 52 52 52 52 53 55 56 58 59 60 61 62 63 64 64 64 64 64 64 64 63 63 62 62 62 61 61 61 60 60
39 40 41 42 43 44 45 47 48 49 50 52 53 55 56 56 56 56 57 58 60 62 63 64 65 66 66 67 67 67 67 67 67 66 66 65 65 64 63 63 63 62 62
41 42 43 44 45 46 47 49 51 52 54 55 58 59 61 63 64 62 61 62 63 65 66 67 68 69 70 70 70 70 70 70 70 69 69 68 67 66 66 65 65 64 63
42 43 45 46 47 49 51 53 55 57 59 61 63 64 66 68 69 71 70 69 69 69 70 71 72 73 74 74 74 73 73 73 73 72 72 71 70 69 69 68 67 66 65
44 46 47 49 51 53 55 57 60 62 64 66 68 70 72 73 74 77 77 76 77 76 76 76 76 76 77 77 77 77 77 76 76 75 74 74 73 72 71 70 69 68 67
47 49 51 53 56 58 61 63 65 68 70 72 74 75 77 79 80 81 83 83 83 82 82 81 80 80 80 80 80 80 80 79 79 78 77 76 75 74 73 72 70 69 68
51 53 56 58 61 64 66 69 71 73 75 77 78 80 82 83 84 85 87 88 88 87 86 85 85 84 83 83 82 82 82 81 81 80 79 78 77 76 75 73 72 71 70
55 58 61 63 66 69 71 73 75 77 79 81 82 83 85 86 87 87 88 89 90 89 87 85 86 86 85 84 84 83 82 81 80 80 78 77 76 75 75 75 74 73 72
60 62 65 68 70 73 75 77 79 81 82 83 85 85 85 85 86 87 87 88 88 89 87 82 83 84 83 81 81 80 79 78 77 77 76 75 75 75 75 74 73 72 72
64 67 69 72 74 77 79 81 82 83 84 84 84 84 83 83 83 83 84 84 84 83 83 77 78 78 78 77 76 75 75 74 73 73 72 72 72 73 72 73 72 71 71
68 71 73 76 78 80 81 82 83 83 83 82 81 80 79 79 78 77 76 75 75 75 75 72 71 73 73 73 72 72 72 71 71 70 69 69 69 69 69 69 69 70 70
72 74 77 79 80 81 82 82 81 80 79 78 77 75 73 72 70 69 68 68 67 68 68 67 64 66 67 67 68 68 68 68 68 68 67 67 67 67 67 66 67 67 67
75 77 79 80 81 81 80 78 77 76 75 73 71 69 67 65 64 63 62 62 62 62 62 61 58 58 59 60 61 61 62 64 65 66 65 64 64 64 65 65 65 65 65
78 79 80 80 79 78 76 75 74 72 70 67 64 62 61 59 58 58 57 57 56 56 55 54 53 52 52 54 55 56 58 59 60 61 62 62 62 62 63 63 64 64 65
79 79 79 78 76 74 73 71 69 67 64 61 58 56 55 54 53 53 52 52 52 51 50 49 48 48 47 49 50 52 53 54 55 55 57 58 59 59 60 61 62 63 64
78 77 76 75 72 70 69 67 64 62 58 56 54 53 52 51 50 49 47 47 46 46 45 45 45 44 44 45 47 48 49 51 51 53 54 54 56 57 58 59 59 60 61
77 75 73 71 69 66 65 62 60 57 55 52 51 50 49 48 47 46 45 43 42 42 43 43 43 42 43 44 45 46 47 47 48 49 51 52 54 55 56 57 58 59 60
74 72 70 68 65 63 60 58 56 54 51 49 49 48 47 46 44 43 43 42 41 40 41 41 42 41 42 42 43 44 45 45 46 47 48 50 51 54 55 55 56 57 58
72 69 66 64 62 59 57 55 54 51 49 47 46 45 44 43 41 41 41 40 39 39 39 39 40 40 40 41 42 43 44 45 46 46 47 48 50 52 52 53 54 55 56

GEFSMA_500_meanwind_108.txt.gz
Wind_Speed
30 30 31 31 32 33 33 34 35 36 36 37 38 38 39 40 40 40 41 41 42 42 42 43 43 43 43 44 44 44 44 44 44 44 44 44 43 43 43 43 43 43 43
30 31 31 32 33 33 34 34 35 36 37 38 39 40 41 41 42 43 43 44 45 45 46 46 47 47 47 47 47 47 47 47 47 47 47 47 47 47 46 46 46 46 46
30 30 31 32 33 33 34 35 36 37 37 38 39 40 41 42 43 44 44 45 45 46 48 49 49 50 51 51 51 51 51 51 51 51 51 50 50 50 50 49 49 49 49
30 31 31 32 33 34 34 35 36 37 38 39 40 40 41 42 43 44 44 45 46 47 48 50 51 52 52 53 54 54 54 54 54 54 54 53 53 53 52 52 52 51 51
31 32 32 33 34 35 35 36 37 38 39 40 41 41 42 42 43 44 45 46 47 48 49 50 51 53 54 55 55 56 56 56 56 56 56 56 56 56 55 55 55 54 54
32 32 33 34 35 35 36 37 38 39 39 40 41 41 42 43 44 45 46 47 47 48 50 50 52 53 54 56 57 57 58 59 59 59 59 59 59 59 59 58 58 58 57
33 34 34 35 36 37 37 38 40 40 41 42 43 43 43 44 45 45 46 47 48 49 51 52 53 54 56 57 58 59 60 61 62 62 62 62 62 62 62 62 61 61 60
34 35 36 37 38 38 39 40 42 42 43 44 46 46 45 45 46 47 48 49 51 52 54 55 57 58 59 60 62 63 64 65 66 66 66 66 66 66 66 65 65 65 64
37 37 38 38 39 41 41 43 44 45 46 47 49 51 51 51 50 50 52 54 55 57 58 59 61 63 64 65 66 68 69 70 71 71 72 72 71 71 71 70 70 69 68
38 39 40 41 42 43 44 45 47 48 50 50 52 54 56 57 58 57 56 58 61 63 64 65 66 68 69 71 72 73 74 75 76 77 77 77 77 76 76 75 75 74 73
41 42 43 44 45 46 47 48 50 51 53 54 56 57 59 61 64 66 65 64 65 67 69 71 73 74 74 75 76 78 79 80 81 82 82 82 82 81 81 80 79 78 77
43 44 45 46 47 49 50 52 53 55 56 58 60 62 64 66 68 70 72 72 73 73 75 76 78 80 81 82 82 82 83 85 86 87 87 87 87 86 85 85 84 83 82
45 46 47 49 50 51 53 55 56 58 60 62 64 66 68 71 73 75 78 78 79 79 80 81 82 83 85 87 87 87 87 88 89 90 90 91 91 90 90 89 88 86 85
48 49 50 51 53 54 56 58 60 62 64 66 68 70 72 75 77 79 81 83 84 83 82 82 83 85 86 88 89 89 90 89 89 89 90 90 90 90 90 90 89 88 87
50 51 52 54 56 57 59 61 63 65 67 69 72 74 76 78 79 81 82 84 85 86 83 81 81 81 83 84 84 85 86 85 84 84 84 85 86 86 87 87 87 87 87
52 54 55 57 58 60 62 64 66 68 70 73 75 77 78 79 80 80 81 81 82 83 81 76 75 75 76 76 76 76 76 75 74 74 75 77 78 79 80 81 82 83 83
54 56 58 59 61 63 65 67 69 71 73 75 76 77 78 78 78 78 78 77 77 77 77 72 71 70 70 69 67 67 66 66 66 67 68 70 72 73 74 75 76 77 78
57 59 60 62 64 66 68 70 72 74 75 76 76 77 76 76 75 74 74 73 72 72 72 68 64 63 62 62 61 61 61 62 61 61 62 63 64 65 66 67 68 70 71
59 61 63 65 67 69 71 73 74 75 76 76 76 75 74 73 72 71 70 68 67 66 65 63 59 56 56 57 57 57 57 56 56 56 56 56 57 58 59 60 61 62 65
62 64 65 67 70 71 73 74 75 76 76 74 73 72 71 70 68 67 65 63 62 61 60 58 55 53 52 53 53 53 52 52 52 52 51 51 51 52 54 55 55 56 58
64 66 68 70 72 73 74 75 75 75 74 72 70 69 67 66 64 63 61 59 58 57 55 54 52 51 50 50 49 49 48 48 47 47 47 47 48 48 50 51 52 52 53
66 68 70 72 72 73 74 75 75 74 72 69 67 66 64 62 60 59 57 56 55 54 52 52 51 49 47 47 46 46 45 44 43 43 44 43 44 43 45 46 48 50 51
68 70 71 72 73 74 75 74 73 72 69 67 65 63 60 58 57 56 54 53 52 51 51 50 49 47 46 45 45 43 42 41 39 39 40 39 40 40 41 42 44 45 47
70 71 73 73 74 74 74 73 71 69 67 65 63 60 58 56 54 53 52 50 49 48 48 47 46 45 44 43 43 41 40 39 38 37 38 37 37 38 39 40 41 42 43
71 73 73 74 74 73 72 71 69 67 64 61 59 57 55 53 51 51 50 48 46 45 44 44 43 42 41 40 40 39 38 38 37 35 36 36 36 36 37 37 38 39 40
73 73 74 74 73 72 70 68 67 65 61 59 56 54 52 50 49 48 47 46 43 42 41 41 40 39 38 38 38 38 37 37 35 33 33 34 34 35 35 35 37 38 39

GEFSMA_500_meanwind_114.txt.gz
Wind_Speed
28 29 29 30 31 32 32 32 33 34 34 35 36 37 38 38 39 40 41 42 43 44 44 45 46 47 47 48 48 48 48 48 48 48 48 47 47 46 46 45 45 44 44
29 29 30 31 32 32 33 34 34 35 36 36 37 37 38 39 40 40 41 43 44 45 46 47 48 48 49 50 50 51 51 51 51 51 51 51 51 50 50 49 49 48 47
29 30 31 31 32 32 33 34 35 36 37 37 38 38 39 40 40 41 42 43 44 45 46 47 48 49 50 51 52 52 53 53 53 54 54 54 54 54 53 53 52 52 51
30 30 31 32 32 33 34 35 36 37 38 38 39 39 40 41 41 42 43 44 45 46 47 48 49 50 51 52 52 53 54 54 55 55 56 56 56 56 56 56 56 55 55
31 31 32 33 33 34 35 36 37 37 38 39 40 40 41 41 42 43 44 45 46 47 48 49 50 51 52 53 54 54 55 55 55 56 57 57 58 58 58 58 58 58 58
32 32 33 34 35 35 37 37 38 39 40 41 41 41 41 42 43 45 45 46 47 49 50 51 52 53 54 54 55 56 56 57 57 57 58 58 59 59 59 60 60 60 60
33 34 35 36 36 37 38 39 40 40 42 43 43 43 43 44 45 46 47 48 49 50 51 53 54 55 56 57 58 58 59 60 60 61 61 61 61 61 62 62 62 63 63
35 36 37 38 38 39 40 41 42 42 43 45 46 45 44 44 47 48 49 50 52 53 54 55 56 57 58 60 61 62 63 63 64 65 65 65 66 66 66 66 66 66 66
37 38 39 40 41 41 42 43 44 44 45 46 48 49 49 48 48 48 50 52 54 55 57 58 60 61 62 63 64 65 67 68 69 69 70 71 71 71 71 71 71 71 71
38 39 40 41 42 43 44 45 46 47 47 48 50 51 53 54 53 52 51 53 55 57 59 61 62 64 65 67 68 69 70 71 73 74 75 76 76 77 77 76 76 76 76
40 41 42 43 44 45 46 47 48 49 50 51 51 53 54 56 58 59 57 56 57 59 61 63 64 66 68 70 72 73 74 75 77 78 79 80 81 82 82 82 82 81 81
42 43 44 45 46 47 48 49 50 51 52 53 54 55 57 58 60 62 62 62 62 62 64 65 67 70 72 74 75 77 78 79 81 82 83 84 85 86 87 87 87 87 86
44 46 46 47 48 49 50 51 52 53 54 56 57 58 60 61 63 65 66 67 67 67 68 69 71 73 75 77 78 80 81 82 83 84 85 86 87 88 89 90 91 91 91
46 47 48 49 50 51 53 54 54 56 57 58 59 61 62 64 66 68 70 71 72 71 71 72 74 76 78 79 80 81 82 83 84 84 85 85 86 87 88 89 91 92 93
48 48 49 50 51 53 54 55 56 57 58 60 61 63 65 67 68 70 72 74 76 76 75 75 77 77 78 79 79 80 81 81 82 82 82 82 81 82 83 84 86 87 89
49 50 51 52 53 54 55 57 58 59 60 62 64 66 67 69 70 72 74 75 78 80 79 78 78 78 78 77 76 76 76 76 76 76 76 76 75 75 75 75 76 77 79
51 52 52 53 54 56 57 59 60 61 63 64 66 68 69 71 72 74 75 77 78 80 80 77 77 76 75 73 71 71 70 70 69 69 69 68 67 67 66 66 67 67 69
52 53 54 55 56 57 59 60 62 63 65 66 68 69 71 72 73 75 76 77 78 78 78 76 72 71 70 69 68 66 65 64 63 62 62 61 60 60 60 60 61 61 62
53 54 56 57 58 60 61 62 63 65 66 68 69 70 72 73 74 75 76 76 75 75 74 72 69 67 65 64 63 61 60 59 58 57 57 56 56 56 56 56 56 57 57
55 56 57 58 60 61 63 64 65 67 68 69 70 72 73 75 75 75 75 74 73 72 70 69 66 63 61 60 59 58 57 55 54 54 53 53 52 52 52 52 52 52 52
57 58 59 61 62 63 64 65 67 68 69 71 72 73 74 75 75 75 74 72 70 68 67 65 63 60 58 56 55 54 53 52 51 51 50 50 49 48 48 48 48 49 49
58 60 61 62 64 65 66 68 69 70 71 72 73 74 75 75 74 73 71 69 68 66 64 62 59 56 54 52 51 50 50 49 47 46 46 45 46 45 45 45 45 45 45
60 61 63 64 65 67 69 70 71 72 73 74 75 75 75 73 72 70 67 66 64 62 60 58 55 52 50 49 48 47 46 44 42 41 42 41 41 41 42 42 42 42 41
62 63 65 66 68 69 70 72 73 74 75 76 76 75 73 71 69 67 65 62 59 57 56 54 52 49 48 47 46 44 43 41 39 38 39 37 37 38 38 38 39 39 38
64 65 66 68 69 70 72 74 75 76 76 75 74 73 71 69 66 64 62 59 55 53 51 50 49 47 45 44 43 42 40 38 36 35 36 35 34 35 35 35 36 36 35
65 67 68 70 71 72 74 75 77 77 76 74 72 70 68 66 63 60 58 55 52 50 48 47 46 44 43 41 40 39 38 36 35 34 34 34 33 33 32 32 33 32 32

GEFSMA_500_meanwind_120.txt.gz
Wind_Speed
28 29 29 30 30 31 31 32 32 33 34 34 35 35 36 37 37 38 39 40 40 41 41 42 43 43 44 45 45 46 46 47 47 48 48 48 48 48 48 47 47 46 46
29 30 30 31 31 31 32 32 33 34 35 35 36 36 37 38 39 39 40 41 41 42 42 43 43 44 45 46 46 47 47 48 48 48 49 49 50 50 50 50 50 50 49
30 31 31 31 31 32 33 33 34 35 35 36 36 37 38 39 40 41 41 42 43 43 44 44 45 45 46 46 47 47 48 48 49 49 50 50 51 51 51 52 52 52 52
30 31 31 32 32 33 34 34 35 36 37 37 38 39 39 40 41 42 43 43 44 45 45 46 46 47 47 48 48 49 49 49 50 50 51 51 51 51 52 52 53 53 53
31 31 32 33 33 34 35 35 36 37 38 39 39 40 41 42 43 43 44 45 46 46 47 48 48 48 49 49 50 50 51 51 51 52 52 52 52 53 53 53 54 54 54
32 32 33 34 34 35 36 37 38 39 40 40 40 41 42 43 44 44 45 46 47 48 49 49 50 50 51 51 51 52 52 52 53 53 53 54 54 54 55 55 56 56 56
33 34 34 35 36 37 38 39 40 41 41 42 42 42 43 44 44 45 46 47 48 49 50 50 51 52 52 53 53 54 54 55 55 55 56 56 57 57 57 57 58 58 58
34 35 36 37 38 39 40 40 41 42 43 44 44 44 43 43 45 46 47 49 50 51 52 52 53 54 54 55 56 56 57 57 57 58 59 59 60 60 60 61 61 61 61
35 36 37 38 39 40 41 42 43 44 44 46 47 47 46 45 45 45 47 49 50 52 53 54 55 56 57 58 58 59 59 60 61 61 62 62 63 63 64 64 64 65 65
37 38 39 40 41 42 43 44 45 45 46 47 48 49 50 50 49 47 46 48 50 52 54 55 56 58 59 60 61 61 62 63 64 65 66 66 67 67 68 68 68 69 69
39 40 41 42 43 44 45 46 46 47 48 48 49 50 51 52 53 53 50 50 51 53 55 56 57 58 60 61 62 63 64 65 66 67 68 69 69 70 71 71 72 72 72
41 42 43 44 45 46 47 47 48 49 49 50 51 52 52 53 54 55 55 55 54 54 56 57 59 60 62 63 64 65 66 67 68 69 70 70 71 72 73 74 75 75 75
43 44 45 46 47 48 48 49 49 50 51 52 52 53 54 55 56 58 58 58 58 57 57 58 60 62 64 65 66 67 68 69 70 71 72 73 74 74 75 76 77 78 78
45 46 47 48 48 49 49 50 51 51 52 53 54 55 56 57 59 60 61 61 61 60 60 61 63 64 66 67 68 69 70 71 73 74 75 75 76 76 77 78 78 79 79
46 47 48 49 49 50 51 51 52 53 54 54 55 56 57 59 60 61 62 64 65 64 63 63 65 66 68 69 70 71 72 73 74 75 76 77 77 77 77 77 77 78 78
47 48 49 50 51 51 52 53 54 54 55 56 57 58 59 60 61 63 64 65 67 68 68 67 68 69 70 71 72 73 73 74 74 75 75 75 75 75 75 75 74 74 74
49 49 50 51 52 53 54 54 55 56 56 57 59 60 60 62 63 64 66 67 68 69 70 69 70 71 73 74 74 75 75 75 74 73 72 72 71 71 70 70 69 69 69
50 51 52 53 54 54 55 56 56 57 58 59 60 61 62 64 65 66 67 68 69 71 72 71 71 73 74 75 76 76 76 75 73 71 70 68 67 66 65 64 64 63 63
52 53 54 55 55 56 56 57 58 59 60 61 62 63 64 66 66 67 68 69 71 72 74 74 74 75 76 77 76 75 74 72 71 69 67 65 64 62 60 59 58 57 57
54 55 55 56 57 57 58 59 60 61 62 63 64 65 66 67 68 69 70 71 73 74 76 77 77 77 76 76 75 73 70 68 66 64 63 61 59 56 54 53 52 52 52
55 55 56 58 59 59 60 61 62 63 64 65 65 67 68 69 70 71 72 73 75 76 77 78 78 77 75 73 71 69 66 63 60 59 57 55 53 51 51 50 49 49 49
55 57 58 59 60 61 62 63 65 65 66 67 68 69 70 71 72 73 75 76 78 79 79 79 78 75 72 69 66 63 61 58 54 53 52 49 49 47 47 46 45 45 45
57 58 59 60 61 63 64 66 67 68 69 70 71 72 73 74 75 76 77 78 78 79 79 78 75 71 67 63 61 58 55 53 50 48 47 45 45 44 43 43 42 41 40
58 59 61 62 63 65 67 68 69 71 71 73 74 75 75 76 77 78 78 77 76 76 75 73 69 65 61 58 56 53 51 48 46 45 44 41 40 40 40 40 38 37 37
60 61 62 64 66 67 69 71 73 74 74 75 75 76 76 77 77 78 77 76 74 72 69 66 63 59 56 53 52 50 47 45 42 40 40 39 37 37 36 36 35 35 34
62 63 65 67 68 70 72 74 75 76 76 76 76 76 76 77 76 76 76 75 72 68 64 61 57 54 52 50 48 46 44 42 39 36 36 36 34 34 32 32 33 33 33

GEFSMA_500_meanwind_126.txt.gz
Wind_Speed
27 27 28 28 29 29 29 29 30 30 30 31 31 31 31 32 32 33 33 34 34 35 36 36 37 38 39 39 40 41 41 42 43 44 45 45 46 46 46 47 47 47 46
28 28 29 29 30 30 30 30 31 31 31 32 32 32 33 33 34 35 35 36 36 36 37 37 38 39 39 40 41 42 42 43 44 45 46 47 47 48 48 49 49 49 49
29 30 30 31 31 31 31 32 32 32 33 34 34 35 35 36 36 37 37 38 38 38 38 39 39 40 41 42 42 43 43 44 45 46 46 47 48 49 49 50 50 50 51
31 31 32 32 32 32 33 33 33 34 35 35 36 36 37 37 38 39 39 39 40 40 41 41 41 42 42 43 43 44 45 45 46 46 47 48 48 49 50 50 51 51 52
32 32 32 32 33 33 33 34 34 35 35 36 37 37 38 39 40 40 41 41 41 42 43 43 43 44 44 44 45 45 46 46 47 48 48 49 49 50 50 51 51 52 52
32 33 33 33 33 34 34 35 35 35 36 37 38 39 39 40 41 41 42 43 43 44 44 45 45 45 46 46 47 47 48 48 49 49 50 50 51 51 51 52 52 53 53
32 33 33 34 34 35 35 36 36 37 37 38 39 40 41 41 42 43 44 45 45 46 46 46 47 47 47 48 49 49 50 50 51 51 52 52 53 53 54 54 55 55 55
33 33 34 34 35 36 36 37 37 38 39 40 41 41 41 42 43 44 45 47 47 48 48 48 49 49 49 50 50 51 52 52 53 53 54 54 55 56 56 57 57 58 58
34 34 35 36 36 37 37 38 39 40 41 42 42 43 43 43 43 44 45 47 48 48 49 50 50 51 52 52 53 53 54 54 55 55 56 56 57 57 58 58 59 59 60
35 36 36 37 37 38 39 40 41 42 43 43 44 45 45 45 45 43 44 46 47 48 49 51 52 53 53 54 55 55 56 57 57 57 58 58 58 59 59 60 61 61 62
36 37 37 38 38 39 41 42 43 43 44 44 45 45 46 47 47 47 46 46 47 49 50 51 52 53 54 55 56 57 57 58 59 59 60 60 61 61 62 62 63 63 64
37 38 38 39 40 41 43 43 44 45 45 46 46 47 48 48 49 50 49 49 49 49 50 52 54 55 55 56 57 58 59 59 60 61 62 62 63 63 64 64 65 65 66
38 39 39 41 42 43 44 45 46 46 47 48 48 49 50 51 52 52 52 52 51 51 52 53 55 56 57 58 59 60 60 61 62 63 63 64 65 66 66 67 67 67 68
39 40 41 42 43 44 45 46 47 48 48 49 50 51 52 53 53 54 54 55 55 54 54 55 56 57 59 60 61 62 62 63 64 65 66 67 67 68 68 69 69 70 70
41 42 43 44 44 45 47 48 48 49 50 51 52 53 53 54 55 56 56 57 58 57 57 57 59 60 61 62 63 64 65 66 66 67 68 68 69 69 70 71 72 73 73
42 43 44 45 46 47 48 49 50 51 51 52 53 54 55 56 57 57 58 59 60 61 61 61 62 63 65 66 67 68 68 69 69 70 71 71 72 73 73 74 75 75 76
44 45 45 46 47 49 50 51 51 52 53 53 54 55 56 57 58 59 60 61 63 64 64 63 65 67 68 70 71 72 72 73 73 73 74 75 76 76 77 77 77 77 76
45 46 47 48 49 50 51 52 52 53 54 55 56 57 58 59 60 61 63 64 65 66 67 67 68 70 72 73 74 75 75 76 76 77 78 78 79 79 79 78 77 75 74
46 47 48 50 51 52 52 53 54 55 56 56 57 58 60 61 62 64 65 67 68 69 71 71 72 73 75 76 76 77 78 78 79 79 80 80 80 79 78 76 73 71 69
47 48 50 51 52 53 53 54 55 56 57 58 59 61 62 64 65 67 68 70 71 72 74 75 76 76 76 77 78 78 78 79 79 79 79 78 77 75 72 70 68 66 65
49 50 51 52 53 54 55 56 58 58 59 60 62 63 65 67 68 70 71 72 74 75 77 77 77 76 76 76 77 77 77 76 75 74 73 71 69 66 64 62 60 58 57
50 51 52 53 54 55 57 58 60 60 62 63 65 66 68 69 70 72 73 74 76 78 79 79 78 77 76 76 76 75 74 72 69 67 65 62 60 57 56 54 53 51 50
51 51 53 54 56 58 59 60 62 63 64 66 68 69 70 72 73 74 75 76 78 78 79 79 78 77 76 75 75 73 71 68 64 61 59 55 53 51 50 48 47 45 44
52 53 55 56 58 59 61 63 64 66 67 69 70 71 73 74 75 76 77 78 78 78 78 78 78 76 75 73 72 69 66 63 59 55 53 50 48 46 45 43 42 41 40
53 55 56 58 60 61 64 65 67 69 70 71 72 73 74 75 76 78 79 79 77 76 76 76 75 74 72 70 67 65 60 57 52 48 47 45 43 41 40 39 38 37 35
54 56 58 60 62 64 66 68 70 71 72 73 74 74 75 76 77 77 78 77 76 74 74 72 71 69 67 64 61 58 54 51 47 43 42 41 38 37 34 34 34 33 32

GEFSMA_500_meanwind_132.txt.gz
Wind_Speed
28 29 29 29 30 30 30 30 31 31 31 31 32 32 32 32 32 32 32 33 33 34 35 35 36 36 37 37 37 38 38 39 40 40 41 41 42 43 43 44 44 45 45
30 30 31 31 31 31 31 32 32 32 33 33 33 33 33 33 33 33 33 33 34 35 36 36 37 37 38 38 39 39 40 40 41 42 42 43 43 44 44 45 45 46 47
31 31 32 32 32 32 33 33 33 33 33 33 33 33 33 33 34 34 34 35 35 36 36 37 37 38 38 39 40 40 41 41 42 43 43 44 44 45 45 46 46 47 48
32 32 32 33 33 34 34 34 34 34 34 34 34 34 34 34 35 35 35 36 36 36 37 37 38 39 39 40 41 41 42 42 43 43 44 45 45 46 46 47 48 48 49
33 33 33 33 34 34 34 34 34 35 35 34 34 35 35 35 35 36 37 37 38 38 38 38 39 40 41 41 42 42 43 43 44 44 45 45 46 47 47 48 48 49 49
33 33 34 34 34 34 35 35 35 35 35 35 35 35 36 36 37 38 39 39 39 40 40 41 41 41 42 42 43 43 43 44 45 45 46 46 47 48 48 49 50 50 51
34 34 34 34 35 35 35 35 36 36 36 36 36 37 38 38 39 40 40 41 41 41 42 42 42 42 42 43 43 44 44 45 46 46 47 47 48 49 49 50 51 51 52
34 35 35 35 35 35 36 36 37 38 38 38 38 38 38 38 39 41 41 42 42 42 42 42 43 43 44 44 44 45 46 46 47 47 48 48 49 50 50 51 52 52 53
35 35 35 35 35 36 37 38 38 38 39 39 40 40 40 40 40 40 41 42 43 43 43 44 44 45 45 46 46 46 47 47 48 49 49 50 51 51 52 52 53 53 54
35 35 36 36 36 37 38 38 39 39 40 41 41 42 42 43 42 40 41 42 43 44 45 45 46 46 47 47 47 48 48 49 49 50 51 52 52 53 53 54 54 55 55
36 36 37 37 37 38 39 40 40 41 42 42 43 43 44 44 44 43 42 43 44 45 45 46 47 47 48 49 49 50 50 51 51 52 52 53 54 54 55 55 56 56 57
36 37 37 38 39 40 40 41 42 42 43 44 45 45 45 46 46 46 45 45 45 45 46 47 49 49 50 51 51 52 53 53 53 54 54 55 56 56 57 58 58 59 59
37 38 39 39 40 41 41 42 43 44 44 45 46 46 47 47 47 48 48 47 47 47 48 49 50 51 52 52 53 54 54 55 55 56 57 58 59 60 60 61 62 63 63
38 39 40 41 41 42 43 43 44 45 46 47 47 47 48 48 49 50 50 50 50 49 50 50 52 53 53 54 55 56 56 58 58 59 61 62 63 64 64 65 66 67 67
39 40 41 43 44 44 44 44 46 47 48 48 48 48 49 50 51 51 52 53 53 52 51 52 53 54 55 56 57 59 60 61 62 63 64 65 66 67 68 69 70 71 72
40 42 43 44 45 45 45 46 47 48 49 49 50 50 51 51 52 52 54 54 55 56 55 55 56 57 59 60 61 63 64 65 66 67 68 69 71 72 73 74 75 76 77
42 43 43 44 45 46 46 47 49 49 50 50 51 52 52 53 53 55 56 57 58 59 59 58 60 62 63 65 66 67 68 69 70 71 73 74 75 76 77 77 78 79 79
42 43 44 45 46 47 48 49 50 50 51 51 52 53 54 55 56 57 59 60 61 62 64 63 64 66 68 69 70 71 71 72 74 75 76 76 77 78 78 78 78 78 78
43 45 46 46 47 48 49 50 51 51 52 52 54 54 56 57 59 60 62 63 64 66 67 68 68 70 71 72 73 74 74 75 76 77 77 77 77 77 76 76 76 75 75
44 45 46 47 48 49 50 51 52 52 53 54 55 56 58 60 61 63 65 66 68 69 70 72 72 72 72 73 75 75 75 75 76 76 76 76 76 75 75 74 73 72 71
45 45 46 47 48 50 51 52 52 53 54 55 57 59 60 62 64 66 68 69 70 71 72 73 73 73 73 74 75 75 75 74 73 74 74 74 73 72 70 69 68 66 65
45 45 46 48 50 51 52 53 53 54 56 57 59 61 62 65 67 68 69 71 72 73 73 73 73 73 73 73 74 74 74 74 73 72 72 69 68 65 64 62 60 58 56
44 45 47 49 51 51 52 53 55 56 58 59 61 63 65 67 68 70 71 72 72 73 74 74 74 73 73 73 74 73 73 73 71 69 67 63 60 58 56 54 52 50 49
45 47 49 50 51 52 54 55 57 59 60 62 63 65 67 69 70 71 72 73 72 72 73 74 74 73 73 73 74 73 72 70 67 63 61 58 54 52 50 48 46 45 43
46 48 49 50 52 53 55 57 59 60 62 63 66 68 69 70 71 73 73 72 71 71 72 72 73 73 73 72 71 70 67 65 60 55 54 52 49 46 43 41 40 38 36
47 49 50 52 53 55 57 59 61 62 64 66 67 69 70 71 71 72 72 72 72 71 71 71 71 71 69 67 65 63 60 57 53 49 46 45 42 40 35 34 33 32 31

GEFSMA_500_meanwind_138.txt.gz
Wind_Speed
27 28 28 29 29 30 30 30 31 31 31 31 32 32 33 33 34 34 34 34 35 35 35 35 35 36 36 37 38 38 39 40 40 40 40 41 41 42 42 43 43 44 44
29 29 30 30 30 31 31 31 32 32 33 33 34 34 34 34 34 34 35 35 35 35 36 36 36 37 37 38 38 39 39 40 41 41 42 42 43 43 44 44 44 45 45
30 30 31 31 32 32 32 32 33 33 34 35 35 35 35 35 35 35 36 36 36 36 36 37 37 38 38 39 39 40 40 41 41 42 43 43 44 44 44 45 45 46 46
31 31 32 32 33 33 33 33 34 34 34 35 35 35 35 35 35 36 36 36 37 37 38 38 39 39 40 40 41 41 42 42 42 43 43 43 44 44 45 45 46 46 47
32 32 32 33 34 34 34 35 35 35 35 35 35 35 36 36 36 37 37 37 38 38 39 39 40 41 41 42 42 43 43 43 43 43 43 44 44 45 45 46 46 47 47
33 33 33 34 34 35 35 36 36 36 36 36 36 36 36 37 37 38 38 39 39 39 40 40 41 42 42 42 42 42 42 42 43 43 44 44 45 45 46 47 47 48 48
33 34 34 35 35 36 36 36 36 37 37 37 37 37 37 38 39 40 40 40 40 41 41 42 43 43 43 42 42 42 43 43 43 44 44 45 45 46 47 47 48 48 49
34 35 36 36 36 37 37 37 37 37 38 37 37 38 38 39 40 41 41 41 42 42 43 43 43 43 43 43 43 43 44 44 45 45 46 46 47 47 48 48 49 49 50
35 36 36 37 37 38 38 38 38 38 38 39 39 39 39 40 40 40 41 42 43 44 44 44 44 44 44 44 45 45 46 46 47 47 48 48 49 49 49 50 50 51 51
36 36 37 37 38 38 39 39 39 39 39 40 40 41 41 41 41 41 42 43 44 45 45 45 45 45 45 46 46 47 47 48 48 49 50 50 51 51 52 52 52 53 53
36 37 37 37 38 39 39 40 40 40 40 41 41 42 42 43 43 43 43 43 44 45 45 45 46 47 47 48 48 49 49 50 50 51 52 52 52 53 53 54 54 54 54
36 37 38 38 38 39 40 40 40 41 41 42 42 43 44 44 45 45 44 44 44 45 46 47 48 48 49 49 50 51 51 52 53 53 54 54 54 55 55 55 56 56 56
36 37 38 38 39 40 40 41 41 41 41 42 43 44 45 46 46 47 47 46 45 45 46 48 49 50 51 51 52 53 54 54 55 55 56 56 57 57 58 59 59 60 61
37 37 38 39 39 40 41 41 41 41 42 44 45 46 47 47 48 49 49 48 47 47 47 49 50 51 52 53 54 55 56 57 57 58 59 60 61 61 62 63 64 65 66
37 38 39 39 40 40 41 41 41 43 44 45 46 47 48 49 49 50 50 50 51 50 49 50 51 53 54 55 56 58 59 60 61 62 63 64 65 66 68 69 69 70 71
38 38 39 40 40 40 41 42 43 44 45 46 47 48 48 49 50 50 51 52 53 53 52 52 54 55 57 59 60 61 62 64 65 66 67 69 70 71 72 73 73 74 75
38 38 39 40 40 41 41 42 43 45 46 47 48 48 49 49 50 51 52 53 54 56 55 55 57 59 61 62 64 65 66 67 68 69 71 72 73 74 75 76 77 78 78
37 38 38 39 40 41 42 43 44 45 46 46 47 49 50 51 52 53 54 55 56 58 58 58 59 61 63 65 66 67 68 69 70 71 72 73 74 74 75 76 76 77 78
37 37 38 39 40 41 42 43 45 45 46 47 49 50 51 53 53 55 56 57 58 60 61 62 63 64 66 67 68 68 69 70 71 72 72 72 73 74 74 75 76 77 77
37 38 38 39 40 41 42 44 45 46 47 48 50 52 53 54 55 56 57 59 61 62 64 65 66 66 67 68 69 70 70 71 71 72 72 73 74 75 76 76 76 75 75
37 38 38 39 41 42 43 44 45 47 48 50 52 53 55 55 56 58 59 61 63 65 66 67 67 67 68 69 69 70 70 70 70 72 72 73 73 73 72 72 71 71 70
37 38 39 40 41 42 43 45 47 49 50 52 53 54 55 57 58 60 62 64 66 67 67 68 69 69 68 69 69 70 70 70 70 70 71 69 69 67 67 66 66 65 63
37 38 39 40 42 43 45 46 48 50 51 53 54 55 57 59 61 63 64 66 66 67 68 69 69 69 69 69 69 70 70 70 69 68 66 63 63 61 60 59 58 57 55
37 38 40 41 42 44 46 48 50 51 53 54 55 57 59 61 63 65 65 65 66 67 68 69 69 69 69 69 70 70 69 67 64 62 61 58 56 54 53 52 51 50 48
37 39 40 42 43 45 47 49 51 52 53 55 57 59 60 62 64 66 66 66 66 66 67 68 68 68 68 68 68 67 64 62 58 56 56 54 51 49 48 47 45 44 41
38 40 41 43 45 47 48 50 51 52 54 56 58 60 62 64 65 66 66 66 66 67 67 67 66 66 66 64 63 62 59 57 55 52 51 49 46 44 41 40 39 38 35

GEFSMA_500_meanwind_144.txt.gz
Wind_Speed
28 28 29 29 29 30 30 30 31 32 32 33 33 34 34 34 35 35 35 36 36 36 37 37 38 38 39 39 39 40 40 40 40 40 40 40 41 41 41 42 42 43 43
29 29 29 30 30 31 31 32 33 33 34 34 34 35 35 35 35 36 36 36 36 37 37 38 39 39 40 40 41 41 41 41 41 42 42 42 42 42 42 43 43 43 44
30 30 30 31 31 32 33 34 34 35 35 35 35 36 36 36 36 36 36 37 37 38 38 39 39 40 40 41 41 41 42 42 42 43 43 43 44 44 44 44 44 45 45
31 31 32 33 33 34 34 34 35 36 36 36 37 37 37 37 37 37 37 38 38 39 39 39 40 40 41 41 42 42 43 43 43 43 44 44 44 44 44 45 45 45 45
32 33 33 34 34 35 35 36 36 37 37 38 38 38 38 38 38 38 38 39 39 40 40 40 41 41 42 42 43 43 43 43 44 44 44 44 44 44 44 44 44 44 45
33 34 34 35 35 35 36 37 38 38 38 39 39 39 39 39 39 39 40 40 41 41 41 41 42 42 43 43 44 44 44 44 44 44 45 45 45 45 45 45 45 45 45
34 35 35 36 36 36 37 38 39 39 39 39 39 39 39 39 40 40 41 42 42 42 42 42 43 43 44 44 45 45 45 45 45 45 45 45 45 45 45 46 46 46 46
35 36 36 36 37 37 38 38 39 39 40 40 39 39 39 40 40 41 42 43 43 43 43 43 44 44 45 45 46 46 46 46 46 46 46 46 46 47 47 47 47 47 47
36 36 36 37 37 38 38 39 40 40 40 40 40 40 40 40 41 41 42 43 43 43 44 45 45 46 46 47 47 47 47 47 47 47 48 48 48 48 49 49 49 49 49
36 36 37 37 37 38 39 40 40 40 40 40 40 41 41 41 42 41 41 43 44 45 46 46 47 47 47 47 47 47 48 48 48 49 49 49 49 49 50 50 50 50 51
37 37 37 37 38 39 39 40 40 40 40 40 41 41 42 42 43 43 43 44 45 46 47 48 48 48 48 48 48 49 49 49 49 50 50 50 51 51 52 52 52 53 53
37 37 37 38 38 39 39 40 40 40 40 41 41 42 42 43 43 44 44 44 45 46 47 48 48 49 49 49 50 50 50 50 50 51 51 52 52 53 54 54 55 55 56
37 37 38 38 39 39 39 40 40 40 41 41 41 42 43 44 45 45 45 45 45 45 46 47 48 49 50 50 51 52 52 52 52 53 54 55 55 56 57 57 58 59 59
37 38 38 38 39 39 39 40 40 41 41 41 42 43 43 44 45 46 46 46 46 46 47 48 49 50 51 52 53 53 53 54 55 56 57 58 59 60 61 61 62 63 63
37 38 38 38 38 39 40 40 40 41 41 42 43 43 44 45 46 46 47 48 49 48 48 49 51 52 53 54 54 55 56 57 58 59 61 62 63 64 64 65 65 66 66
37 37 38 38 39 40 40 41 40 41 41 42 43 43 44 45 46 48 49 50 51 51 51 52 53 55 56 56 57 58 59 60 62 63 64 64 65 65 65 66 66 67 67
36 36 37 38 39 39 40 40 40 41 42 42 43 44 45 47 48 49 51 52 53 54 54 55 56 57 58 59 60 61 62 63 64 64 65 65 66 66 67 67 68 68 69
36 37 38 38 39 39 40 40 41 41 42 43 44 45 46 48 49 51 52 53 54 56 57 57 57 58 59 60 62 63 64 65 65 66 67 67 67 68 69 69 69 69 69
36 37 37 38 38 39 40 40 41 41 42 43 45 46 48 49 51 52 54 55 56 58 58 59 59 60 61 63 64 65 66 67 67 67 67 68 68 68 68 68 67 67 67
36 37 37 37 38 39 39 40 41 42 43 44 46 47 49 51 52 54 55 57 58 58 60 61 61 63 64 66 66 67 67 67 68 68 68 68 68 68 67 66 65 65 64
35 36 36 37 38 39 40 40 41 43 44 46 47 49 50 52 53 55 57 57 59 60 61 62 64 65 66 67 68 68 68 67 67 67 66 66 66 65 64 63 62 61 61
35 36 37 38 39 39 40 41 42 44 45 47 49 50 51 53 55 56 57 59 60 61 63 64 66 67 67 68 68 69 68 67 64 63 63 63 64 62 60 59 58 57 57
35 36 37 38 39 40 41 42 43 45 46 48 50 51 53 54 56 56 58 60 61 63 65 66 67 67 68 68 69 68 67 65 63 62 61 60 59 58 57 56 55 55 54
35 36 37 38 39 40 41 43 44 45 47 49 50 52 53 55 56 57 59 60 62 64 66 67 67 68 68 68 68 66 64 62 60 59 59 57 55 55 54 54 54 53 51
36 37 38 39 40 41 42 43 45 46 48 50 51 53 55 56 57 59 60 62 63 64 66 67 67 67 67 67 66 64 61 60 57 55 55 54 53 51 50 50 49 48 46
36 37 38 39 40 41 42 44 46 48 49 51 52 54 55 57 58 60 62 63 63 64 65 65 65 66 66 65 63 61 59 57 55 53 51 51 49 48 46 45 44 43 41

GEFSMA_500_meanwind_150.txt.gz
Wind_Speed
25 26 27 28 28 28 28 29 29 30 31 32 32 33 34 34 34 34 34 34 35 35 35 35 36 36 36 37 37 38 38 38 38 39 39 39 40 40 40 40 40 40 40
27 28 28 28 29 29 29 30 31 31 32 33 33 34 34 34 35 35 35 35 35 35 35 36 36 37 37 37 37 38 38 39 39 39 39 40 40 40 40 40 40 41 41
28 29 29 29 29 30 31 32 32 33 33 34 34 34 35 35 35 35 36 36 36 36 36 36 37 37 38 38 38 38 39 39 39 40 40 40 40 40 41 41 41 42 42
29 29 30 30 31 31 32 33 33 33 34 34 34 35 35 36 36 36 36 36 36 36 37 37 38 38 38 39 39 39 39 40 40 40 40 41 41 41 41 41 42 42 42
30 30 31 31 32 32 33 34 34 34 34 34 35 36 36 36 36 36 36 36 37 37 37 38 38 39 39 39 39 40 40 40 41 41 41 42 42 42 42 42 42 43 43
30 31 31 32 32 33 33 34 34 34 35 35 36 36 36 36 36 36 37 37 37 37 38 38 39 39 40 40 40 41 41 41 41 42 42 43 43 43 43 43 43 44 44
31 32 32 32 33 33 34 34 35 35 35 36 36 36 36 36 36 37 37 37 38 38 38 39 40 40 41 41 41 41 41 42 42 42 43 43 43 43 44 44 44 45 45
32 33 33 33 34 34 34 34 35 35 36 36 36 36 36 36 37 37 37 38 38 38 39 40 40 41 41 41 42 42 42 42 43 43 43 43 44 44 45 45 45 46 46
33 33 33 34 34 35 35 35 35 36 36 36 36 36 36 36 36 37 37 38 39 39 40 41 41 41 41 42 42 42 43 43 44 44 44 45 46 46 46 47 47 47 48
33 34 34 34 35 35 35 36 36 36 36 36 36 36 37 37 37 37 38 38 39 40 41 41 41 41 42 42 43 43 44 44 45 46 46 47 47 48 48 49 49 49 49
34 34 34 35 35 35 36 36 36 36 36 36 36 36 37 38 38 39 39 39 40 40 41 41 42 43 43 44 44 45 45 46 47 48 49 49 50 50 51 51 51 51 51
34 34 35 35 35 35 36 36 35 35 35 36 36 37 37 38 38 39 39 40 40 41 42 43 44 45 45 46 47 47 48 49 50 51 52 52 52 53 53 53 53 54 54
34 35 35 35 35 35 35 35 35 35 35 36 36 37 38 38 39 40 40 41 41 42 43 44 45 46 48 48 49 50 50 51 52 54 54 54 55 56 55 55 56 56 57
34 35 36 36 35 35 34 34 35 35 36 36 37 37 38 38 39 40 41 42 43 43 44 45 47 48 49 50 51 52 53 54 55 56 56 57 57 57 58 58 59 60 60
34 35 35 35 35 35 34 35 35 35 36 36 37 38 38 39 40 41 42 44 45 45 46 47 49 50 51 52 53 54 55 56 57 57 58 59 59 60 61 61 62 62 62
34 35 35 35 35 35 35 35 35 36 36 36 37 38 39 40 41 42 44 45 46 48 49 50 51 53 54 55 56 57 58 58 59 59 61 62 62 62 63 63 62 62 62
34 34 35 35 35 35 35 35 35 36 37 37 38 39 40 41 43 44 45 46 48 50 51 51 53 55 56 57 58 59 60 61 62 63 64 64 64 64 64 63 62 62 63
35 35 35 35 35 35 35 35 36 37 37 38 39 40 42 43 44 45 47 48 50 51 53 53 55 56 58 59 61 62 63 64 64 65 65 65 64 64 63 62 62 63 63
34 35 35 35 35 35 36 36 37 37 38 39 40 41 43 44 45 46 48 49 51 53 55 56 57 58 60 61 62 63 63 64 65 65 64 64 64 63 63 63 63 62 62
34 35 35 35 35 36 36 37 37 38 39 40 41 42 44 45 46 47 49 51 53 55 57 58 59 60 61 61 62 62 63 64 64 64 64 64 63 63 62 61 61 60 59
34 35 35 35 36 36 36 37 38 39 40 41 42 43 44 45 47 49 50 52 54 56 58 59 60 61 61 61 62 63 64 63 62 62 62 61 61 60 59 58 58 57 57
34 35 35 35 36 36 37 37 38 39 41 42 43 44 45 46 48 50 52 54 56 58 59 60 60 61 61 62 63 64 64 62 61 61 60 59 58 57 57 56 55 55 53
34 35 35 35 36 36 37 38 39 40 41 42 43 44 45 47 49 51 53 55 57 58 60 61 61 61 62 63 64 64 63 62 60 59 58 57 57 56 55 53 52 51 50
34 35 35 35 36 37 37 39 40 41 42 42 44 45 46 48 51 52 54 56 58 60 61 61 61 62 62 63 64 63 61 60 59 58 58 57 55 54 52 50 49 48 47
35 35 35 36 36 37 38 39 40 41 42 43 45 46 48 50 52 54 55 57 59 60 60 60 61 62 63 64 63 61 60 59 58 58 57 56 53 51 49 48 46 44 43
35 35 35 36 37 38 39 40 41 42 43 44 46 47 49 51 53 54 56 58 59 59 59 60 62 63 63 62 61 60 60 59 58 56 54 52 50 48 46 45 44 42 40

GEFSMA_500_meanwind_156.txt.gz
Wind_Speed
20 20 21 22 24 24 25 26 27 27 28 29 30 31 32 33 33 33 34 34 35 35 35 35 35 35 35 35 35 36 36 37 37 37 38 38 38 38 39 39 39 39 39
21 21 22 24 24 25 26 27 27 28 29 30 31 32 33 33 33 33 34 35 35 35 35 35 35 35 35 35 36 36 37 37 37 37 38 38 38 39 39 39 39 39 39
22 23 24 25 26 26 27 28 28 29 30 31 32 32 33 33 33 34 35 35 35 35 35 35 36 36 36 36 36 37 37 37 38 38 38 39 39 39 39 39 39 39 39
23 24 25 26 26 27 28 29 30 30 31 32 33 33 33 34 34 34 35 35 35 35 35 36 36 36 36 37 37 37 38 38 38 38 38 39 39 39 39 39 40 40 40
24 25 26 26 27 28 29 30 30 31 32 33 33 34 34 34 35 35 36 36 35 36 36 36 36 37 37 37 38 38 38 38 38 39 39 39 40 40 40 40 41 41 41
26 26 27 27 28 29 30 30 31 32 33 34 34 34 35 35 35 36 36 36 36 36 37 37 37 37 38 38 39 38 39 39 39 40 40 40 41 41 41 41 42 42 42
27 28 28 29 29 30 31 32 32 33 34 34 35 35 35 36 36 36 36 36 37 37 37 37 37 38 39 39 39 39 40 40 41 41 41 41 42 42 43 43 43 43 43
28 29 29 30 30 31 32 32 33 34 34 35 36 36 36 36 36 36 37 37 37 38 38 38 38 39 39 39 40 40 41 41 42 42 43 43 44 45 45 45 45 45 45
29 30 30 31 31 32 33 33 34 34 35 36 36 37 36 36 36 36 37 37 38 38 38 39 39 40 40 40 41 42 43 43 44 44 45 46 47 47 47 47 47 48 48
30 31 31 32 32 32 33 34 34 35 36 36 36 37 37 37 37 36 37 38 38 39 39 40 40 41 41 42 42 43 44 45 45 46 47 48 49 49 49 50 50 50 50
31 32 32 32 32 33 33 34 35 35 36 36 37 37 38 38 38 38 37 38 39 40 40 40 41 42 42 43 44 45 46 47 48 49 50 51 51 52 52 53 53 53 53
32 33 33 33 33 33 34 34 35 36 36 37 37 37 38 38 38 39 39 39 40 40 41 41 42 43 44 45 47 47 48 49 50 52 52 53 54 54 55 55 56 56 56
33 33 33 33 33 34 34 35 36 36 37 37 37 37 38 38 39 40 40 41 41 41 41 42 43 44 46 47 49 49 50 52 53 54 55 56 56 57 57 57 58 58 59
34 34 34 33 34 34 35 36 36 37 37 37 37 38 38 39 40 40 41 42 42 42 43 44 45 47 48 49 50 51 53 54 56 57 58 59 59 59 60 60 60 61 61
34 34 34 34 34 34 35 36 36 37 37 37 37 38 39 39 40 41 42 43 43 43 44 45 47 48 50 51 53 54 56 57 58 60 61 61 61 61 61 61 61 61 61
34 33 34 34 35 35 35 36 36 37 37 37 38 38 39 40 41 42 43 44 44 45 46 47 49 50 52 53 55 57 59 60 62 62 62 62 62 62 61 61 61 61 60
34 34 34 35 35 35 36 36 36 37 37 38 38 39 40 41 41 43 43 44 45 46 47 49 51 52 54 56 58 60 61 63 63 63 63 62 62 62 62 61 61 60 59
34 34 35 35 35 36 36 36 37 37 37 38 39 40 41 42 42 43 44 45 47 48 49 50 52 54 56 58 60 62 63 63 63 63 62 62 62 62 61 60 59 59 58
35 35 35 35 35 36 36 37 37 37 38 39 39 40 41 42 43 44 45 47 48 49 51 52 54 56 58 60 61 62 62 62 62 63 62 62 61 60 60 59 58 58 57
35 35 35 35 35 36 36 37 38 38 38 39 40 41 42 43 44 45 46 48 49 50 52 54 56 57 59 60 62 62 61 62 63 63 62 61 60 59 58 58 57 56 56
35 35 35 35 35 36 37 37 38 38 39 40 40 41 42 43 45 46 47 48 50 51 53 55 57 58 59 61 61 62 62 62 62 61 60 59 58 57 57 56 55 55 54
35 35 35 35 36 36 37 37 38 39 40 40 41 42 43 44 46 47 48 49 51 53 55 57 58 59 59 61 61 62 63 62 60 58 57 56 56 55 54 54 54 54 52
36 36 36 36 36 36 37 38 39 40 40 41 41 42 43 45 46 47 48 50 52 54 56 57 58 59 60 61 62 63 62 61 59 57 56 55 54 53 53 52 52 50 48
35 36 36 36 36 36 37 38 39 40 40 41 42 43 44 45 46 47 49 51 53 55 56 58 58 60 61 62 62 62 61 59 58 57 55 53 52 52 51 50 47 45 43
36 36 36 36 36 37 37 38 39 39 40 41 42 43 44 45 46 48 50 52 53 55 56 57 58 60 61 62 62 61 59 57 55 53 53 52 51 49 48 46 44 42 41
36 36 36 36 36 37 37 38 39 40 40 41 42 43 44 45 47 49 50 52 53 54 55 57 59 60 62 62 61 59 57 55 53 51 50 50 49 47 44 43 42 40 39

GEFSMA_500_meanwind_162.txt.gz
Wind_Speed
14 14 15 16 16 17 18 20 21 22 23 24 25 26 26 27 28 29 30 30 31 32 33 33 33 33 34 34 35 35 35 35 35 35 36 36 36 35 35 35 35 35 36
15 15 16 17 18 19 19 21 22 23 24 25 25 26 27 28 29 29 30 31 32 33 33 33 33 34 34 35 35 35 35 36 36 36 36 36 36 36 36 37 37 37 37
16 16 17 18 19 20 21 22 23 24 25 25 26 27 28 29 29 30 31 32 32 33 34 34 34 35 35 36 36 36 36 36 36 36 37 37 37 37 37 38 38 38 39
17 18 18 19 20 21 22 23 24 24 25 26 27 28 29 29 30 31 31 32 33 34 34 34 35 36 36 37 37 37 37 37 37 37 38 38 38 38 39 39 40 40 41
19 20 20 20 21 22 23 24 25 25 26 27 28 29 29 30 31 31 32 33 34 34 35 35 36 37 37 37 37 38 38 38 38 39 39 39 39 39 40 41 42 42 42
21 21 21 22 22 23 24 25 25 26 27 28 29 29 30 31 31 32 33 34 34 35 35 36 37 37 37 38 38 39 39 39 40 40 40 41 41 42 42 43 43 44 44
23 23 23 23 24 25 25 26 26 27 28 29 29 30 30 31 32 33 34 34 35 35 36 37 37 38 39 39 40 40 41 41 42 42 42 43 43 44 44 45 45 46 46
24 25 25 25 26 26 27 27 28 29 29 30 30 30 31 32 33 34 34 35 36 36 37 38 39 39 40 41 42 42 43 43 43 44 44 45 45 46 47 47 48 49 49
26 26 27 27 27 27 28 29 29 30 30 31 31 32 32 33 33 34 35 36 36 37 38 39 40 41 41 42 43 44 44 45 45 46 47 47 47 48 49 50 51 51 52
28 28 28 28 29 29 30 30 31 31 31 32 32 33 33 34 34 35 36 36 37 38 39 40 41 42 43 44 45 45 45 46 47 48 49 49 50 51 52 53 53 54 55
30 30 29 30 30 31 31 31 32 32 32 33 33 34 34 35 36 36 36 37 38 39 40 41 42 43 44 45 46 46 47 48 49 50 51 52 53 54 55 56 57 57 58
31 31 31 31 32 32 32 32 33 33 33 34 34 35 35 36 37 37 37 38 39 40 41 42 43 44 45 46 47 48 49 50 51 52 53 54 56 57 58 59 60 60 60
33 32 32 32 33 33 33 34 34 34 35 35 35 36 36 37 38 38 39 39 40 40 41 43 44 45 46 47 48 49 50 52 53 54 56 57 59 60 61 62 62 61 61
34 34 33 34 34 34 34 35 35 35 36 36 36 37 37 38 39 39 40 41 41 41 42 43 45 46 47 48 49 50 52 54 55 57 58 59 61 62 62 62 61 60 60
34 35 35 35 35 35 35 36 35 36 36 36 37 37 38 38 39 40 41 41 42 42 43 44 46 47 48 49 51 52 54 56 57 59 61 61 62 62 61 60 60 59 59
36 36 36 36 36 36 36 36 36 36 36 36 37 38 38 39 40 41 41 42 43 44 44 45 46 47 49 50 52 54 55 57 59 61 61 62 62 61 60 60 60 59 58
37 36 36 36 37 37 37 37 36 36 36 37 37 38 39 40 40 41 42 42 44 44 45 46 47 48 50 51 53 55 58 60 61 61 62 62 61 60 60 59 57 56 55
38 37 37 37 37 37 38 37 36 36 37 37 38 39 39 40 41 41 42 43 44 45 46 47 48 49 51 53 55 57 59 61 61 62 62 61 60 59 58 56 56 55 55
38 38 38 38 38 39 38 37 36 36 37 38 39 39 40 40 41 41 42 43 45 46 47 48 49 50 52 54 56 58 60 61 61 62 61 60 58 57 57 56 56 55 54
40 39 39 39 39 39 38 37 37 37 38 39 40 40 40 41 41 42 43 44 45 46 48 49 50 51 53 55 57 58 59 60 60 61 60 58 57 57 56 55 54 53 52
40 40 39 40 39 39 38 37 37 38 38 39 40 40 40 41 42 42 43 45 46 47 48 50 51 52 54 55 57 58 59 59 59 59 58 57 57 56 55 53 52 51 50
40 40 40 39 38 38 37 36 37 38 39 40 41 41 41 41 42 43 44 45 46 48 49 50 51 53 54 56 57 58 59 59 58 57 56 56 55 54 53 52 51 50 49
40 40 39 38 37 36 36 37 38 38 39 40 41 41 41 42 42 43 44 45 47 48 49 51 52 53 55 56 58 59 59 58 57 56 55 54 54 53 51 50 50 49 48
39 39 38 37 37 37 37 38 38 38 39 39 40 40 41 42 43 43 44 45 47 49 50 51 52 54 55 57 58 58 58 57 57 56 55 53 52 52 51 50 49 48 48
39 38 37 36 37 37 37 37 38 38 38 39 40 40 41 42 43 43 45 46 48 49 50 51 52 54 56 57 58 58 57 56 55 55 54 52 51 51 50 49 49 48 47
37 37 37 37 37 38 38 38 38 39 39 39 40 41 41 42 43 44 45 46 47 48 49 51 52 54 56 57 57 57 56 56 55 53 52 52 51 50 49 48 48 47 46

GEFSMA_500_meanwind_168.txt.gz
Wind_Speed
16 15 14 14 13 13 13 13 14 15 17 18 19 20 22 23 24 26 27 28 29 30 30 31 32 33 34 34 35 35 36 37 37 37 38 38 38 38 37 37 37 37 37
17 16 16 15 14 14 14 15 16 17 18 19 20 22 23 24 25 27 28 29 30 31 31 32 33 34 35 35 36 37 37 38 38 38 39 39 39 39 38 38 38 38 39
19 18 17 16 15 16 16 16 18 19 20 21 22 23 24 25 27 28 29 30 31 32 33 34 34 35 36 36 37 38 38 39 39 39 40 40 40 40 40 40 40 40 40
20 19 18 17 17 17 17 18 19 20 21 22 23 24 25 26 28 29 30 31 32 33 34 35 35 36 36 37 38 39 40 40 40 41 41 41 41 41 41 41 41 42 42
22 21 20 19 19 19 19 20 20 22 23 24 24 25 26 28 29 30 31 32 33 34 35 36 37 37 37 38 39 40 41 41 42 42 42 43 43 43 43 43 43 44 44
23 22 21 21 20 21 21 21 22 23 24 25 26 27 28 29 30 32 33 33 35 36 36 37 38 38 39 39 40 41 42 42 43 43 44 44 44 44 44 45 46 46 47
24 24 23 23 22 23 23 23 24 25 26 26 27 28 29 30 32 33 34 35 36 37 38 38 39 39 40 41 42 43 43 44 45 45 45 45 45 45 46 47 48 48 49
26 26 25 25 25 25 25 25 26 26 27 28 28 29 30 32 33 34 36 36 37 38 39 39 40 41 41 42 43 44 45 46 46 47 46 46 47 47 48 49 50 51 52
28 28 27 27 27 27 27 27 27 28 28 29 30 31 32 33 34 36 37 38 38 39 40 40 41 42 43 44 45 45 46 47 48 48 48 48 49 50 51 51 53 54 55
30 30 29 29 29 29 29 29 29 29 30 31 31 32 33 34 35 37 38 39 39 40 40 41 42 43 44 45 46 47 47 48 49 49 49 50 51 52 53 54 55 57 57
32 31 31 31 30 30 30 30 31 31 32 32 33 34 35 36 37 38 38 39 40 41 41 42 43 44 45 46 47 48 49 49 50 51 52 52 53 54 56 57 58 59 59
33 33 32 32 32 32 32 32 32 33 33 34 35 35 36 37 38 39 39 40 41 42 42 43 44 45 46 47 48 50 50 51 52 53 54 55 56 57 58 60 60 60 60
34 34 34 34 34 34 34 34 34 35 35 36 36 37 38 39 39 40 41 41 42 42 43 44 45 46 47 49 50 51 52 53 54 54 55 56 58 59 60 60 60 60 59
36 35 36 35 36 36 36 36 36 36 36 37 38 38 39 40 40 41 41 42 43 43 44 45 46 47 48 50 51 52 53 54 55 56 57 58 59 60 60 59 59 59 58
37 37 37 37 37 37 37 38 37 37 38 38 39 40 41 41 41 42 42 43 44 44 44 45 46 48 50 51 52 54 54 55 56 57 57 58 59 59 59 59 58 58 57
38 38 38 38 38 39 39 39 39 39 39 39 40 41 41 42 42 42 43 43 44 45 45 45 47 49 51 52 53 55 56 56 57 57 57 58 59 58 58 58 58 57 56
39 39 39 39 39 39 39 39 39 39 39 40 41 41 41 42 42 42 43 43 44 45 46 46 48 50 51 53 54 55 56 56 56 57 57 58 58 58 57 57 57 56 55
40 40 39 39 39 39 39 39 39 39 39 40 41 41 42 42 42 42 42 43 44 45 46 47 48 50 52 54 54 55 55 56 56 56 57 57 58 58 57 57 56 56 55
41 41 41 40 40 40 40 39 39 39 40 40 41 41 42 42 42 42 42 43 44 45 46 47 48 51 52 53 54 54 55 55 56 56 57 58 58 57 57 57 56 56 55
43 42 41 40 40 41 41 40 40 40 40 41 41 41 42 42 42 42 43 44 45 45 46 48 49 51 52 52 53 54 54 55 56 57 58 58 58 58 57 57 57 56 55
44 43 42 42 41 41 41 41 41 41 41 41 41 41 41 42 42 42 43 44 45 45 47 48 49 50 51 52 53 53 54 55 56 57 58 58 59 58 57 57 56 56 55
44 44 43 42 42 42 41 42 42 41 41 42 41 41 42 42 42 42 44 44 45 45 47 48 49 50 51 52 52 54 55 55 55 56 57 58 59 58 57 56 56 56 55
45 44 44 44 43 43 42 42 42 42 42 42 42 42 42 41 41 42 43 44 44 46 47 48 49 50 50 51 53 54 54 55 55 56 57 58 58 57 57 57 57 56 54
46 45 45 45 44 44 43 43 42 42 42 42 41 42 41 41 41 41 42 43 44 46 47 48 49 50 50 51 53 53 53 54 55 57 58 57 57 57 58 58 58 56 54
46 46 45 45 44 44 43 43 43 43 42 41 41 40 40 40 40 41 42 43 44 45 46 47 49 49 50 52 52 53 53 54 56 57 57 57 56 57 57 58 57 56 53
47 47 46 45 44 44 43 43 43 42 41 40 40 39 39 40 41 42 42 43 43 44 45 47 48 49 50 52 52 52 53 55 56 56 56 56 57 57 56 56 55 53 51

GEFSMA_500_meanwind_174.txt.gz
Wind_Speed
24 23 22 20 20 19 18 17 16 16 16 15 15 16 16 17 18 19 20 21 22 23 24 26 27 28 30 31 32 33 34 34 35 36 36 37 38 38 39 39 39 40 40
26 25 23 22 21 20 19 18 18 17 17 17 17 17 18 19 19 20 21 22 23 25 26 27 29 30 31 32 33 34 35 36 37 37 38 38 39 40 40 41 41 41 41
28 26 24 23 22 21 20 20 19 18 18 18 18 19 19 20 21 22 22 23 24 26 27 29 30 31 33 34 35 36 37 37 38 38 39 40 41 42 42 43 43 43 42
29 28 26 25 23 22 21 21 20 19 19 19 19 20 21 22 22 23 24 25 26 27 29 30 32 33 34 35 36 37 38 39 39 40 40 41 42 43 44 44 44 44 44
30 29 28 26 24 23 23 22 21 21 21 21 21 22 23 23 24 24 25 26 27 29 30 32 33 35 36 37 38 38 39 40 40 41 42 43 44 45 45 46 46 46 46
31 30 29 28 26 25 24 24 23 23 23 23 23 24 24 25 25 26 27 28 29 30 32 33 35 36 37 38 39 40 40 41 41 42 43 44 45 46 47 47 47 47 48
33 32 30 29 28 27 26 25 25 24 24 25 25 25 26 26 27 27 28 29 31 32 34 35 36 38 39 40 40 41 42 42 43 43 44 46 47 48 48 49 49 50 50
34 33 32 31 30 28 27 26 26 26 26 26 26 27 27 28 28 29 30 31 32 34 35 37 38 39 40 41 41 42 43 44 44 45 46 47 48 49 50 51 52 53 53
36 35 33 32 31 30 29 28 27 27 27 28 28 28 29 29 30 31 32 33 34 36 37 38 39 40 41 42 42 43 44 45 45 46 48 49 50 51 52 53 54 55 55
37 36 35 34 33 32 30 30 29 29 29 29 29 30 31 31 32 32 33 34 36 37 38 39 41 41 42 43 44 45 45 46 47 48 49 51 52 52 53 54 55 55 54
38 37 37 36 35 33 32 31 31 30 30 31 31 31 32 32 33 34 34 36 37 38 39 40 41 42 43 44 45 46 46 47 48 49 51 52 52 53 54 54 55 54 53
39 38 38 37 36 35 34 33 33 32 32 33 33 33 33 34 34 35 36 37 38 39 40 41 42 43 44 45 45 46 47 48 49 51 52 52 53 53 54 54 54 54 54
40 40 39 38 37 36 36 35 34 34 34 34 34 34 34 35 36 37 38 38 40 41 41 42 44 44 45 46 46 47 47 49 51 52 52 53 53 54 54 54 54 54 54
41 41 40 39 38 38 37 37 36 36 36 35 35 35 35 36 36 38 39 40 41 41 42 43 44 45 46 46 47 47 48 50 51 52 52 53 54 53 54 54 54 54 54
43 42 41 41 40 39 39 38 38 37 37 36 36 36 36 37 37 38 40 41 42 42 42 44 45 46 46 47 47 48 49 51 52 52 52 53 53 53 53 54 54 55 55
44 43 42 42 41 40 40 39 38 38 38 37 37 38 38 38 39 40 41 42 43 43 43 44 45 46 46 47 48 49 51 52 52 51 52 53 52 53 53 54 55 55 54
45 45 44 43 42 41 41 40 39 39 38 38 38 38 39 39 40 41 42 43 43 43 43 44 45 46 47 47 48 49 51 51 51 51 52 51 51 52 53 55 55 55 53
46 46 45 44 43 42 41 41 40 40 40 39 39 39 40 41 41 42 42 42 43 44 44 44 45 46 47 48 49 50 51 51 51 51 50 50 51 52 54 55 55 54 53
47 46 46 44 43 43 42 41 41 40 40 40 40 40 40 41 41 42 42 43 44 44 44 44 45 46 47 48 49 50 50 51 50 50 50 50 51 53 54 55 55 54 54
48 47 46 45 44 43 43 42 41 40 40 40 40 40 40 41 41 42 42 43 44 44 44 44 45 46 47 47 48 48 49 50 49 50 50 50 52 53 55 55 55 55 55
50 49 48 47 46 44 43 42 42 41 40 40 40 40 41 41 41 42 43 44 44 44 45 45 46 46 46 46 47 47 48 49 48 49 50 51 52 54 55 55 55 55 55
51 51 50 49 47 45 44 43 43 42 42 41 41 41 41 41 42 43 44 44 45 45 45 45 46 46 46 46 46 47 48 48 48 48 50 51 53 54 55 55 55 55 56
52 51 50 50 48 47 45 44 43 42 42 42 41 41 40 41 42 43 44 44 44 45 45 45 45 45 44 45 46 47 47 47 47 48 50 51 53 54 55 56 56 56 56
51 50 50 50 49 47 46 44 43 43 43 42 41 41 41 42 43 43 43 44 43 44 44 44 43 44 44 44 45 46 46 47 47 49 50 51 52 54 55 56 56 56 56
51 51 51 50 49 48 46 45 44 44 43 42 42 42 42 42 42 43 43 43 43 43 43 43 43 43 43 43 45 45 46 46 47 48 49 51 52 54 55 56 56 56 55
52 52 51 50 50 48 46 45 44 44 43 42 42 42 41 42 42 43 43 43 43 42 42 42 42 42 42 43 44 45 45 46 47 48 49 51 52 53 55 55 55 55 54

GEFSMA_500_meanwind_180.txt.gz
Wind_Speed
32 31 30 28 27 26 25 24 23 22 22 22 21 21 20 19 19 19 20 20 21 22 23 24 25 26 27 29 30 32 33 34 35 37 38 39 39 40 40 41 41 41 42
34 33 32 31 29 27 26 26 24 24 23 23 22 22 21 21 21 21 21 22 23 23 24 25 26 27 29 30 32 33 35 36 37 38 39 40 41 42 42 42 42 43 43
36 34 33 32 31 29 28 27 26 25 24 23 23 23 23 22 22 22 23 23 24 25 26 27 28 29 30 32 34 35 36 37 39 40 41 42 42 43 43 43 44 44 45
37 36 35 34 32 31 30 29 27 26 25 24 24 24 23 23 24 24 24 25 25 26 27 28 29 30 32 34 35 37 38 39 40 41 42 43 43 44 44 44 45 46 47
38 37 36 35 34 33 32 30 29 28 27 26 25 25 24 24 24 25 26 26 27 28 29 30 31 32 34 36 37 38 39 41 42 43 43 44 45 45 45 46 47 48 49
40 38 36 36 35 34 33 32 31 30 29 28 27 26 26 26 26 26 27 27 28 29 30 31 32 34 35 37 38 39 41 42 43 44 44 45 45 46 47 48 49 50 51
41 40 37 37 36 36 35 34 32 31 31 30 29 28 27 27 27 27 28 29 29 30 31 32 34 35 36 38 40 41 42 43 44 45 46 46 46 47 48 49 51 52 52
43 41 39 38 38 37 36 35 34 33 32 31 30 29 28 28 28 28 29 30 31 31 32 33 35 36 37 39 41 42 44 45 45 46 47 47 47 49 50 51 53 53 53
43 42 40 39 39 38 37 36 35 34 33 32 31 30 30 28 29 29 30 31 32 32 34 35 36 37 38 40 42 43 44 45 46 47 47 48 49 50 52 53 54 54 54
44 43 42 40 40 39 38 37 36 35 34 33 32 31 31 30 30 30 31 31 32 33 34 36 37 38 40 41 43 44 45 46 47 47 48 49 51 52 53 55 55 54 53
45 44 43 41 40 40 39 39 38 36 35 34 33 32 32 31 31 31 32 32 33 34 35 37 38 39 41 42 44 45 46 47 47 48 49 50 51 53 54 54 54 53 52
46 44 43 42 41 41 40 40 39 38 37 35 34 34 33 33 32 33 33 33 34 35 36 37 39 41 42 44 45 45 46 47 48 49 50 51 52 54 54 53 52 51 51
47 45 43 42 42 42 41 41 40 39 38 36 35 35 35 34 34 34 35 35 36 36 37 38 40 42 43 44 45 46 47 48 48 49 50 51 53 54 53 52 51 51 51
47 46 45 43 42 42 42 41 41 40 39 38 37 36 36 36 36 36 36 36 37 37 38 39 41 42 44 45 46 47 48 48 49 50 50 52 53 53 52 51 51 51 52
48 47 46 44 44 43 42 42 42 41 40 39 38 38 37 37 37 37 37 38 38 38 39 40 41 43 44 45 46 47 48 49 49 50 51 52 52 51 51 51 51 52 52
49 48 47 45 45 44 43 42 42 42 41 40 39 39 38 38 38 38 38 39 39 39 40 40 42 43 45 46 47 48 48 49 49 50 51 51 51 50 50 51 52 52 53
49 48 48 46 45 45 44 44 42 42 42 41 40 39 38 38 39 39 39 39 39 40 41 41 42 44 46 47 47 47 48 48 49 50 50 50 50 50 50 52 52 53 53
50 49 48 47 46 45 45 44 44 43 42 41 41 40 39 39 39 39 39 40 40 41 42 42 44 45 46 47 47 47 48 48 49 50 50 49 48 49 50 52 52 52 53
50 50 50 48 47 46 46 46 45 44 43 42 41 41 40 40 40 39 40 40 41 41 42 43 44 45 46 46 47 47 48 48 49 50 49 48 48 49 51 51 52 52 53
50 50 50 49 48 48 47 46 45 44 44 43 42 41 41 41 40 40 41 41 41 42 43 44 44 45 45 45 46 47 47 48 48 49 48 47 48 49 50 51 52 52 52
50 50 49 49 49 48 48 46 45 45 44 43 42 42 42 41 41 41 41 41 41 42 43 44 44 45 45 45 45 46 47 47 47 48 48 48 48 49 49 50 51 51 51
51 50 50 49 49 49 48 46 46 45 45 44 43 42 42 42 41 41 41 41 42 42 43 43 44 44 44 44 44 45 46 46 46 47 47 47 48 48 49 49 50 50 51
52 52 51 51 49 49 48 46 46 45 45 45 44 43 43 43 42 42 42 42 42 43 43 43 43 43 43 43 44 45 45 46 46 46 46 46 47 48 48 49 49 50 51
52 52 51 51 50 48 48 48 47 46 46 44 44 43 43 43 42 41 42 43 43 43 43 43 43 42 42 42 43 44 44 45 46 45 45 45 46 47 48 49 49 50 51
53 52 52 51 50 49 48 47 46 46 46 45 44 43 43 42 42 42 43 43 43 43 42 42 41 41 41 41 42 42 43 44 44 45 44 45 45 46 47 48 49 50 51
52 53 52 50 49 48 47 46 46 45 45 46 45 44 43 42 42 42 43 43 42 42 42 41 41 41 41 41 41 41 42 43 44 44 44 44 45 46 47 48 49 50 51

GEFSMA_500_meanwind_186.txt.gz
Wind_Speed
37 36 36 36 34 33 32 31 30 28 27 26 25 25 24 23 24 24 23 23 23 23 24 24 25 25 26 27 28 29 30 31 32 33 34 36 37 38 39 40 41 41 41
39 38 38 37 36 35 34 33 32 30 29 28 27 27 25 25 25 25 25 25 25 25 25 26 26 26 27 28 29 30 31 32 33 35 36 37 38 40 41 42 42 42 43
40 40 39 39 38 37 36 34 33 32 31 30 29 28 27 27 26 26 26 26 26 26 27 27 27 28 28 29 30 31 32 33 34 36 37 38 40 41 42 43 43 44 44
42 42 41 40 40 39 37 36 35 33 32 32 31 30 29 28 28 27 27 27 27 27 28 28 28 29 29 30 31 32 33 34 36 37 39 40 41 42 43 44 45 45 46
45 44 43 42 41 40 39 38 37 35 34 33 32 31 30 29 29 28 28 28 28 28 28 29 29 30 30 31 32 33 34 35 37 38 40 41 42 43 44 45 46 47 47
46 45 44 43 43 42 41 40 39 37 36 35 34 33 32 31 30 29 29 28 29 29 29 29 30 30 31 31 32 34 35 36 38 39 41 42 43 45 45 46 47 48 48
48 47 46 45 44 44 42 42 41 39 38 37 36 34 33 32 31 30 30 29 30 30 30 30 30 31 31 32 33 35 36 37 39 40 42 43 45 46 47 47 48 49 49
49 48 48 47 46 45 44 43 42 41 39 38 37 36 34 33 32 31 31 30 30 31 31 31 31 31 32 33 34 35 37 38 40 42 43 44 46 47 47 48 49 50 49
50 49 49 48 47 46 45 44 42 41 40 39 38 37 36 34 33 32 32 32 32 31 31 31 31 32 32 33 35 36 38 39 41 42 44 45 46 47 47 48 49 49 49
51 50 49 49 48 46 45 45 43 42 41 40 39 38 37 36 35 33 33 33 33 32 32 32 32 33 33 34 35 37 38 40 42 43 45 46 46 47 48 48 49 49 49
51 51 49 49 48 48 46 45 44 43 42 41 40 39 37 37 36 35 34 34 34 34 34 33 34 34 34 35 36 38 39 41 43 44 45 46 47 48 48 49 49 49 48
50 51 50 49 49 49 48 46 45 44 43 42 41 40 38 37 36 36 35 35 35 34 34 34 35 35 36 37 38 39 40 42 44 45 46 47 48 48 48 48 48 48 48
50 50 51 50 49 49 48 47 46 45 44 43 42 40 39 38 38 37 37 36 36 35 35 35 35 36 37 38 39 40 41 42 44 45 47 48 48 48 48 48 48 48 47
51 49 50 50 50 49 48 48 47 46 45 44 43 42 40 39 39 38 38 37 37 37 36 36 36 37 38 39 39 40 41 43 45 46 47 48 48 48 48 48 48 47 47
51 50 50 50 50 50 49 48 48 46 45 44 44 43 41 40 40 39 39 38 38 38 37 37 37 38 38 39 40 41 42 44 45 46 47 48 48 48 48 48 47 47 47
51 50 50 50 51 50 49 49 48 47 46 45 44 44 43 41 41 40 40 39 39 39 38 37 37 38 39 40 41 42 43 44 45 46 47 48 48 48 48 47 47 46 45
50 51 49 49 50 50 49 49 48 48 47 46 45 44 43 42 42 41 41 40 40 40 39 39 39 39 40 41 42 43 44 44 45 46 47 48 48 48 47 46 45 45 44
50 50 50 48 48 49 49 48 47 48 47 46 46 45 43 43 43 42 42 41 41 41 41 40 40 40 40 41 42 43 44 44 45 46 47 47 47 47 46 45 44 43 43
50 50 50 50 48 49 49 48 47 46 46 46 46 45 44 43 43 42 42 42 42 42 41 41 40 41 41 41 42 43 44 44 45 46 46 46 46 45 44 43 43 43 43
50 50 50 50 50 49 49 48 48 46 45 45 45 46 45 44 43 43 43 42 42 42 42 41 41 41 41 41 42 43 43 44 45 45 46 45 45 44 44 44 43 43 44
48 49 50 50 50 49 48 47 48 48 47 46 45 44 43 43 43 43 43 42 42 42 42 42 41 41 40 41 42 42 43 43 44 45 45 45 44 44 44 43 43 43 44
48 48 49 48 48 49 48 47 47 48 48 47 46 44 44 44 44 43 43 43 42 42 42 42 41 41 41 42 42 42 42 43 44 44 44 44 43 43 43 42 43 43 45
49 49 49 48 48 48 48 48 47 48 47 47 45 45 45 44 45 44 44 43 43 42 42 42 41 41 41 42 42 42 42 43 43 44 44 43 43 42 42 43 43 44 45
50 50 50 48 49 48 49 49 48 48 47 46 45 45 45 45 44 44 43 43 42 42 42 42 41 41 42 42 42 42 42 43 43 43 43 42 42 43 43 42 43 43 45
52 52 52 50 49 48 48 49 50 49 48 47 46 45 45 44 44 43 43 42 42 42 41 41 40 41 42 42 42 42 42 43 43 42 42 42 42 43 43 42 42 43 45
52 52 52 51 50 49 49 49 49 49 48 47 46 46 45 44 44 43 42 41 41 41 41 40 39 40 41 41 42 42 41 41 40 40 41 41 42 42 42 42 42 43 45

GEFSMA_500_meanwind_192.txt.gz
Wind_Speed
39 38 37 36 36 35 34 33 32 32 32 31 30 30 29 28 27 26 26 25 25 25 25 25 25 25 26 26 26 27 28 28 28 29 30 31 32 34 35 37 38 39 40
42 40 40 39 38 37 36 35 35 34 34 33 33 32 31 30 29 28 28 27 27 27 27 27 27 27 27 27 27 28 28 29 30 30 31 32 33 35 36 38 39 40 41
44 43 42 41 41 40 39 38 37 37 36 35 34 33 33 32 31 31 30 29 29 28 28 28 28 28 28 28 28 29 29 30 31 31 32 33 35 36 37 39 40 41 43
47 46 45 44 43 43 41 40 39 39 38 38 36 35 34 34 33 33 32 31 30 30 29 29 29 29 29 29 29 30 30 31 32 32 33 34 36 37 38 40 41 42 44
49 48 47 46 45 45 44 43 41 41 40 39 38 37 36 35 35 34 33 32 32 31 31 30 30 30 30 30 30 31 32 32 33 34 34 35 37 38 39 41 42 43 45
51 50 49 48 47 46 46 45 43 43 42 41 40 39 38 37 37 36 35 34 33 32 32 32 31 31 31 31 32 32 33 33 34 35 36 37 38 39 41 42 43 44 45
53 52 51 50 49 48 47 46 45 45 44 43 42 41 40 40 38 37 36 35 34 34 33 33 32 32 32 32 33 33 34 34 35 36 37 38 39 40 42 43 44 45 46
54 53 52 52 50 49 48 48 48 47 46 45 44 43 42 41 40 39 37 36 35 34 34 34 33 33 33 33 33 34 34 35 36 37 37 38 40 41 42 43 45 45 46
55 55 54 54 53 51 50 50 49 48 48 47 46 45 44 42 41 40 39 38 37 36 35 35 34 34 34 34 34 35 35 36 37 37 38 39 41 42 43 44 45 46 46
57 56 56 55 55 53 53 52 51 50 49 48 48 46 45 44 43 41 40 39 38 37 36 36 36 35 35 35 36 36 36 37 37 38 39 40 41 42 44 45 46 46 46
57 58 57 56 56 55 54 53 52 51 50 49 49 48 46 45 44 43 41 40 40 39 38 37 37 37 36 36 37 37 37 38 38 39 39 40 42 43 44 46 46 45 46
58 57 56 56 56 56 56 55 53 52 50 49 49 49 48 46 45 44 43 42 41 41 40 39 38 38 38 38 38 38 38 39 40 40 40 41 42 43 45 45 45 45 46
57 56 57 55 55 55 54 54 54 53 51 50 50 49 48 47 46 45 44 43 42 42 41 41 40 39 39 39 39 39 39 40 40 40 41 42 43 44 45 45 45 45 46
56 56 56 55 55 55 54 53 54 53 52 52 50 49 49 48 47 46 45 44 43 43 42 42 41 40 40 40 40 40 40 41 41 41 42 42 43 44 45 45 45 45 46
55 57 56 55 54 55 54 53 52 53 53 52 51 50 49 48 47 47 46 45 45 44 42 42 42 41 41 41 41 41 41 41 41 42 42 43 43 44 44 45 45 46 46
54 56 56 56 55 55 54 53 53 53 53 53 51 50 49 48 47 47 46 46 45 44 43 42 42 42 41 42 42 42 42 42 42 43 43 43 43 44 44 45 45 46 46
51 53 55 55 54 55 54 54 53 52 52 53 51 50 49 48 48 47 47 47 46 45 44 43 43 42 42 42 42 42 42 42 43 43 43 43 44 44 45 44 45 46 46
49 51 53 54 54 53 53 54 54 53 52 52 51 49 48 48 48 47 47 46 45 45 44 44 43 42 42 42 41 42 42 42 42 43 43 44 44 44 45 44 45 45 45
47 48 51 52 52 52 52 53 54 52 53 52 51 49 48 48 47 46 46 45 45 44 44 44 43 42 42 41 41 41 41 42 42 43 43 44 44 45 44 44 44 45 45
46 48 49 51 51 51 51 52 53 51 52 52 51 50 49 48 47 46 45 44 45 44 44 44 44 42 42 41 41 41 41 42 42 43 43 43 44 45 44 44 44 44 44
45 47 49 50 50 50 49 50 51 50 50 51 50 50 50 50 48 47 47 45 45 45 45 44 43 43 41 40 40 40 40 41 42 43 43 43 44 44 44 44 43 43 43
44 46 47 48 48 48 49 50 49 48 49 49 49 50 49 50 49 48 47 46 45 45 45 45 44 44 42 41 41 41 40 41 42 42 43 43 45 45 44 44 43 43 44
44 45 45 47 48 48 49 49 49 48 48 48 48 49 49 49 49 47 46 46 45 45 45 44 44 43 42 42 42 42 42 42 41 42 42 43 44 45 44 43 42 43 44
45 45 46 46 46 47 49 49 48 46 46 47 46 47 49 49 48 47 46 45 45 44 44 43 43 42 42 42 43 43 44 43 42 42 42 43 44 44 43 42 43 43 44
45 46 46 46 45 45 48 50 48 46 45 45 44 46 46 47 47 47 45 45 44 43 43 43 42 42 42 43 43 43 43 43 43 43 43 44 44 44 42 42 42 42 43
44 46 48 47 46 45 48 51 51 48 46 45 44 44 44 45 46 46 45 44 43 42 42 42 42 42 42 43 42 42 42 42 42 42 42 43 42 43 41 41 41 42 44

GEFSMA_500_meanwind_198.txt.gz
Wind_Speed
42 42 41 40 40 39 39 39 38 37 36 35 34 34 33 33 32 32 31 31 30 29 28 28 27 27 27 27 27 27 26 27 27 27 28 28 29 30 30 31 32 33 33
45 45 45 43 43 42 41 42 41 40 38 37 37 37 36 35 34 34 33 33 32 31 31 30 29 29 29 29 28 28 28 28 28 29 29 30 30 31 31 32 33 34 34
48 48 48 46 45 45 44 45 44 42 41 39 39 39 38 38 37 36 35 34 34 34 33 32 32 31 31 30 30 30 29 29 30 30 30 31 31 32 32 33 34 35 36
51 51 50 49 48 48 47 46 45 45 43 42 41 41 40 39 39 38 37 37 36 36 35 34 33 33 33 32 32 31 31 31 31 31 31 32 32 32 33 33 34 35 37
53 53 52 52 51 50 49 47 47 46 45 44 43 43 42 41 41 40 40 39 38 38 37 36 35 35 35 34 34 33 32 32 32 32 32 33 33 33 34 35 35 36 38
55 54 54 53 53 52 50 49 48 47 47 46 45 45 44 43 43 42 42 41 40 39 39 38 38 37 36 36 35 35 34 34 33 33 33 34 34 34 35 36 37 38 39
56 56 55 54 54 54 53 52 50 49 49 48 48 47 46 45 44 44 43 43 42 41 41 40 40 39 38 37 37 36 35 35 34 34 35 35 35 35 36 37 38 39 39
56 56 56 56 56 56 55 54 52 52 51 50 49 49 48 47 46 45 44 43 43 43 43 42 41 41 40 38 38 37 37 36 36 36 36 36 36 36 37 38 39 40 40
57 58 58 57 56 56 56 55 54 53 53 52 52 51 49 48 47 46 45 45 44 44 44 43 42 41 41 40 39 38 38 37 37 37 37 37 37 38 38 39 40 40 41
57 58 59 59 58 57 58 57 56 55 54 53 52 51 51 50 49 48 47 47 46 45 45 44 44 43 42 41 40 40 39 39 38 38 38 38 38 39 39 40 40 41 41
57 58 59 60 59 58 58 58 58 57 55 54 53 53 53 51 50 50 49 48 48 47 47 46 45 44 43 43 42 41 40 40 40 39 39 39 39 39 40 41 41 41 42
56 57 58 59 59 59 58 59 59 59 58 56 55 54 54 53 52 51 51 50 50 50 49 48 47 46 45 44 43 42 42 41 41 41 40 40 40 41 41 41 41 42 42
55 56 57 57 58 59 58 59 60 60 59 57 56 56 56 55 53 53 52 51 51 52 51 50 48 47 47 46 45 44 43 42 42 42 41 41 41 41 42 42 42 42 42
53 54 56 57 58 58 59 60 60 60 60 59 58 57 57 57 55 53 52 52 52 51 51 49 49 48 47 46 45 44 43 42 42 42 42 42 41 42 42 42 42 42 42
52 52 55 55 56 58 59 59 60 59 59 59 58 57 57 56 56 54 53 53 52 51 50 48 48 47 47 47 46 45 44 44 43 43 42 42 42 42 42 42 42 42 42
49 51 53 53 55 57 58 58 58 58 57 57 56 56 56 55 56 55 53 52 51 50 49 47 47 46 46 46 46 45 45 44 43 43 43 43 43 42 42 42 42 42 42
47 49 50 51 53 54 55 56 56 56 56 56 56 56 56 56 56 55 54 52 51 50 50 48 47 46 46 45 45 45 45 44 43 43 43 43 43 42 42 42 43 42 42
45 47 49 50 51 52 52 54 55 55 55 55 56 56 56 56 55 54 53 52 50 50 50 49 47 46 46 45 45 45 44 44 43 43 43 43 43 42 42 42 43 43 42
44 46 48 49 50 51 51 52 53 54 55 56 56 56 56 55 53 53 52 51 50 49 49 49 48 47 46 45 45 45 44 43 43 43 43 43 42 42 43 43 43 42 42
44 45 46 47 49 50 49 50 51 53 54 54 55 55 55 53 52 52 51 50 50 49 48 48 47 47 46 45 44 44 43 43 42 42 42 42 42 42 42 43 42 42 41
44 45 46 46 48 49 49 49 50 50 52 53 53 54 53 52 50 50 50 49 49 48 48 47 47 47 45 45 45 45 44 43 42 42 42 42 43 42 42 42 42 41 41
44 44 44 45 47 47 48 49 50 50 51 51 51 52 52 51 50 50 49 48 48 48 48 48 48 47 45 45 45 44 44 43 42 42 43 43 43 42 42 41 41 41 41
42 43 43 44 45 45 46 47 48 48 49 49 49 50 51 50 48 49 48 48 47 46 47 47 47 46 45 45 45 44 44 44 43 43 43 43 42 42 41 41 40 40 41
42 42 42 43 44 45 45 46 46 47 48 47 47 48 49 49 48 48 48 48 47 46 45 45 45 45 45 44 44 44 43 42 42 42 42 42 41 41 40 39 40 41 41
41 42 41 42 42 43 44 45 46 46 47 45 44 45 47 46 46 47 48 47 45 44 44 44 44 44 44 44 44 43 42 42 41 41 41 42 41 40 39 39 40 40 41
40 41 41 41 41 40 41 43 44 44 45 44 43 44 45 44 45 45 45 45 44 44 44 44 44 44 43 42 42 42 42 42 41 40 40 40 40 40 40 40 40 40 41

GEFSMA_500_meanwind_204.txt.gz
Wind_Speed
42 41 41 41 40 40 40 40 39 39 38 38 37 36 35 35 33 33 33 33 32 32 31 31 30 30 30 29 29 29 29 29 29 30 30 30 30 30 30 30 31 31 31
45 44 43 43 43 42 42 42 42 41 41 40 39 38 37 37 36 35 35 35 35 34 33 33 32 32 31 31 31 31 31 31 31 31 31 31 31 31 31 32 32 32 32
47 46 46 45 45 45 45 44 44 44 43 42 41 40 39 38 38 38 37 37 37 37 36 35 34 34 33 33 33 33 33 33 32 32 32 32 32 32 33 33 33 33 33
49 48 48 47 47 47 47 46 46 46 45 44 44 43 41 41 40 40 40 38 38 38 38 37 37 36 35 34 34 34 34 34 34 34 34 34 33 34 34 34 34 34 35
51 51 50 50 49 49 49 48 48 48 47 47 46 45 44 43 42 42 41 40 39 39 39 38 38 38 37 36 36 36 36 36 36 36 35 35 35 35 35 35 35 36 36
53 53 53 52 52 52 51 51 50 50 50 50 49 48 47 46 45 44 43 42 41 40 40 40 39 39 39 39 38 38 38 38 38 37 37 37 36 36 36 36 37 37 38
55 55 54 54 54 54 54 53 53 52 52 52 51 50 49 49 48 46 45 44 43 42 42 41 41 41 41 41 40 40 40 39 39 39 39 38 38 37 37 37 38 38 39
56 56 56 55 55 55 55 55 55 54 53 53 53 53 52 50 50 48 47 46 44 44 44 43 42 42 42 43 42 42 41 41 40 40 40 40 39 39 39 38 39 39 40
57 57 57 56 56 56 56 56 56 56 55 54 54 53 53 51 51 50 49 48 46 46 46 45 44 43 43 43 43 43 42 42 42 41 41 41 41 40 40 40 40 40 41
57 57 57 57 57 57 56 56 56 56 56 55 54 55 54 53 53 52 51 50 49 48 48 47 46 45 44 44 44 43 44 43 43 42 42 42 42 41 41 41 41 41 42
56 56 57 56 57 57 57 57 57 57 57 56 56 56 56 55 55 54 53 53 51 50 50 50 49 48 47 46 46 45 44 44 44 44 43 43 42 42 42 42 42 42 43
56 56 56 56 57 57 57 57 58 58 57 58 57 58 58 58 57 56 55 55 54 52 51 52 51 50 50 49 48 47 46 46 46 45 45 44 43 43 43 43 43 43 43
56 56 56 56 56 57 57 58 58 58 58 58 58 59 59 60 59 57 57 56 56 54 53 52 52 52 52 51 49 48 47 47 47 46 45 45 45 43 43 44 44 44 44
57 57 57 56 56 57 57 58 58 59 60 59 59 59 59 59 59 57 57 57 57 56 54 53 52 52 52 51 50 49 48 47 47 46 46 45 45 44 43 43 44 44 44
56 56 55 55 56 56 56 56 58 59 60 59 59 59 59 59 58 57 57 56 56 56 54 52 52 51 51 51 49 49 48 47 46 46 46 45 45 45 44 43 43 44 44
54 54 54 54 54 55 54 55 56 57 58 59 58 59 59 59 59 57 57 56 56 57 55 53 52 51 51 50 49 49 48 46 45 45 46 46 46 46 45 44 44 44 44
51 51 52 52 52 53 53 55 56 56 57 58 57 58 58 58 59 57 57 57 57 56 56 54 53 51 50 50 49 49 48 47 46 45 44 45 45 45 45 44 44 44 44
50 50 52 52 52 52 53 54 55 55 56 56 56 57 57 57 58 56 55 55 55 54 54 54 52 52 51 50 49 48 48 47 46 45 45 45 44 44 45 44 45 44 44
49 49 50 51 51 52 52 52 54 54 55 55 55 55 55 55 55 54 53 52 53 53 53 53 52 51 50 50 49 48 48 48 47 46 46 45 44 44 44 44 45 44 44
48 48 49 50 51 50 50 51 52 52 53 53 53 53 53 53 51 50 50 50 50 50 50 50 51 49 48 48 48 48 47 48 46 45 45 45 45 45 44 43 44 43 44
46 48 48 49 49 49 49 50 51 51 51 51 50 51 50 50 48 48 49 49 48 49 48 48 48 48 47 46 47 47 47 48 47 45 45 45 45 44 44 43 42 42 42
45 45 45 45 46 47 47 48 48 48 48 48 47 47 47 47 47 46 47 47 47 48 47 46 46 46 46 46 46 46 46 47 46 45 45 45 45 44 42 42 42 41 41
42 42 42 42 43 43 44 45 46 46 46 45 44 44 45 45 45 45 44 46 46 46 46 46 45 45 46 45 45 45 45 45 45 45 45 44 44 43 42 41 41 40 40
39 40 40 40 40 40 41 42 43 43 42 42 42 43 43 43 45 45 45 45 45 44 43 44 44 44 44 44 43 43 43 43 43 43 43 42 42 41 40 40 39 39 39
37 38 38 38 38 38 39 40 41 41 40 40 41 41 41 42 43 44 44 44 43 41 42 43 43 42 42 42 43 42 41 41 40 40 40 40 39 39 39 38 37 37 37
36 37 37 38 37 37 37 38 38 39 39 39 40 40 41 42 41 41 42 42 42 42 42 42 42 42 42 42 42 42 40 39 39 38 37 38 37 37 37 36 35 35 36

GEFSMA_500_meanwind_210.txt.gz
Wind_Speed
39 39 39 39 39 39 38 39 39 39 39 38 37 37 37 36 36 36 35 34 34 33 33 32 32 32 32 32 32 31 32 31 31 31 31 31 30 30 30 31 31 31 31
42 42 42 42 42 42 41 41 41 41 41 41 40 40 39 39 38 37 37 36 36 36 35 35 34 34 34 34 34 33 32 32 33 33 33 33 32 32 31 32 32 32 32
44 44 44 45 45 44 43 43 43 44 43 43 42 42 42 41 40 40 39 38 38 38 37 37 37 36 36 36 36 35 35 35 35 35 34 34 34 33 33 33 33 34 34
46 46 46 46 46 46 46 45 45 46 46 45 45 44 44 43 42 42 42 41 40 40 40 39 39 38 38 38 38 37 37 37 37 37 36 35 35 35 35 35 35 35 35
48 48 48 48 49 49 48 48 47 47 47 47 47 46 46 45 44 44 44 44 43 42 42 42 41 41 40 40 40 39 39 39 39 38 38 37 37 37 37 37 37 37 37
50 50 50 50 51 51 50 50 50 50 50 50 49 49 48 47 46 46 46 45 45 45 44 43 43 43 42 42 41 41 41 40 40 40 39 39 39 38 38 38 38 38 38
52 52 51 52 52 53 52 52 52 52 52 52 52 51 50 50 49 48 48 48 47 47 46 45 44 44 44 44 43 43 43 42 41 41 41 40 40 40 39 39 39 39 39
55 54 53 53 54 54 54 54 53 53 53 54 54 54 53 52 51 50 50 49 49 48 47 46 46 45 45 45 45 45 44 43 43 42 42 42 41 41 40 40 40 41 41
55 55 55 55 55 56 56 55 55 55 55 55 55 55 55 54 52 52 51 51 50 50 49 48 48 47 46 46 46 46 45 44 44 44 44 43 43 42 41 41 41 42 41
55 56 57 56 57 57 57 57 56 56 56 56 56 56 56 56 55 53 52 52 52 51 51 51 50 50 50 49 48 48 47 47 46 46 46 45 44 43 43 43 43 43 42
56 57 57 57 57 57 57 57 57 57 57 57 57 57 57 57 56 56 54 53 53 52 52 51 52 52 51 52 51 51 49 49 48 47 48 47 45 45 45 45 44 44 44
56 56 57 58 58 58 58 57 57 57 57 57 58 58 58 57 57 57 56 55 54 53 54 53 53 53 53 53 53 53 52 51 49 49 49 49 47 46 46 45 45 45 44
55 56 57 57 58 59 59 58 57 57 57 57 57 57 58 58 58 58 58 57 57 55 54 54 54 54 54 54 53 53 53 52 51 51 50 49 47 47 46 45 45 44 44
54 55 56 57 58 58 58 57 57 57 58 57 56 56 57 57 57 58 59 58 58 57 56 55 55 55 54 54 54 54 53 52 51 51 50 49 47 46 46 45 45 44 44
54 54 55 57 57 57 57 57 57 57 57 56 56 56 56 57 58 58 58 58 59 58 56 56 56 56 55 55 54 53 53 52 51 50 50 49 48 48 46 45 45 45 45
53 53 54 55 56 56 56 56 56 56 55 55 55 55 56 57 58 58 59 59 60 60 58 56 56 56 55 56 55 54 53 53 52 51 51 50 49 49 48 47 46 46 46
53 53 53 54 54 54 53 54 54 55 55 55 55 56 56 56 57 58 58 59 59 60 59 57 56 56 55 54 55 55 54 53 51 51 51 51 50 50 49 48 47 47 47
51 50 51 52 53 53 53 54 55 56 55 55 55 56 56 57 57 57 58 58 59 59 58 57 55 55 55 54 54 53 53 53 52 51 51 51 51 51 49 49 48 48 48
48 49 49 49 50 51 53 54 55 55 55 55 55 56 56 56 56 56 57 58 58 58 58 57 55 54 54 53 53 53 53 52 52 51 50 50 50 49 49 49 47 47 48
46 46 46 47 49 50 51 53 54 54 54 54 55 55 55 55 54 55 55 56 56 57 57 56 55 53 51 51 51 50 50 51 50 49 50 49 50 49 48 47 47 46 46
42 44 44 46 47 48 50 51 52 52 52 52 52 53 53 53 53 53 53 53 54 54 54 54 52 49 48 49 49 48 48 49 50 49 48 48 48 48 47 46 45 44 44
41 43 45 46 46 47 49 50 51 51 50 50 50 51 51 51 51 51 51 51 50 50 49 50 49 46 46 47 47 46 46 47 47 47 47 46 47 46 45 44 44 44 44
40 42 42 43 44 45 46 47 47 49 49 49 48 48 48 48 48 48 48 48 47 46 47 47 45 44 45 45 45 44 44 45 44 44 45 44 44 44 43 43 42 42 42
41 41 42 42 42 42 43 44 46 46 46 46 46 46 45 45 44 44 45 45 45 43 44 44 43 43 43 42 42 42 42 43 43 42 43 42 42 42 42 41 40 40 40
41 40 40 40 41 40 40 41 42 42 42 42 42 42 42 41 40 41 42 42 41 40 41 41 42 42 41 41 41 40 40 41 41 40 41 41 40 40 39 38 38 38 39
39 39 39 38 38 38 38 39 39 38 38 38 39 39 39 38 38 39 39 39 38 38 38 40 41 41 40 40 39 38 39 40 40 39 40 41 39 39 38 37 36 36 37

GEFSMA_500_meanwind_216.txt.gz
Wind_Speed
36 36 36 36 36 37 37 37 36 36 36 36 35 36 36 36 35 35 34 34 34 33 33 33 33 33 33 32 32 32 33 32 33 33 33 33 33 32 32 32 31 31 30
38 38 38 38 39 39 39 39 39 39 39 38 38 38 39 39 38 38 37 36 36 35 35 34 34 34 34 34 34 34 34 34 34 34 34 34 34 34 34 33 32 32 32
41 41 41 41 41 41 41 41 41 41 41 40 40 40 40 41 40 39 39 38 38 38 37 37 37 36 37 36 36 36 36 36 36 36 35 35 35 35 35 34 34 33 33
43 43 43 44 44 44 44 44 44 43 44 43 43 43 43 42 42 42 41 41 40 40 40 39 39 39 39 39 39 38 38 37 38 37 37 37 36 36 36 36 35 34 34
45 46 46 47 47 47 46 46 46 46 46 46 46 46 45 45 44 44 44 43 43 42 42 42 42 42 42 41 41 41 40 39 40 39 39 38 38 38 38 37 36 36 36
47 48 48 49 49 49 49 49 49 49 49 49 49 48 48 47 47 46 46 45 45 45 45 44 44 44 44 44 43 43 42 42 41 41 41 40 40 39 39 39 38 38 38
48 49 49 50 51 51 51 51 51 51 52 52 52 51 51 50 50 50 49 49 48 48 48 47 46 46 46 46 45 44 44 43 43 43 43 43 42 41 41 41 40 40 40
48 49 49 51 52 53 53 53 54 54 54 54 54 54 53 52 53 53 52 52 51 51 51 50 49 48 48 48 47 46 46 45 45 45 45 45 44 43 43 43 42 42 42
49 50 50 51 53 54 55 56 56 56 56 56 56 56 56 55 55 54 54 54 53 53 53 53 52 51 50 50 49 49 48 48 47 47 46 46 46 45 45 45 44 43 44
50 52 52 53 54 55 57 58 58 58 58 57 58 58 58 58 57 56 55 55 55 55 55 55 54 54 53 52 52 51 50 51 50 50 49 48 48 47 47 46 46 46 45
51 53 53 54 54 56 57 58 59 59 59 60 60 60 59 59 59 59 58 57 57 57 56 56 56 56 55 55 54 54 53 53 52 52 52 51 50 50 49 48 48 47 47
52 53 54 55 56 57 57 58 59 60 61 61 62 61 61 61 60 60 60 59 58 58 58 57 57 57 57 56 56 55 55 54 54 54 53 53 51 51 52 51 50 50 49
53 53 54 55 56 57 57 58 59 60 61 62 62 61 61 60 60 60 60 60 59 58 58 58 58 58 57 57 57 56 56 56 56 56 55 54 53 52 52 52 51 51 50
53 54 54 55 56 57 57 58 59 60 60 60 61 61 60 59 59 59 59 59 59 58 57 56 57 57 57 58 57 57 57 57 57 56 56 55 55 54 53 53 52 51 50
53 54 55 56 56 57 58 58 58 58 58 58 59 59 59 58 58 57 57 58 58 57 56 55 56 56 57 57 57 57 58 57 57 56 56 55 55 55 54 53 52 52 52
54 55 56 56 57 57 57 58 57 57 57 57 57 58 58 57 57 57 57 57 57 57 55 53 54 55 57 58 57 57 57 57 56 56 55 55 54 55 54 53 53 53 53
53 54 55 55 56 56 56 56 56 55 55 56 56 57 57 57 57 56 57 57 57 58 56 53 53 54 56 57 57 56 55 56 55 55 54 54 54 54 53 53 53 53 53
52 53 54 54 54 54 54 55 55 55 54 55 55 55 56 57 56 57 57 57 57 57 57 55 53 54 55 56 56 55 54 54 53 52 52 52 52 52 52 53 52 52 52
51 52 52 52 52 52 52 53 53 54 54 54 54 54 55 56 56 57 57 56 57 57 57 56 54 53 54 55 55 54 52 51 51 51 52 51 51 50 52 52 51 52 52
50 51 51 51 51 51 51 51 51 52 52 53 53 54 55 57 57 57 56 56 56 55 55 55 53 52 53 53 54 53 52 51 51 51 51 51 50 50 51 51 50 51 50
49 49 49 49 50 50 50 50 50 50 50 51 52 53 54 55 56 57 56 55 54 53 53 53 53 52 51 51 51 52 52 51 50 48 48 49 49 49 47 47 48 47 48
47 47 47 47 48 49 49 49 50 50 49 49 50 51 52 53 54 55 54 53 52 52 52 52 51 50 49 49 49 49 49 49 48 46 46 45 46 45 44 45 46 46 47
46 46 46 46 46 47 47 47 48 48 48 48 48 49 49 50 51 52 52 52 50 51 51 49 48 47 46 46 47 47 47 47 46 45 46 44 43 43 42 43 44 44 44
45 45 45 45 45 45 45 46 46 46 45 45 46 46 46 47 47 48 49 48 48 47 46 46 45 45 44 43 43 44 45 44 44 43 43 42 41 41 41 41 42 42 41
44 44 43 44 44 43 44 44 44 43 43 43 43 44 44 43 43 44 44 45 44 43 42 42 42 41 41 41 41 40 41 42 41 41 40 39 38 39 40 39 39 39 39
44 43 43 44 44 44 44 43 43 42 42 41 41 41 41 40 40 39 40 40 39 38 39 40 40 39 39 38 39 39 39 39 38 37 37 37 37 38 37 35 36 36 36

GEFSMA_500_meanwind_222.txt.gz
Wind_Speed
34 34 34 34 34 34 35 35 35 35 35 35 36 36 36 36 36 35 35 34 34 33 33 33 33 33 33 33 33 32 32 32 32 32 32 32 31 31 31 31 30 30 30
37 37 37 37 37 37 37 37 37 37 38 38 38 38 39 39 39 38 37 37 36 36 35 36 35 35 35 35 35 34 34 34 34 34 34 34 33 33 33 33 32 32 31
40 40 39 39 39 39 39 40 40 40 40 41 41 41 41 41 41 41 40 40 39 39 38 38 37 37 37 37 37 37 37 37 37 36 36 36 35 35 35 34 34 34 33
41 41 42 41 41 42 42 42 42 42 42 42 43 43 43 43 43 43 43 43 43 42 41 41 40 40 39 39 39 39 39 39 39 39 38 37 37 37 37 36 36 35 35
42 42 43 44 44 44 44 44 44 45 44 44 44 44 44 45 45 45 45 45 45 45 45 44 44 43 42 42 41 42 41 42 42 42 41 40 39 39 39 38 38 37 37
43 44 45 46 46 45 45 45 46 46 46 46 46 46 46 46 46 46 46 47 48 48 48 47 47 46 46 45 45 44 44 45 44 44 44 43 42 42 42 41 40 40 39
44 44 45 45 46 46 46 46 47 48 48 48 49 49 49 49 48 49 49 49 50 50 50 50 50 49 49 48 47 47 47 47 47 47 46 46 45 45 44 44 43 43 42
45 45 45 45 45 46 47 47 48 49 50 50 51 51 51 51 51 52 52 52 52 52 52 52 52 52 52 51 51 50 50 49 49 49 49 48 47 47 47 46 45 45 44
44 44 44 45 46 46 47 48 48 48 49 50 52 53 54 54 54 53 54 54 54 54 54 54 54 54 54 54 53 53 53 52 52 52 51 50 50 49 49 48 48 47 46
44 44 45 46 47 48 48 49 50 50 51 52 52 54 55 56 56 56 57 57 57 57 57 57 57 56 56 56 55 55 54 54 54 54 53 53 52 52 51 51 51 50 49
44 45 46 47 48 49 50 50 52 52 54 54 55 55 56 57 58 59 59 59 59 59 59 59 58 58 58 58 58 57 57 57 57 56 56 55 54 54 54 53 53 52 52
45 46 47 49 50 51 51 52 53 54 54 55 56 57 58 58 59 61 61 61 61 61 60 60 60 60 60 59 59 58 58 58 58 58 57 57 56 56 57 55 55 55 54
46 48 49 50 50 51 52 53 54 55 56 56 57 58 59 59 59 60 61 61 61 60 61 60 60 60 60 60 60 59 59 59 60 59 59 59 58 58 58 57 57 57 55
48 48 49 50 51 52 53 54 55 56 57 58 58 59 59 59 60 60 61 61 61 60 59 58 59 59 60 60 60 59 59 60 61 61 60 60 59 59 59 58 57 57 55
49 49 50 51 52 53 54 55 55 56 57 58 59 59 59 59 59 59 60 60 60 60 59 57 57 57 58 59 59 59 59 59 60 60 60 60 59 59 59 58 57 57 56
50 50 51 51 52 54 55 55 56 57 58 58 58 59 58 58 58 58 58 58 58 59 58 55 56 56 56 56 58 59 60 60 59 59 60 60 59 58 58 58 57 57 56
50 51 51 52 52 53 55 55 56 57 57 57 57 56 56 56 57 57 57 57 57 58 58 55 56 56 56 57 57 58 59 60 58 57 58 58 58 58 58 57 57 57 56
50 51 51 52 52 53 55 55 55 55 55 55 55 55 55 56 56 56 56 57 57 57 58 57 56 56 56 57 57 57 58 58 56 56 56 57 56 56 56 56 56 56 55
50 51 52 52 53 54 54 55 55 55 55 55 54 54 54 55 55 55 55 56 57 57 58 57 55 55 55 55 55 55 56 56 55 55 55 55 55 55 55 55 55 55 55
50 51 52 53 53 54 54 54 54 54 54 54 54 54 54 54 54 55 56 56 57 57 57 56 55 54 54 54 55 54 54 53 54 54 54 55 54 53 53 53 54 54 54
51 52 52 53 54 54 53 53 53 52 52 53 53 53 54 54 54 55 55 55 56 56 55 55 54 53 54 53 53 53 52 52 52 52 52 52 51 51 51 52 53 53 53
51 51 52 53 52 51 51 52 52 52 51 51 52 52 53 53 53 54 54 54 53 53 53 53 52 52 52 51 51 52 51 51 51 50 51 49 49 48 49 50 51 51 51
51 51 51 51 50 49 50 50 51 51 50 51 51 51 51 51 52 52 52 52 52 52 53 52 51 50 50 49 49 49 49 49 49 49 49 47 45 44 45 45 46 46 47
49 49 49 48 48 48 49 49 50 51 51 50 51 51 51 51 51 51 51 51 50 50 50 50 49 47 47 47 47 46 47 47 46 45 44 43 42 42 41 42 43 43 44
48 48 47 47 48 48 48 49 50 50 49 50 51 51 51 50 50 50 50 50 49 48 47 47 46 45 43 43 43 42 42 42 41 40 40 41 39 39 39 39 39 38 39
47 47 46 46 46 47 47 48 49 48 48 48 49 50 49 48 48 48 48 48 46 45 44 44 43 41 41 40 39 39 39 38 37 37 37 37 37 37 36 35 35 35 36

GEFSMA_500_meanwind_228.txt.gz
Wind_Speed
30 30 30 30 30 31 31 31 32 32 33 33 33 33 34 34 34 34 34 34 34 34 34 34 33 34 33 33 33 33 33 33 33 32 32 32 32 33 32 32 32 32 31
32 32 32 33 33 33 34 34 34 35 35 35 35 36 36 36 37 37 36 37 36 36 37 36 36 36 36 36 36 36 36 36 36 35 35 35 34 35 34 34 34 34 34
34 35 35 36 36 36 37 37 37 37 37 38 38 38 38 38 39 38 38 38 38 38 38 38 38 38 39 39 39 38 38 38 38 38 38 37 37 37 36 36 36 36 35
37 38 38 38 39 39 39 39 39 39 40 40 40 41 40 40 41 39 39 40 40 40 40 40 41 40 41 41 41 41 41 41 41 41 41 40 40 39 39 39 39 38 37
39 40 41 41 41 41 41 41 41 41 42 42 42 42 42 42 43 42 42 42 42 42 42 43 42 42 43 43 43 44 44 44 44 44 44 43 43 42 42 42 42 40 40
41 42 42 43 43 43 43 43 43 43 43 43 43 43 43 44 45 45 45 44 44 44 44 44 44 44 44 45 45 46 46 46 46 46 46 46 45 45 45 45 44 43 43
43 43 43 43 43 43 43 44 44 44 45 45 45 45 45 45 45 46 46 47 46 46 46 47 46 46 46 47 47 48 47 48 48 49 49 48 48 47 47 47 46 46 45
43 43 43 43 44 44 44 44 45 45 46 46 47 46 46 46 46 48 47 48 48 48 49 49 49 49 49 50 50 50 50 51 51 51 51 51 51 51 50 49 49 49 48
43 43 43 43 44 45 45 45 46 46 46 47 47 48 48 48 49 48 48 48 49 50 51 52 52 52 53 53 53 54 53 54 53 54 54 54 54 54 53 52 52 51 51
43 43 43 43 44 44 44 45 45 46 46 47 48 49 50 51 50 49 49 50 51 52 53 54 55 55 56 56 56 57 56 56 56 56 56 56 55 55 55 55 54 54 53
43 43 43 43 44 44 45 45 45 45 46 47 48 48 49 50 50 51 50 51 52 53 54 55 56 57 57 57 58 58 58 58 58 57 57 57 56 56 56 55 55 55 54
43 43 43 43 43 44 44 45 45 46 47 47 48 48 49 50 51 52 52 52 53 53 55 56 56 57 57 57 57 58 58 58 58 58 58 58 57 57 55 55 56 56 55
43 44 44 44 44 44 45 45 46 47 48 49 49 49 50 51 52 53 54 54 55 54 55 55 56 57 57 57 57 57 58 58 58 58 58 58 58 57 56 56 56 56 56
44 44 45 45 46 46 47 47 48 49 50 51 52 52 52 52 53 54 55 56 57 56 56 55 55 55 56 56 57 58 58 58 58 58 57 57 57 58 58 58 57 57 55
46 46 46 47 47 48 49 49 50 50 51 52 52 53 54 55 55 56 57 58 59 58 57 56 55 55 56 57 57 58 57 57 57 56 56 56 57 58 59 59 58 57 56
47 47 48 49 49 49 50 51 51 52 52 53 53 55 55 56 57 57 57 58 58 59 58 56 55 55 56 56 57 57 57 57 56 56 56 56 57 58 58 58 58 57 56
49 49 50 51 51 51 51 52 52 53 53 54 55 56 56 57 57 57 57 57 58 59 59 56 55 55 56 57 57 57 57 57 56 56 57 57 58 58 58 58 57 57 56
50 51 52 52 52 52 53 53 53 54 54 55 56 57 57 57 58 58 58 58 58 58 58 57 55 56 57 57 57 56 56 57 56 56 56 56 57 57 57 57 56 55 54
51 51 52 52 52 53 54 54 55 55 55 56 57 57 57 57 58 58 58 57 57 57 58 58 57 56 55 55 56 56 56 54 55 55 54 54 55 55 54 54 54 53 53
51 51 51 52 53 53 54 54 55 56 56 56 56 56 56 56 57 57 57 57 57 57 57 57 57 55 54 54 55 55 53 52 52 52 52 52 52 52 52 52 53 53 53
50 51 51 52 53 53 54 55 55 56 56 55 55 55 55 55 56 56 56 56 56 56 56 55 55 54 52 53 53 53 53 51 50 49 50 50 50 49 49 50 51 51 51
51 52 52 53 53 53 54 55 55 56 55 55 54 54 54 54 55 55 55 55 55 55 54 54 54 53 52 52 52 51 51 49 48 47 48 47 47 47 46 46 46 47 47
51 52 52 53 52 52 53 54 54 54 54 53 53 53 54 54 54 54 53 52 53 54 54 54 53 52 52 51 51 49 48 47 46 45 45 44 44 44 43 43 43 43 44
51 51 52 52 52 52 53 53 53 53 52 52 52 52 52 51 52 52 51 51 51 52 52 52 52 51 51 49 48 46 45 44 43 42 42 40 38 39 41 40 40 41 41
51 51 50 51 51 50 51 51 50 50 49 50 50 50 50 50 51 52 52 51 50 51 51 51 50 49 48 47 46 45 44 43 41 39 39 37 36 37 37 37 38 38 38
49 49 49 49 49 48 47 47 47 48 48 49 48 48 49 49 49 49 50 50 50 50 49 49 48 47 45 43 42 42 41 40 38 37 36 35 34 34 33 33 34 34 35

GEFSMA_500_meanwind_234.txt.gz
Wind_Speed
29 29 29 30 29 29 29 29 30 30 30 30 31 32 32 32 32 32 32 32 33 33 33 34 34 34 34 34 34 34 34 33 33 33 33 33 33 33 33 33 33 32 32
30 31 30 30 31 31 31 32 32 32 32 32 33 33 34 34 34 34 34 35 35 35 35 35 36 37 37 36 36 36 36 36 36 36 36 36 35 35 35 35 35 35 35
31 32 32 32 32 32 33 34 34 34 34 34 35 35 36 37 37 37 37 37 37 37 38 38 38 39 39 38 38 38 38 37 38 38 38 38 38 38 38 38 38 38 38
33 33 33 33 34 34 34 35 36 36 36 37 37 38 38 39 38 39 39 39 39 40 40 40 41 41 41 40 40 40 40 39 39 39 39 40 40 40 40 40 40 40 40
34 34 35 35 35 36 36 37 37 38 39 39 40 40 40 40 40 40 41 41 41 42 42 43 43 43 43 42 42 42 42 41 41 41 42 42 42 42 42 42 43 43 43
36 36 36 37 37 38 38 38 39 40 41 41 42 42 41 41 42 42 43 43 43 43 44 44 44 44 45 44 45 45 45 44 44 44 44 44 45 45 45 45 45 45 45
38 38 38 38 39 39 40 40 41 42 42 43 43 43 43 43 43 43 43 43 43 43 44 44 44 45 46 46 47 47 47 47 47 47 47 47 47 48 48 47 48 48 48
38 38 39 39 40 40 41 42 43 43 43 43 43 43 43 43 44 45 45 45 46 46 46 46 46 46 47 47 48 49 49 50 50 50 50 50 50 50 50 50 51 51 50
39 39 40 40 41 41 42 42 43 44 43 43 44 44 44 44 44 45 46 47 48 48 48 48 48 49 49 49 50 50 51 51 52 52 53 53 53 53 53 53 53 52 52
40 40 41 41 41 42 42 42 43 44 43 43 44 44 45 45 45 45 46 48 48 49 50 50 51 51 52 52 52 52 53 54 54 55 55 55 55 55 55 54 54 55 53
40 41 41 41 42 42 42 42 43 43 43 43 43 44 45 45 46 47 46 47 48 49 50 51 52 52 54 54 54 54 55 56 56 56 57 57 57 57 57 57 57 56 56
40 41 42 42 42 43 43 43 42 43 43 43 44 44 45 46 46 47 47 47 48 48 50 51 52 53 54 55 56 56 56 57 57 58 58 58 59 59 58 59 59 58 58
41 42 42 42 42 43 43 43 43 43 43 43 44 45 46 47 48 49 50 50 50 50 50 51 53 54 55 56 57 57 57 57 57 58 58 59 59 60 59 59 59 59 59
42 42 42 42 43 43 43 43 43 44 44 45 47 48 48 49 49 50 52 53 53 52 52 52 53 55 56 57 57 57 58 58 58 59 59 59 60 60 60 59 60 59 60
43 43 43 44 44 44 45 45 45 46 46 47 48 49 50 51 52 53 53 55 56 55 54 54 54 54 56 56 56 57 58 58 59 59 60 59 59 59 60 61 61 61 60
44 44 44 45 45 45 46 47 47 48 48 49 50 51 52 53 53 54 55 56 57 58 57 55 55 55 55 56 56 57 57 58 58 58 58 59 59 60 60 60 61 61 60
46 46 46 46 46 47 47 48 49 49 50 51 52 53 54 55 55 57 57 57 58 58 58 56 55 55 56 56 56 56 56 57 57 56 57 58 59 59 59 59 59 59 59
47 47 47 48 48 48 49 50 51 51 52 53 54 56 56 57 58 58 58 58 58 58 58 57 55 55 55 55 55 55 55 55 55 56 56 57 57 58 58 58 58 57 56
48 48 48 49 50 50 50 51 52 53 54 54 56 57 58 58 58 59 58 58 57 57 57 57 55 54 54 53 54 53 54 54 55 55 56 56 56 56 56 57 56 55 55
49 49 49 50 50 51 52 52 53 54 55 56 57 58 58 58 58 57 57 56 55 55 54 55 54 52 52 52 53 53 54 54 55 55 54 54 54 53 53 53 53 53 53
48 49 49 50 51 52 52 53 54 55 56 56 57 57 57 56 56 55 54 53 53 52 52 52 52 52 52 52 53 54 54 54 53 54 53 52 52 51 51 51 51 51 51
48 49 50 51 52 52 53 54 55 56 56 56 56 55 54 53 52 52 51 51 51 51 51 51 51 51 51 52 52 52 52 52 51 51 51 50 50 49 48 49 49 49 48
49 49 50 51 52 53 53 54 55 55 55 55 54 53 52 51 50 50 50 50 50 51 51 51 51 51 51 50 50 51 51 51 50 49 49 47 46 46 46 46 46 46 46
50 50 51 52 52 52 53 54 54 54 53 52 51 50 49 48 48 49 49 49 49 49 49 50 50 49 49 49 50 50 50 49 47 47 47 45 44 43 43 43 42 42 42
50 51 51 52 52 52 52 53 53 52 51 50 49 48 48 47 46 47 47 47 47 47 48 48 49 49 49 49 49 49 48 47 45 44 44 43 42 42 40 39 39 39 38
50 51 50 50 51 51 51 51 51 50 49 48 47 46 45 44 44 45 45 46 45 46 47 47 48 48 48 48 47 47 47 45 44 41 41 41 40 40 38 36 36 35 36